GFSNW_prec_snow_069.txt.gz
Snowfall_Accumulation
0.0 0.0 0.0 0.0 0.0 0.0 0.0 0.0 3.8 0.0 0.0 0.0 5.5 6.5 1.7 0.0 0.0 0.0 0.0 0.0 0.0 0.0 0.0 0.0 0.0 0.0 0.0 0.0 0.0 0.0 0.0 0.1 0.4 1.0 0.0 0.0 0.0 0.0 0.0 2.1 0.4 1.2 0.4 0.0
0.0 0.0 0.0 0.0 0.0 0.0 0.0 0.0 0.0 0.0 0.0 2.6 2.3 0.0 0.0 0.0 0.0 0.0 0.0 0.0 0.0 0.0 0.0 0.0 0.0 0.0 0.0 0.0 0.0 0.0 0.0 0.3 0.7 1.3 0.0 0.0 0.3 0.1 0.1 1.7 2.5 2.2 0.8 0.0
0.0 0.0 0.0 0.0 0.0 0.0 0.0 0.0 3.2 0.0 0.0 0.0 0.0 0.0 0.0 0.0 0.0 0.0 0.0 0.0 0.0 0.0 0.0 0.0 0.0 0.0 0.0 0.0 0.0 0.0 0.0 0.0 0.0 0.1 0.6 1.2 1.8 0.0 0.6 3.7 5.0 0.0 0.2 0.0
0.0 0.0 0.0 0.0 0.0 0.0 0.0 0.0 1.0 0.0 1.5 0.0 0.0 0.0 0.0 0.0 0.0 0.0 0.0 0.0 0.0 0.0 0.0 0.0 0.0 0.0 0.0 0.0 0.0 0.0 0.0 0.0 0.0 0.0 0.6 1.9 2.0 0.7 0.4 3.0 0.5 1.9 0.0 0.0
0.0 0.0 0.0 0.0 0.0 0.0 0.0 0.0 0.0 0.0 0.0 0.0 0.0 0.0 0.0 0.0 0.0 0.0 0.0 0.0 0.0 0.0 0.0 0.0 0.0 0.0 0.0 0.0 0.0 0.0 0.0 0.0 0.1 0.6 0.0 0.9 1.6 0.4 0.4 0.2 0.0 0.2 0.0 0.0
0.0 0.0 0.0 0.0 0.0 0.0 0.0 0.0 0.0 0.0 0.0 0.0 0.0 0.0 0.0 0.0 0.0 0.0 0.0 0.0 0.0 0.0 0.0 0.0 0.0 0.0 0.0 0.0 0.0 0.0 0.0 0.0 1.5 0.6 0.0 0.7 0.6 0.2 0.1 0.0 0.0 0.0 0.1 0.0
0.0 0.0 0.0 0.0 0.0 0.0 0.0 0.0 0.0 0.0 0.0 0.0 0.0 0.0 0.0 0.0 0.0 0.0 0.0 0.0 0.0 0.0 0.0 0.0 0.0 0.0 0.0 0.0 0.0 0.0 0.0 0.6 1.9 0.8 0.6 2.4 0.0 0.0 0.0 0.0 0.0 0.0 0.0 0.0
0.0 0.0 0.0 0.0 0.0 0.0 0.0 0.0 0.0 0.0 0.0 0.0 0.0 0.0 0.0 0.0 0.0 0.0 0.0 0.0 0.0 0.0 0.0 0.0 0.0 0.0 0.0 0.0 0.0 0.0 0.0 0.0 1.8 1.6 1.4 0.0 0.0 0.0 0.0 0.0 0.0 0.0 0.0 0.0
0.0 0.0 0.0 0.0 0.0 0.0 0.0 0.0 0.0 0.0 0.0 0.0 0.0 0.0 0.0 0.0 0.0 0.0 0.0 0.0 0.0 0.0 0.0 0.0 0.8 0.3 0.1 0.0 0.0 0.0 0.0 0.0 1.2 0.9 0.8 0.1 0.0 0.0 0.0 0.0 0.0 0.0 0.0 0.0
0.0 0.0 0.0 0.0 0.0 0.0 0.0 0.0 0.0 0.0 0.0 0.0 0.0 0.0 0.0 0.0 0.0 0.0 0.0 0.0 0.0 0.0 0.0 1.1 0.6 0.0 0.0 0.0 0.0 0.2 0.3 0.3 1.4 1.0 1.2 0.0 0.0 0.0 0.0 0.0 0.0 0.0 0.0 0.0
0.0 0.0 0.0 0.0 0.0 0.0 0.0 0.0 0.0 0.0 0.0 0.0 0.0 0.0 0.0 0.0 0.0 0.0 0.0 0.0 0.0 0.0 0.7 0.0 0.0 0.1 0.0 0.0 0.0 0.0 0.0 0.2 0.2 0.6 0.5 0.0 0.0 0.0 0.0 0.0 0.0 0.0 0.0 0.0
0.0 0.0 0.0 0.0 0.0 0.0 0.0 0.0 0.0 0.0 0.0 0.0 0.0 0.0 0.0 0.0 0.0 0.0 0.0 0.0 0.0 0.0 0.0 0.0 0.0 0.1 0.0 0.0 0.0 0.0 0.0 0.0 0.0 0.0 0.0 0.0 0.0 0.0 0.0 0.0 0.0 0.0 0.0 0.0
0.0 0.0 0.0 0.0 0.0 0.0 0.0 0.0 0.0 0.0 0.1 0.0 0.0 0.0 0.0 0.0 0.0 0.0 0.0 0.0 0.0 0.0 0.0 0.0 0.0 0.0 0.0 0.1 0.0 0.0 0.0 0.0 0.0 0.0 0.0 0.0 0.0 0.0 0.0 0.0 0.0 0.0 0.0 0.0
0.0 0.0 0.0 0.0 0.0 0.0 0.0 0.0 0.0 0.0 0.1 0.8 0.1 0.0 0.0 0.0 0.0 0.0 0.0 0.0 0.0 0.0 0.0 0.0 0.0 0.0 0.0 0.0 0.0 0.0 0.0 0.0 0.0 0.0 0.0 0.0 0.0 0.0 0.0 0.0 0.0 0.0 0.0 0.0
0.0 0.0 0.0 0.0 0.0 0.0 0.0 0.0 0.0 0.0 0.2 1.9 0.3 0.0 0.0 0.0 0.0 0.0 0.0 0.0 0.0 0.5 0.3 1.1 0.7 0.0 0.0 0.0 0.0 0.0 0.0 0.0 0.0 0.0 0.0 0.0 0.0 0.0 0.0 0.0 0.0 0.0 0.0 0.0
0.0 0.0 0.0 0.0 0.0 0.0 0.0 0.0 0.0 0.0 0.0 3.0 1.6 0.0 0.0 0.0 0.0 0.0 0.0 0.0 0.0 0.1 1.1 1.6 0.0 0.0 0.0 0.6 0.0 0.0 0.0 0.0 0.0 0.0 0.0 0.0 0.0 0.0 0.0 0.0 0.0 0.0 0.0 0.0
0.0 0.0 0.0 0.0 0.0 0.0 0.2 0.0 0.0 0.0 0.0 1.5 3.8 4.0 0.0 0.0 0.0 0.0 0.0 0.0 0.0 2.0 3.2 1.5 0.0 0.0 1.6 1.3 0.3 0.0 0.0 0.0 0.0 0.0 0.0 0.0 0.0 0.0 0.0 0.0 0.0 0.0 0.0 0.0
0.0 0.0 0.0 0.0 0.0 0.0 0.0 0.0 0.0 0.0 0.0 4.3 8.6 7.1 2.9 0.0 0.4 0.0 0.0 0.0 0.0 0.5 1.4 0.0 0.0 0.0 2.2 1.4 0.0 0.0 0.0 0.0 0.0 0.0 0.0 0.0 0.0 0.0 0.0 0.0 0.0 0.0 0.0 0.0
0.0 0.0 0.0 0.0 0.0 0.0 0.0 0.0 0.0 0.0 0.0 7.3 6.7 6.7 5.1 0.0 0.0 0.0 0.2 0.0 4.5 0.0 1.6 0.0 0.4 1.2 2.8 0.0 0.1 0.1 0.0 0.1 0.0 0.0 0.0 0.0 0.0 0.0 0.0 0.0 0.0 0.0 0.0 0.0
0.0 0.0 0.0 0.9 0.0 0.0 0.0 0.0 0.7 4.5 3.5 3.8 5.1 4.8 5.9 3.0 4.7 1.7 1.7 1.9 3.0 3.7 0.0 0.0 1.2 0.0 0.0 0.0 0.0 0.1 0.1 0.0 0.1 0.0 3.0 1.6 1.0 0.0 0.0 0.0 0.0 0.0 0.0 0.0
0.0 0.0 0.0 0.0 0.0 0.0 0.0 5.6 6.7 3.8 2.4 2.3 3.3 4.5 3.7 0.0 5.0 3.5 0.3 5.7 2.5 4.1 4.9 1.1 2.2 1.6 1.2 0.0 0.1 0.0 0.0 0.1 0.0 0.0 0.0 0.5 2.1 2.0 0.6 0.4 0.2 0.0 0.0 0.0
0.0 0.0 0.0 0.0 0.8 3.8 4.9 5.7 3.8 1.3 1.0 1.6 2.9 1.5 1.0 1.0 0.0 2.1 1.9 3.7 3.3 3.7 5.2 3.8 2.7 1.0 0.2 1.1 1.0 0.7 0.1 0.0 0.1 0.0 0.0 0.3 0.0 1.0 1.3 0.9 1.2 1.4 1.6 1.6
0.0 0.0 0.0 0.4 1.0 2.1 3.0 2.9 2.5 0.5 0.7 0.9 0.9 1.1 0.0 0.0 0.1 0.6 1.6 1.6 0.7 1.2 3.7 3.9 1.7 0.3 0.2 0.0 0.2 0.5 2.2 2.7 1.5 1.0 0.8 0.8 0.8 0.5 0.9 0.8 0.5 0.7 0.4 0.7
0.0 0.0 0.0 0.5 0.8 1.2 1.2 1.1 1.1 0.2 0.1 0.0 0.0 0.6 1.3 0.2 1.2 1.2 1.5 0.1 0.6 2.4 1.6 1.5 0.2 0.2 0.0 0.0 0.0 0.0 0.0 1.1 1.8 2.8 2.3 1.8 2.1 1.3 1.5 0.9 0.3 0.0 0.0 0.0
0.0 0.0 0.0 0.0 0.0 0.2 0.1 0.0 0.2 0.0 0.0 0.1 0.0 0.0 0.1 1.0 1.3 0.3 1.0 0.9 2.7 3.2 2.0 1.4 0.7 0.2 0.0 0.1 0.1 0.0 0.0 0.0 0.0 0.3 0.7 2.1 1.9 2.2 1.4 0.7 0.6 0.1 0.0 0.1
0.0 0.0 0.0 0.0 0.0 0.0 0.0 0.0 0.0 0.0 0.0 0.3 0.4 0.6 1.0 0.5 1.7 1.0 0.3 1.1 2.0 2.5 1.3 0.0 0.0 0.0 0.0 0.1 0.0 0.1 0.0 0.0 0.0 0.0 0.0 0.5 0.5 1.1 1.0 0.2 0.5 0.4 0.0 0.6
0.0 0.0 0.0 0.0 0.0 0.0 0.0 0.0 0.0 0.0 0.2 1.6 2.1 2.5 0.1 0.4 0.8 0.3 0.1 0.2 0.3 0.3 0.0 0.0 0.0 0.0 0.0 0.4 0.0 0.0 0.1 0.0 0.0 0.2 0.2 0.8 0.4 1.4 1.8 1.1 0.4 0.5 0.7 0.8

GFSNW_prec_snow_072.txt.gz
Snowfall_Accumulation
0.0 0.0 0.0 0.0 0.0 0.0 0.0 0.0 5.3 0.0 0.0 0.0 5.5 6.5 1.7 0.0 0.0 0.0 0.0 0.0 0.0 0.0 0.0 0.0 0.0 0.0 0.0 0.0 0.0 0.0 0.0 0.1 0.4 1.0 0.0 0.0 0.0 0.0 0.0 2.1 0.4 1.2 0.4 0.0
0.0 0.0 0.0 0.0 0.0 0.0 0.0 0.0 0.0 0.0 0.0 2.7 2.3 0.0 0.0 0.0 0.0 0.0 0.0 0.0 0.0 0.0 0.0 0.0 0.0 0.0 0.0 0.0 0.0 0.0 0.0 0.3 0.7 1.3 0.0 0.0 0.3 0.1 0.1 1.7 2.5 2.2 0.8 0.0
0.0 0.0 0.0 0.0 0.0 0.0 0.0 0.0 4.6 0.0 0.0 0.0 0.0 0.0 0.0 0.0 0.0 0.0 0.0 0.0 0.0 0.0 0.0 0.0 0.0 0.0 0.0 0.0 0.0 0.0 0.0 0.0 0.0 0.1 0.6 1.2 1.8 0.0 0.6 3.7 5.0 0.0 0.2 0.0
0.0 0.0 0.0 0.0 0.0 0.0 0.0 0.0 1.7 0.0 1.6 0.0 0.0 0.0 0.0 0.0 0.0 0.0 0.0 0.0 0.0 0.0 0.0 0.0 0.0 0.0 0.0 0.0 0.0 0.0 0.0 0.0 0.0 0.0 0.6 1.9 2.0 0.7 0.4 3.0 0.5 1.9 0.0 0.0
0.0 0.0 0.0 0.0 0.0 0.0 0.0 0.0 0.0 0.0 0.0 0.0 0.0 0.0 0.0 0.0 0.0 0.0 0.0 0.0 0.0 0.0 0.0 0.0 0.0 0.0 0.0 0.0 0.0 0.0 0.0 0.0 0.1 0.6 0.0 0.9 1.6 0.4 0.4 0.2 0.0 0.2 0.0 0.0
0.0 0.0 0.0 0.0 0.0 0.0 0.0 0.0 0.0 0.0 0.0 0.0 0.0 0.0 0.0 0.0 0.0 0.0 0.0 0.0 0.0 0.0 0.0 0.0 0.0 0.0 0.0 0.0 0.0 0.0 0.0 0.0 1.5 0.6 0.0 0.7 0.6 0.2 0.1 0.0 0.0 0.0 0.1 0.0
0.0 0.0 0.0 0.0 0.0 0.0 0.0 0.0 0.0 0.0 0.0 0.0 0.0 0.0 0.0 0.0 0.0 0.0 0.0 0.0 0.0 0.0 0.0 0.0 0.0 0.0 0.0 0.0 0.0 0.0 0.0 0.6 1.9 0.8 0.6 2.4 0.0 0.0 0.0 0.0 0.0 0.0 0.0 0.0
0.0 0.0 0.0 0.0 0.0 0.0 0.0 0.0 0.0 0.0 0.0 0.0 0.0 0.0 0.0 0.0 0.0 0.0 0.0 0.0 0.0 0.0 0.0 0.0 0.0 0.0 0.0 0.0 0.0 0.0 0.0 0.0 1.8 1.6 1.4 0.0 0.0 0.0 0.0 0.0 0.0 0.0 0.0 0.0
0.0 0.0 0.0 0.0 0.0 0.0 0.0 0.0 0.0 0.0 0.0 0.0 0.0 0.0 0.0 0.0 0.0 0.0 0.0 0.0 0.0 0.0 0.0 0.0 0.8 0.3 0.1 0.0 0.0 0.0 0.0 0.0 1.2 0.9 0.8 0.1 0.0 0.0 0.0 0.0 0.0 0.0 0.0 0.0
0.0 0.0 0.0 0.0 0.0 0.0 0.0 0.0 0.0 0.0 0.0 0.0 0.0 0.0 0.0 0.0 0.0 0.0 0.0 0.0 0.0 0.0 0.0 1.1 0.6 0.0 0.0 0.0 0.0 0.2 0.3 0.3 1.4 1.0 1.2 0.0 0.0 0.0 0.0 0.0 0.0 0.0 0.0 0.0
0.0 0.0 0.0 0.0 0.0 0.0 0.0 0.0 0.0 0.0 0.0 0.0 0.0 0.0 0.0 0.0 0.0 0.0 0.0 0.0 0.0 0.0 0.7 0.0 0.0 0.1 0.0 0.0 0.0 0.0 0.0 0.2 0.2 0.6 0.5 0.0 0.0 0.0 0.0 0.0 0.0 0.0 0.0 0.0
0.0 0.0 0.0 0.0 0.0 0.0 0.0 0.0 0.0 0.0 0.0 0.0 0.0 0.0 0.0 0.0 0.0 0.0 0.0 0.0 0.0 0.0 0.0 0.0 0.0 0.1 0.0 0.0 0.0 0.0 0.0 0.0 0.0 0.0 0.0 0.0 0.0 0.0 0.0 0.0 0.0 0.0 0.0 0.0
0.0 0.0 0.0 0.0 0.0 0.0 0.0 0.0 0.0 0.0 0.1 0.0 0.0 0.0 0.0 0.0 0.0 0.0 0.0 0.0 0.0 0.0 0.0 0.0 0.0 0.0 0.0 0.1 0.0 0.0 0.0 0.0 0.0 0.0 0.0 0.0 0.0 0.0 0.0 0.0 0.0 0.0 0.0 0.0
0.0 0.0 0.0 0.0 0.0 0.0 0.0 0.0 0.0 0.0 0.1 0.8 0.1 0.0 0.0 0.0 0.0 0.0 0.0 0.0 0.0 0.0 0.0 0.0 0.0 0.0 0.0 0.0 0.0 0.0 0.0 0.0 0.0 0.0 0.0 0.0 0.0 0.0 0.0 0.0 0.0 0.0 0.0 0.0
0.0 0.0 0.0 0.0 0.0 0.0 0.0 0.0 0.0 0.0 0.2 1.9 0.3 0.0 0.0 0.0 0.0 0.0 0.0 0.0 0.0 0.5 0.3 1.1 0.7 0.0 0.0 0.0 0.0 0.0 0.0 0.0 0.0 0.0 0.0 0.0 0.0 0.0 0.0 0.0 0.0 0.0 0.0 0.0
0.0 0.0 0.0 0.0 0.0 0.0 0.0 0.0 0.0 0.0 0.0 3.0 1.6 0.0 0.0 0.0 0.0 0.0 0.0 0.0 0.0 0.1 1.1 1.6 0.0 0.0 0.0 0.6 0.0 0.0 0.0 0.0 0.0 0.0 0.0 0.0 0.0 0.0 0.0 0.0 0.0 0.0 0.0 0.0
0.0 0.0 0.0 0.0 0.0 0.0 0.2 0.0 0.0 0.0 0.0 1.5 3.8 4.0 0.0 0.0 0.0 0.0 0.0 0.0 0.0 2.0 3.2 1.5 0.0 0.0 1.6 1.3 0.3 0.0 0.0 0.0 0.0 0.0 0.0 0.0 0.0 0.0 0.0 0.0 0.0 0.0 0.0 0.0
0.0 0.0 0.0 0.0 0.0 0.0 0.0 0.0 0.0 0.0 0.0 4.3 8.6 7.1 2.9 0.0 0.4 0.0 0.0 0.0 0.0 0.5 1.4 0.0 0.0 0.0 2.2 1.4 0.0 0.0 0.0 0.0 0.0 0.0 0.0 0.0 0.0 0.0 0.0 0.0 0.0 0.0 0.0 0.0
0.0 0.0 0.0 0.0 0.0 0.0 0.0 0.0 0.0 0.0 0.0 7.3 6.7 6.7 5.1 0.0 0.0 0.0 0.2 0.0 4.5 0.0 1.6 0.0 0.4 1.2 2.8 0.0 0.1 0.1 0.0 0.1 0.0 0.0 0.0 0.0 0.0 0.0 0.0 0.0 0.0 0.0 0.0 0.0
0.0 0.0 0.0 0.9 0.0 0.0 0.0 0.0 0.7 4.5 3.5 3.8 5.1 4.8 5.9 3.0 4.7 1.7 1.7 1.9 3.0 3.7 0.0 0.0 1.2 0.0 0.0 0.0 0.0 0.1 0.1 0.0 0.1 0.0 3.0 1.6 1.0 0.0 0.0 0.0 0.0 0.0 0.0 0.0
0.0 0.0 0.0 0.0 0.0 0.0 0.0 5.6 6.7 3.8 2.4 2.3 3.3 4.5 3.7 0.0 5.0 3.5 0.3 5.7 2.5 4.1 4.9 1.1 2.2 1.6 1.2 0.0 0.1 0.0 0.0 0.1 0.0 0.0 0.0 0.5 2.1 2.0 0.6 0.4 0.2 0.0 0.0 0.0
0.0 0.0 0.0 0.0 0.8 3.8 4.9 5.7 3.8 1.3 1.0 1.6 2.9 1.5 1.0 1.0 0.0 2.1 1.9 3.7 3.3 3.7 5.2 3.8 2.7 1.0 0.2 1.1 1.0 0.7 0.1 0.0 0.1 0.0 0.0 0.3 0.0 1.0 1.3 0.9 1.2 1.4 1.6 1.6
0.0 0.0 0.0 0.4 1.0 2.1 3.0 2.9 2.5 0.5 0.7 0.9 0.9 1.1 0.0 0.0 0.1 0.6 1.6 1.6 0.7 1.2 3.7 3.9 1.7 0.3 0.2 0.0 0.2 0.5 2.2 2.7 1.5 1.0 0.8 0.8 0.8 0.5 0.9 0.8 0.5 0.7 0.4 0.7
0.0 0.0 0.0 0.5 0.8 1.2 1.2 1.1 1.1 0.2 0.1 0.0 0.0 0.6 1.3 0.2 1.2 1.2 1.5 0.1 0.6 2.4 1.6 1.5 0.2 0.2 0.0 0.0 0.0 0.0 0.0 1.1 1.8 2.8 2.3 1.8 2.1 1.3 1.5 0.9 0.3 0.0 0.0 0.0
0.0 0.0 0.0 0.0 0.0 0.2 0.1 0.0 0.2 0.0 0.0 0.1 0.0 0.0 0.1 1.0 1.3 0.3 1.0 0.9 2.7 3.2 2.0 1.4 0.7 0.2 0.0 0.1 0.1 0.0 0.0 0.0 0.0 0.3 0.7 2.1 1.9 2.2 1.4 0.7 0.6 0.1 0.0 0.1
0.0 0.0 0.0 0.0 0.0 0.0 0.0 0.0 0.0 0.0 0.0 0.3 0.4 0.6 1.0 0.5 1.7 1.0 0.3 1.1 2.0 2.5 1.3 0.0 0.0 0.0 0.0 0.1 0.0 0.1 0.0 0.0 0.0 0.0 0.0 0.5 0.5 1.1 1.0 0.2 0.5 0.4 0.0 0.6
0.0 0.0 0.0 0.0 0.0 0.0 0.0 0.0 0.0 0.0 0.2 1.6 2.1 2.5 0.1 0.4 0.8 0.3 0.1 0.2 0.3 0.3 0.0 0.0 0.0 0.0 0.0 0.4 0.0 0.0 0.1 0.0 0.0 0.2 0.2 0.8 0.4 1.4 1.8 1.1 0.4 0.5 0.7 0.8

GFSNW_prec_snow_075.txt.gz
Snowfall_Accumulation
0.0 0.0 0.0 0.0 0.0 0.0 0.0 0.0 6.8 0.0 0.0 0.4 5.5 6.5 1.7 0.0 0.0 0.0 0.0 0.0 0.0 0.0 0.0 0.0 0.0 0.0 0.0 0.0 0.0 0.0 0.0 0.1 0.4 1.0 0.0 0.0 0.0 0.0 0.0 2.1 0.4 1.2 0.4 0.0
0.0 0.0 0.0 0.0 0.0 0.0 0.0 0.0 0.0 0.0 0.0 3.1 2.4 0.0 0.0 0.0 0.0 0.0 0.0 0.0 0.0 0.0 0.0 0.0 0.0 0.0 0.0 0.0 0.0 0.0 0.0 0.3 0.7 1.3 0.0 0.0 0.3 0.1 0.1 1.7 2.5 2.2 0.8 0.0
0.0 0.0 0.0 0.0 0.0 0.0 0.0 0.0 6.3 0.0 0.0 0.0 0.0 0.0 0.0 0.0 0.0 0.0 0.0 0.0 0.0 0.0 0.0 0.0 0.0 0.0 0.0 0.0 0.0 0.0 0.0 0.0 0.0 0.1 0.6 1.2 1.8 0.0 0.6 3.7 5.0 0.0 0.2 0.0
0.0 0.0 0.0 0.0 0.0 0.0 0.0 0.0 2.6 0.0 1.9 0.0 0.0 0.0 0.0 0.0 0.0 0.0 0.0 0.0 0.0 0.0 0.0 0.0 0.0 0.0 0.0 0.0 0.0 0.0 0.0 0.0 0.0 0.0 0.6 1.9 2.0 0.7 0.4 3.0 0.5 1.9 0.0 0.0
0.0 0.0 0.0 0.0 0.0 0.0 0.0 0.0 0.0 0.0 0.0 0.0 0.0 0.0 0.0 0.0 0.0 0.0 0.0 0.0 0.0 0.0 0.0 0.0 0.0 0.0 0.0 0.0 0.0 0.0 0.0 0.0 0.1 0.6 0.0 0.9 1.6 0.4 0.4 0.2 0.0 0.2 0.0 0.0
0.0 0.0 0.0 0.0 0.0 0.0 0.0 0.0 0.0 0.0 0.0 0.0 0.0 0.0 0.0 0.0 0.0 0.0 0.0 0.0 0.0 0.0 0.0 0.0 0.0 0.0 0.0 0.0 0.0 0.0 0.0 0.0 1.5 0.6 0.0 0.7 0.6 0.2 0.1 0.0 0.0 0.0 0.1 0.0
0.0 0.0 0.0 0.0 0.0 0.0 0.0 0.0 0.0 0.0 0.0 0.0 0.0 0.0 0.0 0.0 0.0 0.0 0.0 0.0 0.0 0.0 0.0 0.0 0.0 0.0 0.0 0.0 0.0 0.0 0.0 0.6 1.9 0.8 0.6 2.4 0.0 0.0 0.0 0.0 0.0 0.0 0.0 0.0
0.0 0.0 0.0 0.0 0.0 0.0 0.0 0.0 0.0 0.0 0.0 0.0 0.0 0.0 0.0 0.0 0.0 0.0 0.0 0.0 0.0 0.0 0.0 0.0 0.0 0.0 0.0 0.0 0.0 0.0 0.0 0.0 1.8 1.6 1.4 0.0 0.0 0.0 0.0 0.0 0.0 0.0 0.0 0.0
0.0 0.0 0.0 0.0 0.0 0.0 0.0 0.0 0.0 0.0 0.0 0.0 0.0 0.0 0.0 0.0 0.0 0.0 0.0 0.0 0.0 0.0 0.0 0.0 0.8 0.3 0.1 0.0 0.0 0.0 0.0 0.0 1.2 0.9 0.8 0.1 0.0 0.0 0.0 0.0 0.0 0.0 0.0 0.0
0.0 0.0 0.0 0.0 0.0 0.0 0.0 0.0 0.0 0.0 0.0 0.0 0.0 0.0 0.0 0.0 0.0 0.0 0.0 0.0 0.0 0.0 0.0 1.1 0.6 0.0 0.0 0.0 0.0 0.2 0.3 0.3 1.4 1.0 1.2 0.0 0.0 0.0 0.0 0.0 0.0 0.0 0.0 0.0
0.0 0.0 0.0 0.0 0.0 0.0 0.0 0.0 0.0 0.0 0.0 0.0 0.0 0.0 0.0 0.0 0.0 0.0 0.0 0.0 0.0 0.0 0.7 0.0 0.0 0.1 0.0 0.0 0.0 0.0 0.0 0.2 0.2 0.6 0.5 0.0 0.0 0.0 0.0 0.0 0.0 0.0 0.0 0.0
0.0 0.0 0.0 0.0 0.0 0.0 0.0 0.0 0.0 0.0 0.0 0.0 0.0 0.0 0.0 0.0 0.0 0.0 0.0 0.0 0.0 0.0 0.0 0.0 0.0 0.1 0.0 0.0 0.0 0.0 0.0 0.0 0.0 0.0 0.0 0.0 0.0 0.0 0.0 0.0 0.0 0.0 0.0 0.0
0.0 0.0 0.0 0.0 0.0 0.0 0.0 0.0 0.0 0.0 0.1 0.0 0.0 0.0 0.0 0.0 0.0 0.0 0.0 0.0 0.0 0.0 0.0 0.0 0.0 0.0 0.0 0.1 0.0 0.0 0.0 0.0 0.0 0.0 0.0 0.0 0.0 0.0 0.0 0.0 0.0 0.0 0.0 0.0
0.0 0.0 0.0 0.0 0.0 0.0 0.0 0.0 0.0 0.0 0.1 0.8 0.1 0.0 0.0 0.0 0.0 0.0 0.0 0.0 0.0 0.0 0.0 0.0 0.0 0.0 0.0 0.0 0.0 0.0 0.0 0.0 0.0 0.0 0.0 0.0 0.0 0.0 0.0 0.0 0.0 0.0 0.0 0.0
0.0 0.0 0.0 0.0 0.0 0.0 0.0 0.0 0.0 0.0 0.2 1.9 0.3 0.0 0.0 0.0 0.0 0.0 0.0 0.0 0.0 0.5 0.3 1.1 0.7 0.0 0.0 0.0 0.0 0.0 0.0 0.0 0.0 0.0 0.0 0.0 0.0 0.0 0.0 0.0 0.0 0.0 0.0 0.0
0.0 0.0 0.0 0.0 0.0 0.0 0.0 0.0 0.0 0.0 0.0 3.0 1.6 0.0 0.0 0.0 0.0 0.0 0.0 0.0 0.0 0.1 1.1 1.6 0.0 0.0 0.0 0.6 0.0 0.0 0.0 0.0 0.0 0.0 0.0 0.0 0.0 0.0 0.0 0.0 0.0 0.0 0.0 0.0
0.0 0.0 0.0 0.0 0.0 0.0 0.2 0.0 0.0 0.0 0.0 1.5 3.8 4.0 0.0 0.0 0.0 0.0 0.0 0.0 0.0 2.0 3.2 1.5 0.0 0.0 1.6 1.3 0.3 0.0 0.0 0.0 0.0 0.0 0.0 0.0 0.0 0.0 0.0 0.0 0.0 0.0 0.0 0.0
0.0 0.0 0.0 0.0 0.0 0.0 0.0 0.0 0.0 0.0 0.0 4.3 8.6 7.1 2.9 0.0 0.4 0.0 0.0 0.0 0.0 0.5 1.4 0.0 0.0 0.0 2.2 1.4 0.0 0.0 0.0 0.0 0.0 0.0 0.0 0.0 0.0 0.0 0.0 0.0 0.0 0.0 0.0 0.0
0.0 0.0 0.0 0.0 0.0 0.0 0.0 0.0 0.0 0.0 0.0 7.3 6.7 6.7 5.1 0.0 0.0 0.0 0.2 0.0 4.5 0.0 1.6 0.0 0.4 1.2 2.8 0.0 0.1 0.1 0.0 0.1 0.0 0.0 0.0 0.0 0.0 0.0 0.0 0.0 0.0 0.0 0.0 0.0
0.0 0.0 0.0 0.9 0.0 0.0 0.0 0.0 0.7 4.5 3.5 3.8 5.1 4.8 5.9 3.0 4.7 1.7 1.7 1.9 3.0 3.7 0.0 0.0 1.2 0.0 0.0 0.0 0.0 0.1 0.1 0.0 0.1 0.0 3.0 1.6 1.0 0.0 0.0 0.0 0.0 0.0 0.0 0.0
0.0 0.0 0.0 0.0 0.0 0.0 0.0 5.6 6.7 3.8 2.4 2.3 3.3 4.5 3.7 0.0 5.0 3.5 0.3 5.7 2.5 4.1 4.9 1.1 2.2 1.6 1.2 0.0 0.1 0.0 0.0 0.1 0.0 0.0 0.0 0.5 2.1 2.0 0.6 0.4 0.2 0.0 0.0 0.0
0.0 0.0 0.0 0.0 0.8 3.8 4.9 5.7 3.8 1.3 1.0 1.6 2.9 1.5 1.0 1.0 0.0 2.1 1.9 3.7 3.3 3.7 5.2 3.8 2.7 1.0 0.2 1.1 1.0 0.7 0.1 0.0 0.1 0.0 0.0 0.3 0.0 1.0 1.3 0.9 1.2 1.4 1.6 1.6
0.0 0.0 0.0 0.4 1.0 2.1 3.0 2.9 2.5 0.5 0.7 0.9 0.9 1.1 0.0 0.0 0.1 0.6 1.6 1.6 0.7 1.2 3.7 3.9 1.7 0.3 0.2 0.0 0.2 0.5 2.2 2.7 1.5 1.0 0.8 0.8 0.8 0.5 0.9 0.8 0.5 0.7 0.4 0.7
0.0 0.0 0.0 0.5 0.8 1.2 1.2 1.1 1.1 0.2 0.1 0.0 0.0 0.6 1.3 0.2 1.2 1.2 1.5 0.1 0.6 2.4 1.6 1.5 0.2 0.2 0.0 0.0 0.0 0.0 0.0 1.1 1.8 2.8 2.3 1.8 2.1 1.3 1.5 0.9 0.3 0.0 0.0 0.0
0.0 0.0 0.0 0.0 0.0 0.2 0.1 0.0 0.2 0.0 0.0 0.1 0.0 0.0 0.1 1.0 1.3 0.3 1.0 0.9 2.7 3.2 2.0 1.4 0.7 0.2 0.0 0.1 0.1 0.0 0.0 0.0 0.0 0.3 0.7 2.1 1.9 2.2 1.4 0.7 0.6 0.1 0.0 0.1
0.0 0.0 0.0 0.0 0.0 0.0 0.0 0.0 0.0 0.0 0.0 0.3 0.4 0.6 1.0 0.5 1.7 1.0 0.3 1.1 2.0 2.5 1.3 0.0 0.0 0.0 0.0 0.1 0.0 0.1 0.0 0.0 0.0 0.0 0.0 0.5 0.5 1.1 1.0 0.2 0.5 0.4 0.0 0.6
0.0 0.0 0.0 0.0 0.0 0.0 0.0 0.0 0.0 0.0 0.2 1.6 2.1 2.5 0.1 0.4 0.8 0.3 0.1 0.2 0.3 0.3 0.0 0.0 0.0 0.0 0.0 0.4 0.0 0.0 0.1 0.0 0.0 0.2 0.2 0.8 0.4 1.4 1.8 1.1 0.4 0.5 0.7 0.8

GFSNW_prec_snow_078.txt.gz
Snowfall_Accumulation
0.0 0.0 0.0 0.0 0.0 0.0 0.0 0.0 7.8 0.0 0.0 2.1 6.4 6.7 1.7 0.0 0.0 0.0 0.0 0.0 0.0 0.0 0.0 0.0 0.0 0.0 0.0 0.0 0.0 0.0 0.0 0.1 0.4 1.0 0.0 0.0 0.0 0.0 0.0 2.1 0.4 1.2 0.4 0.0
0.0 0.0 0.0 0.0 0.0 0.0 0.0 0.0 0.0 0.0 0.0 4.4 2.6 0.0 0.0 0.0 0.0 0.0 0.0 0.0 0.0 0.0 0.0 0.0 0.0 0.0 0.0 0.0 0.0 0.0 0.0 0.3 0.7 1.3 0.0 0.0 0.3 0.1 0.1 1.7 2.5 2.2 0.8 0.0
0.0 0.0 0.0 0.0 0.0 0.0 0.0 0.0 7.8 0.0 0.0 0.0 0.0 0.0 0.0 0.0 0.0 0.0 0.0 0.0 0.0 0.0 0.0 0.0 0.0 0.0 0.0 0.0 0.0 0.0 0.0 0.0 0.0 0.1 0.6 1.2 1.8 0.0 0.6 3.7 5.0 0.0 0.2 0.0
0.0 0.0 0.0 0.0 0.0 0.0 0.0 0.0 3.6 0.0 2.6 0.0 0.0 0.0 0.0 0.0 0.0 0.0 0.0 0.0 0.0 0.0 0.0 0.0 0.0 0.0 0.0 0.0 0.0 0.0 0.0 0.0 0.0 0.0 0.6 1.9 2.0 0.7 0.4 3.0 0.5 1.9 0.0 0.0
0.0 0.0 0.0 0.0 0.0 0.0 0.0 0.0 0.0 0.0 0.0 0.0 0.0 0.0 0.0 0.0 0.0 0.0 0.0 0.0 0.0 0.0 0.0 0.0 0.0 0.0 0.0 0.0 0.0 0.0 0.0 0.0 0.1 0.6 0.0 0.9 1.6 0.4 0.4 0.2 0.0 0.2 0.0 0.0
0.0 0.0 0.0 0.0 0.0 0.0 0.0 0.0 0.0 0.0 0.0 0.0 0.0 0.0 0.0 0.0 0.0 0.0 0.0 0.0 0.0 0.0 0.0 0.0 0.0 0.0 0.0 0.0 0.0 0.0 0.0 0.0 1.5 0.6 0.0 0.7 0.6 0.2 0.1 0.0 0.0 0.0 0.1 0.0
0.0 0.0 0.0 0.0 0.0 0.0 0.0 0.0 0.0 0.0 0.0 0.0 0.0 0.0 0.0 0.0 0.0 0.0 0.0 0.0 0.0 0.0 0.0 0.0 0.0 0.0 0.0 0.0 0.0 0.0 0.0 0.6 1.9 0.8 0.6 2.4 0.0 0.0 0.0 0.0 0.0 0.0 0.0 0.0
0.0 0.0 0.0 0.0 0.0 0.0 0.0 0.0 0.0 0.0 0.0 0.0 0.0 0.0 0.0 0.0 0.0 0.0 0.0 0.0 0.0 0.0 0.0 0.0 0.0 0.0 0.0 0.0 0.0 0.0 0.0 0.0 1.8 1.6 1.4 0.0 0.0 0.0 0.0 0.0 0.0 0.0 0.0 0.0
0.0 0.0 0.0 0.0 0.0 0.0 0.0 0.0 0.0 0.0 0.0 0.0 0.0 0.0 0.0 0.0 0.0 0.0 0.0 0.0 0.0 0.0 0.0 0.0 0.8 0.3 0.1 0.0 0.0 0.0 0.0 0.0 1.2 0.9 0.8 0.1 0.0 0.0 0.0 0.0 0.0 0.0 0.0 0.0
0.0 0.0 0.0 0.0 0.0 0.0 0.0 0.0 0.0 0.0 0.0 0.0 0.0 0.0 0.0 0.0 0.0 0.0 0.0 0.0 0.0 0.0 0.0 1.1 0.6 0.0 0.0 0.0 0.0 0.2 0.3 0.3 1.4 1.0 1.2 0.0 0.0 0.0 0.0 0.0 0.0 0.0 0.0 0.0
0.0 0.0 0.0 0.0 0.0 0.0 0.0 0.0 0.0 0.0 0.0 0.0 0.0 0.0 0.0 0.0 0.0 0.0 0.0 0.0 0.0 0.0 0.7 0.0 0.0 0.1 0.0 0.0 0.0 0.0 0.0 0.2 0.2 0.6 0.5 0.0 0.0 0.0 0.0 0.0 0.0 0.0 0.0 0.0
0.0 0.0 0.0 0.0 0.0 0.0 0.0 0.0 0.0 0.0 0.0 0.0 0.0 0.0 0.0 0.0 0.0 0.0 0.0 0.0 0.0 0.0 0.0 0.0 0.0 0.1 0.0 0.0 0.0 0.0 0.0 0.0 0.0 0.0 0.0 0.0 0.0 0.0 0.0 0.0 0.0 0.0 0.0 0.0
0.0 0.0 0.0 0.0 0.0 0.0 0.0 0.0 0.0 0.0 0.1 0.0 0.0 0.0 0.0 0.0 0.0 0.0 0.0 0.0 0.0 0.0 0.0 0.0 0.0 0.0 0.0 0.1 0.0 0.0 0.0 0.0 0.0 0.0 0.0 0.0 0.0 0.0 0.0 0.0 0.0 0.0 0.0 0.0
0.0 0.0 0.0 0.0 0.0 0.0 0.0 0.0 0.0 0.0 0.1 0.8 0.1 0.0 0.0 0.0 0.0 0.0 0.0 0.0 0.0 0.0 0.0 0.0 0.0 0.0 0.0 0.0 0.0 0.0 0.0 0.0 0.0 0.0 0.0 0.0 0.0 0.0 0.0 0.0 0.0 0.0 0.0 0.0
0.0 0.0 0.0 0.0 0.0 0.0 0.0 0.0 0.0 0.0 0.2 1.9 0.3 0.0 0.0 0.0 0.0 0.0 0.0 0.0 0.0 0.5 0.3 1.1 0.7 0.0 0.0 0.0 0.0 0.0 0.0 0.0 0.0 0.0 0.0 0.0 0.0 0.0 0.0 0.0 0.0 0.0 0.0 0.0
0.0 0.0 0.0 0.0 0.0 0.0 0.0 0.0 0.0 0.0 0.0 3.0 1.6 0.0 0.0 0.0 0.0 0.0 0.0 0.0 0.0 0.1 1.1 1.6 0.0 0.0 0.0 0.6 0.0 0.0 0.0 0.0 0.0 0.0 0.0 0.0 0.0 0.0 0.0 0.0 0.0 0.0 0.0 0.0
0.0 0.0 0.0 0.0 0.0 0.0 0.2 0.0 0.0 0.0 0.0 1.5 3.8 4.0 0.0 0.0 0.0 0.0 0.0 0.0 0.0 2.0 3.2 1.5 0.0 0.0 1.6 1.3 0.3 0.0 0.0 0.0 0.0 0.0 0.0 0.0 0.0 0.0 0.0 0.0 0.0 0.0 0.0 0.0
0.0 0.0 0.0 0.0 0.0 0.0 0.0 0.0 0.0 0.0 0.0 4.3 8.6 7.1 2.9 0.0 0.4 0.0 0.0 0.0 0.0 0.5 1.4 0.0 0.0 0.0 2.2 1.4 0.0 0.0 0.0 0.0 0.0 0.0 0.0 0.0 0.0 0.0 0.0 0.0 0.0 0.0 0.0 0.0
0.0 0.0 0.0 0.0 0.0 0.0 0.0 0.0 0.0 0.0 0.0 7.3 6.7 6.7 5.1 0.0 0.0 0.0 0.2 0.0 4.5 0.0 1.6 0.0 0.4 1.2 2.8 0.0 0.1 0.1 0.0 0.1 0.0 0.0 0.0 0.0 0.0 0.0 0.0 0.0 0.0 0.0 0.0 0.0
0.0 0.0 0.0 0.9 0.0 0.0 0.0 0.0 0.7 4.5 3.5 3.8 5.1 4.8 5.9 3.0 4.7 1.7 1.7 1.9 3.0 3.7 0.0 0.0 1.2 0.0 0.0 0.0 0.0 0.1 0.1 0.0 0.1 0.0 3.0 1.6 1.0 0.0 0.0 0.0 0.0 0.0 0.0 0.0
0.0 0.0 0.0 0.0 0.0 0.0 0.0 5.6 6.7 3.8 2.4 2.3 3.3 4.5 3.7 0.0 5.0 3.5 0.3 5.7 2.5 4.1 4.9 1.1 2.2 1.6 1.2 0.0 0.1 0.0 0.0 0.1 0.0 0.0 0.0 0.5 2.1 2.0 0.6 0.4 0.2 0.0 0.0 0.0
0.0 0.0 0.0 0.0 0.8 3.8 4.9 5.7 3.8 1.3 1.0 1.6 2.9 1.5 1.0 1.0 0.0 2.1 1.9 3.7 3.3 3.7 5.2 3.8 2.7 1.0 0.2 1.1 1.0 0.7 0.1 0.0 0.1 0.0 0.0 0.3 0.0 1.0 1.3 0.9 1.2 1.4 1.6 1.6
0.0 0.0 0.0 0.4 1.0 2.1 3.0 2.9 2.5 0.5 0.7 0.9 0.9 1.1 0.0 0.0 0.1 0.6 1.6 1.6 0.7 1.2 3.7 3.9 1.7 0.3 0.2 0.0 0.2 0.5 2.2 2.7 1.5 1.0 0.8 0.8 0.8 0.5 0.9 0.8 0.5 0.7 0.4 0.7
0.0 0.0 0.0 0.5 0.8 1.2 1.2 1.1 1.1 0.2 0.1 0.0 0.0 0.6 1.3 0.2 1.2 1.2 1.5 0.1 0.6 2.4 1.6 1.5 0.2 0.2 0.0 0.0 0.0 0.0 0.0 1.1 1.8 2.8 2.3 1.8 2.1 1.3 1.5 0.9 0.3 0.0 0.0 0.0
0.0 0.0 0.0 0.0 0.0 0.2 0.1 0.0 0.2 0.0 0.0 0.1 0.0 0.0 0.1 1.0 1.3 0.3 1.0 1.0 2.7 3.2 2.0 1.4 0.7 0.2 0.0 0.1 0.1 0.0 0.0 0.0 0.0 0.3 0.7 2.1 1.9 2.2 1.4 0.7 0.6 0.1 0.0 0.1
0.0 0.0 0.0 0.0 0.0 0.0 0.0 0.0 0.0 0.0 0.0 0.3 0.4 0.6 1.0 0.5 1.7 1.0 0.3 1.1 2.0 2.5 1.3 0.0 0.0 0.0 0.0 0.1 0.0 0.1 0.0 0.0 0.0 0.0 0.0 0.5 0.5 1.1 1.0 0.2 0.5 0.4 0.0 0.6
0.0 0.0 0.0 0.0 0.0 0.0 0.0 0.0 0.0 0.0 0.2 1.6 2.1 2.5 0.1 0.4 0.8 0.3 0.1 0.2 0.3 0.3 0.0 0.0 0.0 0.0 0.0 0.4 0.0 0.0 0.1 0.0 0.0 0.2 0.2 0.8 0.4 1.4 1.8 1.1 0.4 0.5 0.7 0.8

GFSNW_prec_snow_081.txt.gz
Snowfall_Accumulation
0.0 0.0 0.0 0.0 0.0 0.0 0.0 0.0 9.9 0.0 0.0 4.1 6.4 7.9 1.7 0.0 0.0 0.0 0.0 0.0 0.0 0.0 0.0 0.0 0.0 0.0 0.0 0.0 0.0 0.0 0.0 0.1 0.4 1.0 0.0 0.0 0.0 0.0 0.0 2.1 0.4 1.2 0.4 0.0
0.0 0.0 0.0 0.0 0.0 0.0 0.0 0.0 1.7 0.0 0.0 5.4 3.4 0.0 0.0 0.0 0.0 0.0 0.0 0.0 0.0 0.0 0.0 0.0 0.0 0.0 0.0 0.0 0.0 0.0 0.0 0.3 0.7 1.3 0.0 0.0 0.3 0.1 0.1 1.7 2.5 2.2 0.8 0.0
0.0 0.0 0.0 0.0 0.0 0.0 0.0 0.0 8.4 0.0 0.0 0.0 0.0 0.0 0.0 0.0 0.0 0.0 0.0 0.0 0.0 0.0 0.0 0.0 0.0 0.0 0.0 0.0 0.0 0.0 0.0 0.0 0.0 0.1 0.6 1.2 1.8 0.0 0.6 3.7 5.0 0.0 0.2 0.0
0.0 0.0 0.0 0.0 0.0 0.0 0.0 0.0 3.9 0.0 3.1 0.0 0.0 0.0 0.0 0.0 0.0 0.0 0.0 0.0 0.0 0.0 0.0 0.0 0.0 0.0 0.0 0.0 0.0 0.0 0.0 0.0 0.0 0.0 0.6 1.9 2.0 0.7 0.4 3.0 0.5 1.9 0.0 0.0
0.0 0.0 0.0 0.0 0.0 0.0 0.0 0.0 0.0 0.0 0.0 0.0 0.0 0.0 0.0 0.0 0.0 0.0 0.0 0.0 0.0 0.0 0.0 0.0 0.0 0.0 0.0 0.0 0.0 0.0 0.0 0.0 0.1 0.6 0.0 0.9 1.6 0.4 0.4 0.2 0.0 0.2 0.0 0.0
0.0 0.0 0.0 0.0 0.0 0.0 0.0 0.0 0.0 0.0 0.0 0.0 0.0 0.0 0.0 0.0 0.0 0.0 0.0 0.0 0.0 0.0 0.0 0.0 0.0 0.0 0.0 0.0 0.0 0.0 0.0 0.0 1.5 0.6 0.0 0.7 0.6 0.2 0.1 0.0 0.0 0.0 0.1 0.0
0.0 0.0 0.0 0.0 0.0 0.0 0.0 0.0 0.0 0.0 0.0 0.0 0.0 0.0 0.0 0.0 0.0 0.0 0.0 0.0 0.0 0.0 0.0 0.0 0.0 0.0 0.0 0.0 0.0 0.0 0.0 0.6 1.9 0.8 0.6 2.4 0.0 0.0 0.0 0.0 0.0 0.0 0.0 0.0
0.0 0.0 0.0 0.0 0.0 0.0 0.0 0.0 0.0 0.0 0.0 0.0 0.0 0.0 0.0 0.0 0.0 0.0 0.0 0.0 0.0 0.0 0.0 0.0 0.0 0.0 0.0 0.0 0.0 0.0 0.0 0.0 1.8 1.6 1.4 0.0 0.0 0.0 0.0 0.0 0.0 0.0 0.0 0.0
0.0 0.0 0.0 0.0 0.0 0.0 0.0 0.0 0.0 0.0 0.0 0.0 0.0 0.0 0.0 0.0 0.0 0.0 0.0 0.0 0.0 0.0 0.0 0.0 0.8 0.3 0.1 0.0 0.0 0.0 0.0 0.0 1.2 0.9 0.8 0.1 0.0 0.0 0.0 0.0 0.0 0.0 0.0 0.0
0.0 0.0 0.0 0.0 0.0 0.0 0.0 0.0 0.0 0.0 0.0 0.0 0.0 0.0 0.0 0.0 0.0 0.0 0.0 0.0 0.0 0.0 0.0 1.1 0.6 0.0 0.0 0.0 0.0 0.2 0.3 0.3 1.4 1.0 1.2 0.0 0.0 0.0 0.0 0.0 0.0 0.0 0.0 0.0
0.0 0.0 0.0 0.0 0.0 0.0 0.0 0.0 0.0 0.0 0.0 0.0 0.0 0.0 0.0 0.0 0.0 0.0 0.0 0.0 0.0 0.0 0.7 0.0 0.0 0.1 0.0 0.0 0.0 0.0 0.0 0.2 0.2 0.6 0.5 0.0 0.0 0.0 0.0 0.0 0.0 0.0 0.0 0.0
0.0 0.0 0.0 0.0 0.0 0.0 0.0 0.0 0.0 0.0 0.0 0.0 0.0 0.0 0.0 0.0 0.0 0.0 0.0 0.0 0.0 0.0 0.0 0.0 0.0 0.1 0.0 0.0 0.0 0.0 0.0 0.0 0.0 0.0 0.0 0.0 0.0 0.0 0.0 0.0 0.0 0.0 0.0 0.0
0.0 0.0 0.0 0.0 0.0 0.0 0.0 0.0 0.0 0.0 0.1 0.0 0.0 0.0 0.0 0.0 0.0 0.0 0.0 0.0 0.0 0.0 0.0 0.0 0.0 0.0 0.0 0.1 0.0 0.0 0.0 0.0 0.0 0.0 0.0 0.0 0.0 0.0 0.0 0.0 0.0 0.0 0.0 0.0
0.0 0.0 0.0 0.0 0.0 0.0 0.0 0.0 0.0 0.0 0.1 0.8 0.1 0.0 0.0 0.0 0.0 0.0 0.0 0.0 0.0 0.0 0.0 0.0 0.0 0.0 0.0 0.0 0.0 0.0 0.0 0.0 0.0 0.0 0.0 0.0 0.0 0.0 0.0 0.0 0.0 0.0 0.0 0.0
0.0 0.0 0.0 0.0 0.0 0.0 0.0 0.0 0.0 0.0 0.2 1.9 0.3 0.0 0.0 0.0 0.0 0.0 0.0 0.0 0.0 0.5 0.3 1.1 0.7 0.0 0.0 0.0 0.0 0.0 0.0 0.0 0.0 0.0 0.0 0.0 0.0 0.0 0.0 0.0 0.0 0.0 0.0 0.0
0.0 0.0 0.0 0.0 0.0 0.0 0.0 0.0 0.0 0.0 0.0 3.0 1.6 0.0 0.0 0.0 0.0 0.0 0.0 0.0 0.0 0.1 1.1 1.6 0.0 0.0 0.0 0.6 0.0 0.0 0.0 0.0 0.0 0.0 0.0 0.0 0.0 0.0 0.0 0.0 0.0 0.0 0.0 0.0
0.0 0.0 0.0 0.0 0.0 0.0 0.2 0.0 0.0 0.0 0.0 1.5 3.8 4.0 0.0 0.0 0.0 0.0 0.0 0.0 0.0 2.0 3.2 1.5 0.0 0.0 1.6 1.3 0.3 0.0 0.0 0.0 0.0 0.0 0.0 0.0 0.0 0.0 0.0 0.0 0.0 0.0 0.0 0.0
0.0 0.0 0.0 0.0 0.0 0.0 0.0 0.0 0.0 0.0 0.0 4.3 8.6 7.1 2.9 0.0 0.4 0.0 0.0 0.0 0.0 0.5 1.4 0.0 0.0 0.0 2.2 1.4 0.0 0.0 0.0 0.0 0.0 0.0 0.0 0.0 0.0 0.0 0.0 0.0 0.0 0.0 0.0 0.0
0.0 0.0 0.0 0.0 0.0 0.0 0.0 0.0 0.0 0.0 0.0 7.3 6.7 6.7 5.1 0.0 0.0 0.0 0.2 0.0 4.5 0.0 1.6 0.0 0.4 1.2 2.8 0.0 0.1 0.1 0.0 0.1 0.0 0.0 0.0 0.0 0.0 0.0 0.0 0.0 0.0 0.0 0.0 0.0
0.0 0.0 0.0 0.9 0.0 0.0 0.0 0.0 0.7 4.5 3.5 3.8 5.1 4.8 5.9 3.0 4.7 1.7 1.7 1.9 3.0 3.7 0.0 0.0 1.2 0.0 0.0 0.0 0.0 0.1 0.1 0.0 0.1 0.0 3.0 1.6 1.0 0.0 0.0 0.0 0.0 0.0 0.0 0.0
0.0 0.0 0.0 0.0 0.0 0.0 0.0 5.6 6.7 3.8 2.4 2.3 3.3 4.5 3.7 0.0 5.0 3.5 0.3 5.7 2.5 4.1 4.9 1.1 2.2 1.6 1.2 0.0 0.1 0.0 0.0 0.1 0.0 0.0 0.0 0.5 2.1 2.0 0.6 0.4 0.2 0.0 0.0 0.0
0.0 0.0 0.0 0.0 0.8 3.8 4.9 5.7 3.8 1.3 1.0 1.6 2.9 1.5 1.0 1.0 0.0 2.1 1.9 3.7 3.3 3.7 5.2 3.8 2.7 1.0 0.2 1.1 1.0 0.7 0.1 0.0 0.1 0.0 0.0 0.3 0.0 1.0 1.3 0.9 1.2 1.4 1.6 1.6
0.0 0.0 0.0 0.4 1.0 2.1 3.0 2.9 2.5 0.5 0.7 0.9 0.9 1.1 0.0 0.0 0.1 0.6 1.6 1.6 0.7 1.2 3.7 3.9 1.7 0.3 0.2 0.0 0.2 0.5 2.2 2.7 1.5 1.0 0.8 0.8 0.8 0.5 0.9 0.8 0.5 0.7 0.4 0.7
0.0 0.0 0.0 0.5 0.8 1.2 1.2 1.1 1.1 0.2 0.1 0.0 0.0 0.6 1.3 0.2 1.2 1.2 1.5 0.1 0.6 2.4 1.6 1.5 0.2 0.2 0.0 0.0 0.0 0.0 0.0 1.1 1.8 2.8 2.3 1.8 2.1 1.3 1.5 0.9 0.3 0.0 0.0 0.0
0.0 0.0 0.0 0.0 0.0 0.2 0.1 0.0 0.2 0.0 0.0 0.1 0.0 0.0 0.1 1.0 1.3 0.3 1.0 1.0 2.7 3.2 2.0 1.4 0.7 0.2 0.0 0.1 0.1 0.0 0.0 0.0 0.0 0.3 0.7 2.1 1.9 2.2 1.4 0.7 0.6 0.1 0.0 0.1
0.0 0.0 0.0 0.0 0.0 0.0 0.0 0.0 0.0 0.0 0.0 0.3 0.4 0.6 1.0 0.5 1.7 1.0 0.3 1.1 2.0 2.5 1.3 0.0 0.0 0.0 0.0 0.1 0.0 0.1 0.0 0.0 0.0 0.0 0.0 0.5 0.5 1.1 1.0 0.2 0.5 0.4 0.0 0.6
0.0 0.0 0.0 0.0 0.0 0.0 0.0 0.0 0.0 0.0 0.2 1.6 2.1 2.5 0.1 0.4 0.8 0.3 0.1 0.2 0.3 0.3 0.0 0.0 0.0 0.0 0.0 0.4 0.0 0.0 0.1 0.0 0.0 0.2 0.2 0.8 0.4 1.4 1.8 1.1 0.4 0.5 0.7 0.8

GFSNW_prec_snow_084.txt.gz
Snowfall_Accumulation
0.0 0.0 0.0 0.0 0.0 0.0 0.0 0.0 11.1 0.0 0.0 4.1 7.4 9.4 1.7 0.0 0.0 0.0 0.0 0.0 0.0 0.0 0.0 0.0 0.0 0.0 0.0 0.0 0.0 0.0 0.0 0.1 0.4 1.0 0.0 0.0 0.0 0.0 0.0 2.1 0.4 1.2 0.4 0.0
0.0 0.0 0.0 0.0 0.0 0.0 0.0 0.0 1.7 0.0 0.0 5.9 4.8 0.0 0.0 0.0 0.0 0.0 0.0 0.0 0.0 0.0 0.0 0.0 0.0 0.0 0.0 0.0 0.0 0.0 0.0 0.3 0.7 1.3 0.0 0.0 0.3 0.1 0.1 1.7 2.5 2.2 0.8 0.0
0.0 0.0 0.0 0.0 0.0 0.0 0.0 0.0 8.4 0.0 0.0 0.0 0.0 0.0 0.0 0.0 0.0 0.0 0.0 0.0 0.0 0.0 0.0 0.0 0.0 0.0 0.0 0.0 0.0 0.0 0.0 0.0 0.0 0.1 0.6 1.2 1.8 0.0 0.6 3.7 5.0 0.0 0.2 0.0
0.0 0.0 0.0 0.0 0.0 0.0 0.0 0.0 3.9 0.0 3.1 0.0 0.0 0.0 0.0 0.0 0.0 0.0 0.0 0.0 0.0 0.0 0.0 0.0 0.0 0.0 0.0 0.0 0.0 0.0 0.0 0.0 0.0 0.0 0.6 1.9 2.0 0.7 0.4 3.0 0.5 1.9 0.0 0.0
0.0 0.0 0.0 0.0 0.0 0.0 0.0 0.0 0.0 0.0 0.0 0.0 0.0 0.0 0.0 0.0 0.0 0.0 0.0 0.0 0.0 0.0 0.0 0.0 0.0 0.0 0.0 0.0 0.0 0.0 0.0 0.0 0.1 0.6 0.0 0.9 1.6 0.4 0.4 0.2 0.0 0.2 0.0 0.0
0.0 0.0 0.0 0.0 0.0 0.0 0.0 0.0 0.0 0.0 0.0 0.0 0.0 0.0 0.0 0.0 0.0 0.0 0.0 0.0 0.0 0.0 0.0 0.0 0.0 0.0 0.0 0.0 0.0 0.0 0.0 0.0 1.5 0.6 0.0 0.7 0.6 0.2 0.1 0.0 0.0 0.0 0.1 0.0
0.0 0.0 0.0 0.0 0.0 0.0 0.0 0.0 0.0 0.0 0.0 0.0 0.0 0.0 0.0 0.0 0.0 0.0 0.0 0.0 0.0 0.0 0.0 0.0 0.0 0.0 0.0 0.0 0.0 0.0 0.0 0.6 1.9 0.8 0.6 2.4 0.0 0.0 0.0 0.0 0.0 0.0 0.0 0.0
0.0 0.0 0.0 0.0 0.0 0.0 0.0 0.0 0.0 0.0 0.0 0.0 0.0 0.0 0.0 0.0 0.0 0.0 0.0 0.0 0.0 0.0 0.0 0.0 0.0 0.0 0.0 0.0 0.0 0.0 0.0 0.0 1.8 1.6 1.4 0.0 0.0 0.0 0.0 0.0 0.0 0.0 0.0 0.0
0.0 0.0 0.0 0.0 0.0 0.0 0.0 0.0 0.0 0.0 0.0 0.0 0.0 0.0 0.0 0.0 0.0 0.0 0.0 0.0 0.0 0.0 0.0 0.0 0.8 0.3 0.1 0.0 0.0 0.0 0.0 0.0 1.2 0.9 0.8 0.1 0.0 0.0 0.0 0.0 0.0 0.0 0.0 0.0
0.0 0.0 0.0 0.0 0.0 0.0 0.0 0.0 0.0 0.0 0.0 0.0 0.0 0.0 0.0 0.0 0.0 0.0 0.0 0.0 0.0 0.0 0.0 1.1 0.6 0.0 0.0 0.0 0.0 0.2 0.3 0.3 1.4 1.0 1.2 0.0 0.0 0.0 0.0 0.0 0.0 0.0 0.0 0.0
0.0 0.0 0.0 0.0 0.0 0.0 0.0 0.0 0.0 0.0 0.0 0.0 0.0 0.0 0.0 0.0 0.0 0.0 0.0 0.0 0.0 0.0 0.7 0.0 0.0 0.1 0.0 0.0 0.0 0.0 0.0 0.2 0.2 0.6 0.5 0.0 0.0 0.0 0.0 0.0 0.0 0.0 0.0 0.0
0.0 0.0 0.0 0.0 0.0 0.0 0.0 0.0 0.0 0.0 0.0 0.0 0.0 0.0 0.0 0.0 0.0 0.0 0.0 0.0 0.0 0.0 0.0 0.0 0.0 0.1 0.0 0.0 0.0 0.0 0.0 0.0 0.0 0.0 0.0 0.0 0.0 0.0 0.0 0.0 0.0 0.0 0.0 0.0
0.0 0.0 0.0 0.0 0.0 0.0 0.0 0.0 0.0 0.0 0.1 0.0 0.0 0.0 0.0 0.0 0.0 0.0 0.0 0.0 0.0 0.0 0.0 0.0 0.0 0.0 0.0 0.1 0.0 0.0 0.0 0.0 0.0 0.0 0.0 0.0 0.0 0.0 0.0 0.0 0.0 0.0 0.0 0.0
0.0 0.0 0.0 0.0 0.0 0.0 0.0 0.0 0.0 0.0 0.1 0.8 0.1 0.0 0.0 0.0 0.0 0.0 0.0 0.0 0.0 0.0 0.0 0.0 0.0 0.0 0.0 0.0 0.0 0.0 0.0 0.0 0.0 0.0 0.0 0.0 0.0 0.0 0.0 0.0 0.0 0.0 0.0 0.0
0.0 0.0 0.0 0.0 0.0 0.0 0.0 0.0 0.0 0.0 0.2 1.9 0.3 0.0 0.0 0.0 0.0 0.0 0.0 0.0 0.0 0.5 0.3 1.1 0.7 0.0 0.0 0.0 0.0 0.0 0.0 0.0 0.0 0.0 0.0 0.0 0.0 0.0 0.0 0.0 0.0 0.0 0.0 0.0
0.0 0.0 0.0 0.0 0.0 0.0 0.0 0.0 0.0 0.0 0.0 3.0 1.6 0.0 0.0 0.0 0.0 0.0 0.0 0.0 0.0 0.1 1.1 1.6 0.0 0.0 0.0 0.6 0.0 0.0 0.0 0.0 0.0 0.0 0.0 0.0 0.0 0.0 0.0 0.0 0.0 0.0 0.0 0.0
0.0 0.0 0.0 0.0 0.0 0.0 0.2 0.0 0.0 0.0 0.0 1.5 3.8 4.0 0.0 0.0 0.0 0.0 0.0 0.0 0.0 2.0 3.2 1.5 0.0 0.0 1.6 1.3 0.3 0.0 0.0 0.0 0.0 0.0 0.0 0.0 0.0 0.0 0.0 0.0 0.0 0.0 0.0 0.0
0.0 0.0 0.0 0.0 0.0 0.0 0.0 0.0 0.0 0.0 0.0 4.3 8.6 7.1 2.9 0.0 0.4 0.0 0.0 0.0 0.0 0.5 1.4 0.0 0.0 0.0 2.2 1.4 0.0 0.0 0.0 0.0 0.0 0.0 0.0 0.0 0.0 0.0 0.0 0.0 0.0 0.0 0.0 0.0
0.0 0.0 0.0 0.0 0.0 0.0 0.0 0.0 0.0 0.0 0.0 7.3 6.7 6.7 5.1 0.0 0.0 0.0 0.2 0.0 4.5 0.0 1.6 0.0 0.4 1.2 2.8 0.0 0.1 0.1 0.0 0.1 0.0 0.0 0.0 0.0 0.0 0.0 0.0 0.0 0.0 0.0 0.0 0.0
0.0 0.0 0.0 0.9 0.0 0.0 0.0 0.0 0.7 4.5 3.5 3.8 5.1 4.8 5.9 3.0 4.7 1.7 1.7 1.9 3.0 3.7 0.0 0.0 1.2 0.0 0.0 0.0 0.0 0.1 0.1 0.0 0.1 0.0 3.0 1.6 1.0 0.0 0.0 0.0 0.0 0.0 0.0 0.0
0.0 0.0 0.0 0.0 0.0 0.0 0.0 5.6 6.7 3.8 2.4 2.3 3.3 4.5 3.7 0.0 5.0 3.5 0.3 5.7 2.5 4.1 4.9 1.1 2.2 1.6 1.2 0.0 0.1 0.0 0.0 0.1 0.0 0.0 0.0 0.5 2.1 2.0 0.6 0.4 0.2 0.0 0.0 0.0
0.0 0.0 0.0 0.0 0.8 3.8 4.9 5.7 3.8 1.3 1.0 1.6 2.9 1.5 1.0 1.0 0.0 2.1 1.9 3.7 3.3 3.7 5.2 3.8 2.7 1.0 0.2 1.1 1.0 0.7 0.1 0.0 0.1 0.0 0.0 0.3 0.0 1.0 1.3 0.9 1.2 1.4 1.6 1.6
0.0 0.0 0.0 0.4 1.0 2.1 3.0 2.9 2.5 0.5 0.7 0.9 0.9 1.1 0.0 0.0 0.1 0.6 1.6 1.6 0.7 1.2 3.7 3.9 1.7 0.3 0.2 0.0 0.2 0.5 2.2 2.7 1.5 1.0 0.8 0.8 0.8 0.5 0.9 0.8 0.5 0.7 0.4 0.7
0.0 0.0 0.0 0.5 0.8 1.2 1.2 1.1 1.1 0.2 0.1 0.0 0.0 0.6 1.3 0.2 1.2 1.2 1.5 0.1 0.6 2.4 1.6 1.5 0.2 0.2 0.0 0.0 0.0 0.0 0.0 1.1 1.8 2.8 2.3 1.8 2.1 1.3 1.5 0.9 0.3 0.0 0.0 0.0
0.0 0.0 0.0 0.0 0.0 0.2 0.1 0.0 0.2 0.0 0.0 0.1 0.0 0.0 0.1 1.0 1.3 0.3 1.0 1.0 2.7 3.2 2.0 1.4 0.7 0.2 0.0 0.1 0.1 0.0 0.0 0.0 0.0 0.3 0.7 2.1 1.9 2.2 1.4 0.7 0.6 0.1 0.0 0.1
0.0 0.0 0.0 0.0 0.0 0.0 0.0 0.0 0.0 0.0 0.0 0.3 0.4 0.6 1.0 0.5 1.7 1.0 0.3 1.1 2.0 2.5 1.3 0.0 0.0 0.0 0.0 0.1 0.0 0.1 0.0 0.0 0.0 0.0 0.0 0.5 0.5 1.1 1.0 0.2 0.5 0.4 0.0 0.6
0.0 0.0 0.0 0.0 0.0 0.0 0.0 0.0 0.0 0.0 0.2 1.6 2.1 2.5 0.1 0.4 0.8 0.3 0.1 0.2 0.3 0.3 0.0 0.0 0.0 0.0 0.0 0.4 0.0 0.0 0.1 0.0 0.0 0.2 0.2 0.8 0.4 1.4 1.8 1.1 0.4 0.5 0.7 0.8

GFSNW_prec_snow_087.txt.gz
Snowfall_Accumulation
0.0 0.0 0.0 0.0 0.0 0.0 0.0 0.0 11.3 0.0 0.0 4.1 7.4 10.0 2.3 0.0 0.0 0.0 0.0 0.0 0.0 0.0 0.0 0.0 0.0 0.0 0.0 0.0 0.0 0.0 0.0 0.1 0.4 1.0 0.0 0.0 0.0 0.0 0.0 2.1 0.4 1.2 0.4 0.0
0.0 0.0 0.0 0.0 0.0 0.0 0.0 0.0 1.7 0.0 0.0 5.9 5.3 0.0 0.0 0.0 0.0 0.0 0.0 0.0 0.0 0.0 0.0 0.0 0.0 0.0 0.0 0.0 0.0 0.0 0.0 0.3 0.7 1.3 0.0 0.0 0.3 0.1 0.1 1.7 2.5 2.2 0.8 0.0
0.0 0.0 0.0 0.0 0.0 0.0 0.0 0.0 8.4 0.0 0.0 0.0 0.0 0.0 0.0 0.0 0.0 0.0 0.0 0.0 0.0 0.0 0.0 0.0 0.0 0.0 0.0 0.0 0.0 0.0 0.0 0.0 0.0 0.1 0.6 1.2 1.8 0.0 0.6 3.7 5.0 0.0 0.2 0.0
0.0 0.0 0.0 0.0 0.0 0.0 0.0 0.0 3.9 0.0 3.1 0.0 0.0 0.0 0.0 0.0 0.0 0.0 0.0 0.0 0.0 0.0 0.0 0.0 0.0 0.0 0.0 0.0 0.0 0.0 0.0 0.0 0.0 0.0 0.6 1.9 2.0 0.7 0.4 3.0 0.5 1.9 0.0 0.0
0.0 0.0 0.0 0.0 0.0 0.0 0.0 0.0 0.0 0.0 0.0 0.0 0.0 0.0 0.0 0.0 0.0 0.0 0.0 0.0 0.0 0.0 0.0 0.0 0.0 0.0 0.0 0.0 0.0 0.0 0.0 0.0 0.1 0.6 0.0 0.9 1.6 0.4 0.4 0.2 0.0 0.2 0.0 0.0
0.0 0.0 0.0 0.0 0.0 0.0 0.0 0.0 0.0 0.0 0.0 0.0 0.0 0.0 0.0 0.0 0.0 0.0 0.0 0.0 0.0 0.0 0.0 0.0 0.0 0.0 0.0 0.0 0.0 0.0 0.0 0.0 1.5 0.6 0.0 0.7 0.6 0.2 0.1 0.0 0.0 0.0 0.1 0.0
0.0 0.0 0.0 0.0 0.0 0.0 0.0 0.0 0.0 0.0 0.0 0.0 0.0 0.0 0.0 0.0 0.0 0.0 0.0 0.0 0.0 0.0 0.0 0.0 0.0 0.0 0.0 0.0 0.0 0.0 0.0 0.6 1.9 0.8 0.6 2.4 0.0 0.0 0.0 0.0 0.0 0.0 0.0 0.0
0.0 0.0 0.0 0.0 0.0 0.0 0.0 0.0 0.0 0.0 0.0 0.0 0.0 0.0 0.0 0.0 0.0 0.0 0.0 0.0 0.0 0.0 0.0 0.0 0.0 0.0 0.0 0.0 0.0 0.0 0.0 0.0 1.8 1.6 1.4 0.0 0.0 0.0 0.0 0.0 0.0 0.0 0.0 0.0
0.0 0.0 0.0 0.0 0.0 0.0 0.0 0.0 0.0 0.0 0.0 0.0 0.0 0.0 0.0 0.0 0.0 0.0 0.0 0.0 0.0 0.0 0.0 0.0 0.8 0.3 0.1 0.0 0.0 0.0 0.0 0.0 1.2 0.9 0.8 0.1 0.0 0.0 0.0 0.0 0.0 0.0 0.0 0.0
0.0 0.0 0.0 0.0 0.0 0.0 0.0 0.0 0.0 0.0 0.0 0.0 0.0 0.0 0.0 0.0 0.0 0.0 0.0 0.0 0.0 0.0 0.0 1.1 0.6 0.0 0.0 0.0 0.0 0.2 0.3 0.3 1.4 1.0 1.2 0.0 0.0 0.0 0.0 0.0 0.0 0.0 0.0 0.0
0.0 0.0 0.0 0.0 0.0 0.0 0.0 0.0 0.0 0.0 0.0 0.0 0.0 0.0 0.0 0.0 0.0 0.0 0.0 0.0 0.0 0.0 0.7 0.0 0.0 0.1 0.0 0.0 0.0 0.0 0.0 0.2 0.2 0.6 0.5 0.0 0.0 0.0 0.0 0.0 0.0 0.0 0.0 0.0
0.0 0.0 0.0 0.0 0.0 0.0 0.0 0.0 0.0 0.0 0.0 0.0 0.0 0.0 0.0 0.0 0.0 0.0 0.0 0.0 0.0 0.0 0.0 0.0 0.0 0.1 0.0 0.0 0.0 0.0 0.0 0.0 0.0 0.0 0.0 0.0 0.0 0.0 0.0 0.0 0.0 0.0 0.0 0.0
0.0 0.0 0.0 0.0 0.0 0.0 0.0 0.0 0.0 0.0 0.1 0.0 0.0 0.0 0.0 0.0 0.0 0.0 0.0 0.0 0.0 0.0 0.0 0.0 0.0 0.0 0.0 0.1 0.0 0.0 0.0 0.0 0.0 0.0 0.0 0.0 0.0 0.0 0.0 0.0 0.0 0.0 0.0 0.0
0.0 0.0 0.0 0.0 0.0 0.0 0.0 0.0 0.0 0.0 0.1 0.8 0.1 0.0 0.0 0.0 0.0 0.0 0.0 0.0 0.0 0.0 0.0 0.0 0.0 0.0 0.0 0.0 0.0 0.0 0.0 0.0 0.0 0.0 0.0 0.0 0.0 0.0 0.0 0.0 0.0 0.0 0.0 0.0
0.0 0.0 0.0 0.0 0.0 0.0 0.0 0.0 0.0 0.0 0.2 1.9 0.3 0.0 0.0 0.0 0.0 0.0 0.0 0.0 0.0 0.5 0.3 1.1 0.7 0.0 0.0 0.0 0.0 0.0 0.0 0.0 0.0 0.0 0.0 0.0 0.0 0.0 0.0 0.0 0.0 0.0 0.0 0.0
0.0 0.0 0.0 0.0 0.0 0.0 0.0 0.0 0.0 0.0 0.0 3.0 1.6 0.0 0.0 0.0 0.0 0.0 0.0 0.0 0.0 0.1 1.1 1.6 0.0 0.0 0.0 0.6 0.0 0.0 0.0 0.0 0.0 0.0 0.0 0.0 0.0 0.0 0.0 0.0 0.0 0.0 0.0 0.0
0.0 0.0 0.0 0.0 0.0 0.0 0.2 0.0 0.0 0.0 0.0 1.5 3.8 4.0 0.0 0.0 0.0 0.0 0.0 0.0 0.0 2.0 3.2 1.5 0.0 0.0 1.6 1.3 0.3 0.0 0.0 0.0 0.0 0.0 0.0 0.0 0.0 0.0 0.0 0.0 0.0 0.0 0.0 0.0
0.0 0.0 0.0 0.0 0.0 0.0 0.0 0.0 0.0 0.0 0.0 4.3 8.6 7.1 2.9 0.0 0.4 0.0 0.0 0.0 0.0 0.5 1.4 0.0 0.0 0.0 2.2 1.4 0.0 0.0 0.0 0.0 0.0 0.0 0.0 0.0 0.0 0.0 0.0 0.0 0.0 0.0 0.0 0.0
0.0 0.0 0.0 0.0 0.0 0.0 0.0 0.0 0.0 0.0 0.0 7.3 6.7 6.7 5.1 0.0 0.0 0.0 0.2 0.0 4.5 0.0 1.6 0.0 0.4 1.2 2.8 0.0 0.1 0.1 0.0 0.1 0.0 0.0 0.0 0.0 0.0 0.0 0.0 0.0 0.0 0.0 0.0 0.0
0.0 0.0 0.0 0.9 0.0 0.0 0.0 0.0 0.7 4.5 3.5 3.8 5.1 4.8 5.9 3.0 4.7 1.7 1.7 1.9 3.0 3.7 0.0 0.0 1.2 0.0 0.0 0.0 0.0 0.1 0.1 0.0 0.1 0.0 3.0 1.6 1.0 0.0 0.0 0.0 0.0 0.0 0.0 0.0
0.0 0.0 0.0 0.0 0.0 0.0 0.0 5.6 6.7 3.8 2.4 2.3 3.3 4.5 3.7 0.0 5.0 3.5 0.3 5.7 2.5 4.1 4.9 1.1 2.2 1.6 1.2 0.0 0.1 0.0 0.0 0.1 0.0 0.0 0.0 0.5 2.1 2.0 0.6 0.4 0.2 0.0 0.0 0.0
0.0 0.0 0.0 0.0 0.8 3.8 4.9 5.7 3.8 1.3 1.0 1.6 2.9 1.5 1.0 1.0 0.0 2.1 1.9 3.7 3.3 3.7 5.2 3.8 2.7 1.0 0.2 1.1 1.0 0.7 0.1 0.0 0.1 0.0 0.0 0.3 0.0 1.0 1.3 0.9 1.2 1.4 1.6 1.6
0.0 0.0 0.0 0.4 1.0 2.1 3.0 2.9 2.5 0.5 0.7 0.9 0.9 1.1 0.0 0.0 0.1 0.6 1.6 1.6 0.7 1.2 3.7 3.9 1.7 0.3 0.2 0.0 0.2 0.5 2.2 2.7 1.5 1.0 0.8 0.8 0.8 0.5 0.9 0.8 0.5 0.7 0.4 0.7
0.0 0.0 0.0 0.5 0.8 1.2 1.2 1.1 1.1 0.2 0.1 0.0 0.0 0.6 1.3 0.2 1.2 1.2 1.5 0.1 0.6 2.4 1.6 1.5 0.2 0.2 0.0 0.0 0.0 0.0 0.0 1.1 1.8 2.8 2.3 1.8 2.1 1.3 1.5 0.9 0.3 0.0 0.0 0.0
0.0 0.0 0.0 0.0 0.0 0.2 0.1 0.0 0.2 0.0 0.0 0.1 0.0 0.0 0.1 1.0 1.3 0.3 1.0 1.0 2.7 3.2 2.0 1.4 0.7 0.2 0.0 0.1 0.1 0.0 0.0 0.0 0.0 0.3 0.7 2.1 1.9 2.2 1.4 0.7 0.6 0.1 0.0 0.1
0.0 0.0 0.0 0.0 0.0 0.0 0.0 0.0 0.0 0.0 0.0 0.3 0.4 0.6 1.0 0.5 1.7 1.0 0.3 1.1 2.0 2.5 1.3 0.0 0.0 0.0 0.0 0.1 0.0 0.1 0.0 0.0 0.0 0.0 0.0 0.5 0.5 1.1 1.0 0.2 0.5 0.4 0.0 0.6
0.0 0.0 0.0 0.0 0.0 0.0 0.0 0.0 0.0 0.0 0.2 1.6 2.1 2.5 0.1 0.4 0.8 0.3 0.1 0.2 0.3 0.3 0.0 0.0 0.0 0.0 0.0 0.4 0.0 0.0 0.1 0.0 0.0 0.2 0.2 0.8 0.4 1.4 1.8 1.1 0.4 0.5 0.7 0.8

GFSNW_prec_snow_090.txt.gz
Snowfall_Accumulation
0.0 0.0 0.0 0.0 0.0 0.0 0.0 0.0 11.3 0.0 0.0 4.1 7.4 10.0 3.3 0.0 0.0 0.0 0.0 0.0 0.0 0.0 0.0 0.0 0.0 0.0 0.0 0.0 0.0 0.0 0.0 0.1 0.4 1.0 0.0 0.0 0.0 0.0 0.0 2.1 0.4 1.2 0.4 0.0
0.0 0.0 0.0 0.0 0.0 0.0 0.0 0.0 1.7 0.0 0.0 5.9 5.3 0.0 0.0 0.0 0.0 0.0 0.0 0.0 0.0 0.0 0.0 0.0 0.0 0.0 0.0 0.0 0.0 0.0 0.0 0.3 0.7 1.3 0.0 0.0 0.3 0.1 0.1 1.7 2.5 2.2 0.8 0.0
0.0 0.0 0.0 0.0 0.0 0.0 0.0 0.0 8.4 0.0 0.0 0.0 0.0 0.0 0.0 0.0 0.0 0.0 0.0 0.0 0.0 0.0 0.0 0.0 0.0 0.0 0.0 0.0 0.0 0.0 0.0 0.0 0.0 0.1 0.6 1.2 1.8 0.0 0.6 3.7 5.0 0.0 0.2 0.0
0.0 0.0 0.0 0.0 0.0 0.0 0.0 0.0 3.9 0.0 3.1 0.0 0.0 0.0 0.0 0.0 0.0 0.0 0.0 0.0 0.0 0.0 0.0 0.0 0.0 0.0 0.0 0.0 0.0 0.0 0.0 0.0 0.0 0.0 0.6 1.9 2.0 0.7 0.4 3.0 0.5 1.9 0.0 0.0
0.0 0.0 0.0 0.0 0.0 0.0 0.0 0.0 0.0 0.0 0.0 0.0 0.0 0.0 0.0 0.0 0.0 0.0 0.0 0.0 0.0 0.0 0.0 0.0 0.0 0.0 0.0 0.0 0.0 0.0 0.0 0.0 0.1 0.6 0.0 0.9 1.6 0.4 0.4 0.2 0.0 0.2 0.0 0.0
0.0 0.0 0.0 0.0 0.0 0.0 0.0 0.0 0.0 0.0 0.0 0.0 0.0 0.0 0.0 0.0 0.0 0.0 0.0 0.0 0.0 0.0 0.0 0.0 0.0 0.0 0.0 0.0 0.0 0.0 0.0 0.0 1.5 0.6 0.0 0.7 0.6 0.2 0.1 0.0 0.0 0.0 0.1 0.0
0.0 0.0 0.0 0.0 0.0 0.0 0.0 0.0 0.0 0.0 0.0 0.0 0.0 0.0 0.0 0.0 0.0 0.0 0.0 0.0 0.0 0.0 0.0 0.0 0.0 0.0 0.0 0.0 0.0 0.0 0.0 0.6 1.9 0.8 0.6 2.4 0.0 0.0 0.0 0.0 0.0 0.0 0.0 0.0
0.0 0.0 0.0 0.0 0.0 0.0 0.0 0.0 0.0 0.0 0.0 0.0 0.0 0.0 0.0 0.0 0.0 0.0 0.0 0.0 0.0 0.0 0.0 0.0 0.0 0.0 0.0 0.0 0.0 0.0 0.0 0.0 1.8 1.6 1.4 0.0 0.0 0.0 0.0 0.0 0.0 0.0 0.0 0.0
0.0 0.0 0.0 0.0 0.0 0.0 0.0 0.0 0.0 0.0 0.0 0.0 0.0 0.0 0.0 0.0 0.0 0.0 0.0 0.0 0.0 0.0 0.0 0.0 0.8 0.3 0.1 0.0 0.0 0.0 0.0 0.0 1.2 0.9 0.8 0.1 0.0 0.0 0.0 0.0 0.0 0.0 0.0 0.0
0.0 0.0 0.0 0.0 0.0 0.0 0.0 0.0 0.0 0.0 0.0 0.0 0.0 0.0 0.0 0.0 0.0 0.0 0.0 0.0 0.0 0.0 0.0 1.1 0.6 0.0 0.0 0.0 0.0 0.2 0.3 0.3 1.4 1.0 1.2 0.0 0.0 0.0 0.0 0.0 0.0 0.0 0.0 0.0
0.0 0.0 0.0 0.0 0.0 0.0 0.0 0.0 0.0 0.0 0.0 0.0 0.0 0.0 0.0 0.0 0.0 0.0 0.0 0.0 0.0 0.0 0.7 0.0 0.0 0.1 0.0 0.0 0.0 0.0 0.0 0.2 0.2 0.6 0.5 0.0 0.0 0.0 0.0 0.0 0.0 0.0 0.0 0.0
0.0 0.0 0.0 0.0 0.0 0.0 0.0 0.0 0.0 0.0 0.0 0.0 0.0 0.0 0.0 0.0 0.0 0.0 0.0 0.0 0.0 0.0 0.0 0.0 0.0 0.1 0.0 0.0 0.0 0.0 0.0 0.0 0.0 0.0 0.0 0.0 0.0 0.0 0.0 0.0 0.0 0.0 0.0 0.0
0.0 0.0 0.0 0.0 0.0 0.0 0.0 0.0 0.0 0.0 0.1 0.0 0.0 0.0 0.0 0.0 0.0 0.0 0.0 0.0 0.0 0.0 0.0 0.0 0.0 0.0 0.0 0.1 0.0 0.0 0.0 0.0 0.0 0.0 0.0 0.0 0.0 0.0 0.0 0.0 0.0 0.0 0.0 0.0
0.0 0.0 0.0 0.0 0.0 0.0 0.0 0.0 0.0 0.0 0.1 0.8 0.1 0.0 0.0 0.0 0.0 0.0 0.0 0.0 0.0 0.0 0.0 0.0 0.0 0.0 0.0 0.0 0.0 0.0 0.0 0.0 0.0 0.0 0.0 0.0 0.0 0.0 0.0 0.0 0.0 0.0 0.0 0.0
0.0 0.0 0.0 0.0 0.0 0.0 0.0 0.0 0.0 0.0 0.2 1.9 0.3 0.0 0.0 0.0 0.0 0.0 0.0 0.0 0.0 0.5 0.3 1.1 0.7 0.0 0.0 0.0 0.0 0.0 0.0 0.0 0.0 0.0 0.0 0.0 0.0 0.0 0.0 0.0 0.0 0.0 0.0 0.0
0.0 0.0 0.0 0.0 0.0 0.0 0.0 0.0 0.0 0.0 0.0 3.0 1.6 0.0 0.0 0.0 0.0 0.0 0.0 0.0 0.0 0.1 1.1 1.6 0.0 0.0 0.0 0.6 0.0 0.0 0.0 0.0 0.0 0.0 0.0 0.0 0.0 0.0 0.0 0.0 0.0 0.0 0.0 0.0
0.0 0.0 0.0 0.0 0.0 0.0 0.2 0.0 0.0 0.0 0.0 1.5 3.8 4.0 0.0 0.0 0.0 0.0 0.0 0.0 0.0 2.0 3.2 1.5 0.0 0.0 1.6 1.3 0.3 0.0 0.0 0.0 0.0 0.0 0.0 0.0 0.0 0.0 0.0 0.0 0.0 0.0 0.0 0.0
0.0 0.0 0.0 0.0 0.0 0.0 0.0 0.0 0.0 0.0 0.0 4.3 8.6 7.1 2.9 0.0 0.4 0.0 0.0 0.0 0.0 0.5 1.4 0.0 0.0 0.0 2.2 1.4 0.0 0.0 0.0 0.0 0.0 0.0 0.0 0.0 0.0 0.0 0.0 0.0 0.0 0.0 0.0 0.0
0.0 0.0 0.0 0.0 0.0 0.0 0.0 0.0 0.0 0.0 0.0 7.3 6.7 6.7 5.1 0.0 0.0 0.0 0.2 0.0 4.5 0.0 1.6 0.0 0.4 1.2 2.8 0.0 0.1 0.1 0.0 0.1 0.0 0.0 0.0 0.0 0.0 0.0 0.0 0.0 0.0 0.0 0.0 0.0
0.0 0.0 0.0 0.9 0.0 0.0 0.0 0.0 0.7 4.5 3.5 3.8 5.1 4.8 5.9 3.0 4.7 1.7 1.7 1.9 3.0 3.7 0.0 0.0 1.2 0.0 0.0 0.0 0.0 0.1 0.1 0.0 0.1 0.0 3.0 1.6 1.0 0.0 0.0 0.0 0.0 0.0 0.0 0.0
0.0 0.0 0.0 0.0 0.0 0.0 0.0 5.6 6.7 3.8 2.4 2.3 3.3 4.5 3.7 0.0 5.0 3.5 0.3 5.7 2.5 4.1 4.9 1.1 2.2 1.6 1.2 0.0 0.1 0.0 0.0 0.1 0.0 0.0 0.0 0.5 2.1 2.0 0.6 0.4 0.2 0.0 0.0 0.0
0.0 0.0 0.0 0.0 0.8 3.8 4.9 5.7 3.8 1.3 1.0 1.6 2.9 1.5 1.0 1.0 0.0 2.1 1.9 3.7 3.3 3.7 5.2 3.8 2.7 1.0 0.2 1.1 1.0 0.7 0.1 0.0 0.1 0.0 0.0 0.3 0.0 1.0 1.3 0.9 1.2 1.4 1.6 1.6
0.0 0.0 0.0 0.4 1.0 2.1 3.0 2.9 2.5 0.5 0.7 0.9 0.9 1.1 0.0 0.0 0.1 0.6 1.6 1.6 0.7 1.2 3.7 3.9 1.7 0.3 0.2 0.0 0.2 0.5 2.2 2.7 1.5 1.0 0.8 0.8 0.8 0.5 0.9 0.8 0.5 0.7 0.4 0.7
0.0 0.0 0.0 0.5 0.8 1.2 1.2 1.1 1.1 0.2 0.1 0.0 0.0 0.6 1.3 0.2 1.2 1.2 1.5 0.1 0.6 2.4 1.6 1.5 0.2 0.2 0.0 0.0 0.0 0.0 0.0 1.1 1.8 2.8 2.3 1.8 2.1 1.3 1.5 0.9 0.3 0.0 0.0 0.0
0.0 0.0 0.0 0.0 0.0 0.2 0.1 0.0 0.2 0.0 0.0 0.1 0.0 0.0 0.1 1.0 1.3 0.3 1.0 1.0 2.7 3.2 2.0 1.4 0.7 0.2 0.0 0.1 0.1 0.0 0.0 0.0 0.0 0.3 0.7 2.1 1.9 2.2 1.4 0.7 0.6 0.1 0.0 0.1
0.0 0.0 0.0 0.0 0.0 0.0 0.0 0.0 0.0 0.0 0.0 0.3 0.4 0.6 1.0 0.5 1.7 1.0 0.3 1.1 2.0 2.5 1.3 0.0 0.0 0.0 0.0 0.1 0.0 0.1 0.0 0.0 0.0 0.0 0.0 0.5 0.5 1.1 1.0 0.2 0.5 0.4 0.0 0.6
0.0 0.0 0.0 0.0 0.0 0.0 0.0 0.0 0.0 0.0 0.2 1.6 2.1 2.5 0.1 0.4 0.8 0.3 0.1 0.2 0.3 0.3 0.0 0.0 0.0 0.0 0.0 0.4 0.0 0.0 0.1 0.0 0.0 0.2 0.2 0.8 0.4 1.4 1.8 1.1 0.4 0.5 0.7 0.8

GFSNW_prec_snow_093.txt.gz
Snowfall_Accumulation
0.0 0.0 0.0 0.0 0.0 0.0 0.0 0.0 11.3 0.0 0.0 4.1 7.4 10.0 3.3 0.0 0.0 0.0 0.0 0.0 0.0 0.0 0.0 0.0 0.0 0.0 0.0 0.0 0.0 0.0 0.0 0.1 0.4 1.0 0.0 0.0 0.0 0.0 0.0 2.1 0.4 1.2 0.4 0.0
0.0 0.0 0.0 0.0 0.0 0.0 0.0 0.0 1.7 0.0 0.0 5.9 5.3 0.0 0.0 0.0 0.0 0.0 0.0 0.0 0.0 0.0 0.0 0.0 0.0 0.0 0.0 0.0 0.0 0.0 0.0 0.3 0.7 1.3 0.0 0.0 0.3 0.1 0.1 1.7 2.5 2.2 0.8 0.0
0.0 0.0 0.0 0.0 0.0 0.0 0.0 0.0 8.4 0.0 0.0 0.0 0.0 0.0 0.0 0.0 0.0 0.0 0.0 0.0 0.0 0.0 0.0 0.0 0.0 0.0 0.0 0.0 0.0 0.0 0.0 0.0 0.0 0.1 0.6 1.2 1.8 0.0 0.6 3.7 5.0 0.0 0.2 0.0
0.0 0.0 0.0 0.0 0.0 0.0 0.0 0.0 3.9 0.0 3.1 0.0 0.0 0.0 0.0 0.0 0.0 0.0 0.0 0.0 0.0 0.0 0.0 0.0 0.0 0.0 0.0 0.0 0.0 0.0 0.0 0.0 0.0 0.0 0.6 1.9 2.0 0.7 0.4 3.0 0.5 1.9 0.0 0.0
0.0 0.0 0.0 0.0 0.0 0.0 0.0 0.0 0.0 0.0 0.0 0.0 0.0 0.0 0.0 0.0 0.0 0.0 0.0 0.0 0.0 0.0 0.0 0.0 0.0 0.0 0.0 0.0 0.0 0.0 0.0 0.0 0.1 0.6 0.0 0.9 1.6 0.4 0.4 0.2 0.0 0.2 0.0 0.0
0.0 0.0 0.0 0.0 0.0 0.0 0.0 0.0 0.0 0.0 0.0 0.0 0.0 0.0 0.0 0.0 0.0 0.0 0.0 0.0 0.0 0.0 0.0 0.0 0.0 0.0 0.0 0.0 0.0 0.0 0.0 0.0 1.5 0.6 0.0 0.7 0.6 0.2 0.1 0.0 0.0 0.0 0.1 0.0
0.0 0.0 0.0 0.0 0.0 0.0 0.0 0.0 0.0 0.0 0.0 0.0 0.0 0.0 0.0 0.0 0.0 0.0 0.0 0.0 0.0 0.0 0.0 0.0 0.0 0.0 0.0 0.0 0.0 0.0 0.0 0.6 1.9 0.8 0.6 2.4 0.0 0.0 0.0 0.0 0.0 0.0 0.0 0.0
0.0 0.0 0.0 0.0 0.0 0.0 0.0 0.0 0.0 0.0 0.0 0.0 0.0 0.0 0.0 0.0 0.0 0.0 0.0 0.0 0.0 0.0 0.0 0.0 0.0 0.0 0.0 0.0 0.0 0.0 0.0 0.0 1.8 1.6 1.4 0.0 0.0 0.0 0.0 0.0 0.0 0.0 0.0 0.0
0.0 0.0 0.0 0.0 0.0 0.0 0.0 0.0 0.0 0.0 0.0 0.0 0.0 0.0 0.0 0.0 0.0 0.0 0.0 0.0 0.0 0.0 0.0 0.0 0.8 0.3 0.1 0.0 0.0 0.0 0.0 0.0 1.2 0.9 0.8 0.1 0.0 0.0 0.0 0.0 0.0 0.0 0.0 0.0
0.0 0.0 0.0 0.0 0.0 0.0 0.0 0.0 0.0 0.0 0.0 0.0 0.0 0.0 0.0 0.0 0.0 0.0 0.0 0.0 0.0 0.0 0.0 1.1 0.6 0.0 0.0 0.0 0.0 0.2 0.3 0.3 1.4 1.0 1.2 0.0 0.0 0.0 0.0 0.0 0.0 0.0 0.0 0.0
0.0 0.0 0.0 0.0 0.0 0.0 0.0 0.0 0.0 0.0 0.0 0.0 0.0 0.0 0.0 0.0 0.0 0.0 0.0 0.0 0.0 0.0 0.7 0.0 0.0 0.1 0.0 0.0 0.0 0.0 0.0 0.2 0.2 0.6 0.5 0.0 0.0 0.0 0.0 0.0 0.0 0.0 0.0 0.0
0.0 0.0 0.0 0.0 0.0 0.0 0.0 0.0 0.0 0.0 0.0 0.0 0.0 0.0 0.0 0.0 0.0 0.0 0.0 0.0 0.0 0.0 0.0 0.0 0.0 0.1 0.0 0.0 0.0 0.0 0.0 0.0 0.0 0.0 0.0 0.0 0.0 0.0 0.0 0.0 0.0 0.0 0.0 0.0
0.0 0.0 0.0 0.0 0.0 0.0 0.0 0.0 0.0 0.0 0.1 0.0 0.0 0.0 0.0 0.0 0.0 0.0 0.0 0.0 0.0 0.0 0.0 0.0 0.0 0.0 0.0 0.1 0.0 0.0 0.0 0.0 0.0 0.0 0.0 0.0 0.0 0.0 0.0 0.0 0.0 0.0 0.0 0.0
0.0 0.0 0.0 0.0 0.0 0.0 0.0 0.0 0.0 0.0 0.1 0.8 0.1 0.0 0.0 0.0 0.0 0.0 0.0 0.0 0.0 0.0 0.0 0.0 0.0 0.0 0.0 0.0 0.0 0.0 0.0 0.0 0.0 0.0 0.0 0.0 0.0 0.0 0.0 0.0 0.0 0.0 0.0 0.0
0.0 0.0 0.0 0.0 0.0 0.0 0.0 0.0 0.0 0.0 0.2 1.9 0.3 0.0 0.0 0.0 0.0 0.0 0.0 0.0 0.0 0.5 0.3 1.1 0.7 0.0 0.0 0.0 0.0 0.0 0.0 0.0 0.0 0.0 0.0 0.0 0.0 0.0 0.0 0.0 0.0 0.0 0.0 0.0
0.0 0.0 0.0 0.0 0.0 0.0 0.0 0.0 0.0 0.0 0.0 3.0 1.6 0.0 0.0 0.0 0.0 0.0 0.0 0.0 0.0 0.1 1.1 1.6 0.0 0.0 0.0 0.6 0.0 0.0 0.0 0.0 0.0 0.0 0.0 0.0 0.0 0.0 0.0 0.0 0.0 0.0 0.0 0.0
0.0 0.0 0.0 0.0 0.0 0.0 0.2 0.0 0.0 0.0 0.0 1.5 3.8 4.0 0.0 0.0 0.0 0.0 0.0 0.0 0.0 2.0 3.2 1.5 0.0 0.0 1.6 1.3 0.3 0.0 0.0 0.0 0.0 0.0 0.0 0.0 0.0 0.0 0.0 0.0 0.0 0.0 0.0 0.0
0.0 0.0 0.0 0.0 0.0 0.0 0.0 0.0 0.0 0.0 0.0 4.3 8.6 7.1 2.9 0.0 0.4 0.0 0.0 0.0 0.0 0.5 1.4 0.0 0.0 0.0 2.2 1.4 0.0 0.0 0.0 0.0 0.0 0.0 0.0 0.0 0.0 0.0 0.0 0.0 0.0 0.0 0.0 0.0
0.0 0.0 0.0 0.0 0.0 0.0 0.0 0.0 0.0 0.0 0.0 7.3 6.7 6.7 5.1 0.0 0.0 0.0 0.2 0.0 4.5 0.0 1.6 0.0 0.4 1.2 2.8 0.0 0.1 0.1 0.0 0.1 0.0 0.0 0.0 0.0 0.0 0.0 0.0 0.0 0.0 0.0 0.0 0.0
0.0 0.0 0.0 0.9 0.0 0.0 0.0 0.0 0.7 4.5 3.5 3.8 5.1 4.8 5.9 3.0 4.7 1.7 1.7 1.9 3.0 3.7 0.0 0.0 1.2 0.0 0.0 0.0 0.0 0.1 0.1 0.0 0.1 0.0 3.0 1.6 1.0 0.0 0.0 0.0 0.0 0.0 0.0 0.0
0.0 0.0 0.0 0.0 0.0 0.0 0.0 5.6 6.7 3.8 2.4 2.3 3.3 4.5 3.7 0.0 5.0 3.5 0.3 5.7 2.5 4.1 4.9 1.1 2.2 1.6 1.2 0.0 0.1 0.0 0.0 0.1 0.0 0.0 0.0 0.5 2.1 2.0 0.6 0.4 0.2 0.0 0.0 0.0
0.0 0.0 0.0 0.0 0.8 3.8 4.9 5.7 3.8 1.3 1.0 1.6 2.9 1.5 1.0 1.0 0.0 2.1 1.9 3.7 3.3 3.7 5.2 3.8 2.7 1.0 0.2 1.1 1.0 0.7 0.1 0.0 0.1 0.0 0.0 0.3 0.0 1.0 1.3 0.9 1.2 1.4 1.6 1.6
0.0 0.0 0.0 0.4 1.0 2.1 3.0 2.9 2.5 0.5 0.7 0.9 0.9 1.1 0.0 0.0 0.1 0.6 1.6 1.6 0.7 1.2 3.7 3.9 1.7 0.3 0.2 0.0 0.2 0.5 2.2 2.7 1.5 1.0 0.8 0.8 0.8 0.5 0.9 0.8 0.5 0.7 0.4 0.7
0.0 0.0 0.0 0.5 0.8 1.2 1.2 1.1 1.1 0.2 0.1 0.0 0.0 0.6 1.3 0.2 1.2 1.2 1.5 0.1 0.6 2.4 1.6 1.5 0.2 0.2 0.0 0.0 0.0 0.0 0.0 1.1 1.8 2.8 2.3 1.8 2.1 1.3 1.5 0.9 0.3 0.0 0.0 0.0
0.0 0.0 0.0 0.0 0.0 0.2 0.1 0.0 0.2 0.0 0.0 0.1 0.0 0.0 0.1 1.0 1.3 0.3 1.0 1.0 2.7 3.2 2.0 1.4 0.7 0.2 0.0 0.1 0.1 0.0 0.0 0.0 0.0 0.3 0.7 2.1 1.9 2.2 1.4 0.7 0.6 0.1 0.0 0.1
0.0 0.0 0.0 0.0 0.0 0.0 0.0 0.0 0.0 0.0 0.0 0.3 0.4 0.6 1.0 0.5 1.7 1.0 0.3 1.1 2.0 2.5 1.3 0.0 0.0 0.0 0.0 0.1 0.0 0.1 0.0 0.0 0.0 0.0 0.0 0.5 0.5 1.1 1.0 0.2 0.5 0.4 0.0 0.6
0.3 0.0 0.0 0.0 0.0 0.0 0.0 0.0 0.0 0.0 0.2 1.6 2.1 2.5 0.1 0.4 0.8 0.3 0.1 0.2 0.3 0.3 0.0 0.0 0.0 0.0 0.0 0.4 0.0 0.0 0.1 0.0 0.0 0.2 0.2 0.8 0.4 1.4 1.8 1.1 0.4 0.5 0.7 0.8

GFSNW_prec_snow_096.txt.gz
Snowfall_Accumulation
0.0 0.0 0.0 0.0 0.0 0.0 0.0 0.0 11.3 0.0 0.0 4.1 7.4 10.0 3.3 0.0 0.0 0.0 0.0 0.0 0.0 0.0 0.0 0.0 0.0 0.0 0.0 0.0 0.0 0.0 0.0 0.1 0.4 1.0 0.0 0.0 0.0 0.0 0.0 2.1 0.4 1.2 0.4 0.0
0.0 0.0 0.0 0.0 0.0 0.0 0.0 0.0 1.7 0.0 0.0 5.9 5.3 0.0 0.0 0.0 0.0 0.0 0.0 0.0 0.0 0.0 0.0 0.0 0.0 0.0 0.0 0.0 0.0 0.0 0.0 0.3 0.7 1.3 0.0 0.0 0.3 0.1 0.1 1.7 2.5 2.2 0.8 0.0
0.0 0.0 0.0 0.0 0.0 0.0 0.0 0.0 8.4 0.0 0.0 0.0 0.0 0.0 0.0 0.0 0.0 0.0 0.0 0.0 0.0 0.0 0.0 0.0 0.0 0.0 0.0 0.0 0.0 0.0 0.0 0.0 0.0 0.1 0.6 1.2 1.8 0.0 0.6 3.7 5.0 0.0 0.2 0.0
0.0 0.0 0.0 0.0 0.0 0.0 0.0 0.0 3.9 0.0 3.1 0.0 0.0 0.0 0.0 0.0 0.0 0.0 0.0 0.0 0.0 0.0 0.0 0.0 0.0 0.0 0.0 0.0 0.0 0.0 0.0 0.0 0.0 0.0 0.6 1.9 2.0 0.7 0.4 3.0 0.5 1.9 0.0 0.0
0.0 0.0 0.0 0.0 0.0 0.0 0.0 0.0 0.0 0.0 0.0 0.0 0.0 0.0 0.0 0.0 0.0 0.0 0.0 0.0 0.0 0.0 0.0 0.0 0.0 0.0 0.0 0.0 0.0 0.0 0.0 0.0 0.1 0.6 0.0 0.9 1.6 0.4 0.4 0.2 0.0 0.2 0.0 0.0
0.0 0.0 0.0 0.0 0.0 0.0 0.0 0.0 0.0 0.0 0.0 0.0 0.0 0.0 0.0 0.0 0.0 0.0 0.0 0.0 0.0 0.0 0.0 0.0 0.0 0.0 0.0 0.0 0.0 0.0 0.0 0.0 1.5 0.6 0.0 0.7 0.6 0.2 0.1 0.0 0.0 0.0 0.1 0.0
0.0 0.0 0.0 0.0 0.0 0.0 0.0 0.0 0.0 0.0 0.0 0.0 0.0 0.0 0.0 0.0 0.0 0.0 0.0 0.0 0.0 0.0 0.0 0.0 0.0 0.0 0.0 0.0 0.0 0.0 0.0 0.6 1.9 0.8 0.6 2.4 0.0 0.0 0.0 0.0 0.0 0.0 0.0 0.0
0.0 0.0 0.0 0.0 0.0 0.0 0.0 0.0 0.0 0.0 0.0 0.0 0.0 0.0 0.0 0.0 0.0 0.0 0.0 0.0 0.0 0.0 0.0 0.0 0.0 0.0 0.0 0.0 0.0 0.0 0.0 0.0 1.8 1.6 1.4 0.0 0.0 0.0 0.0 0.0 0.0 0.0 0.0 0.0
0.0 0.0 0.0 0.0 0.0 0.0 0.0 0.0 0.0 0.0 0.0 0.0 0.0 0.0 0.0 0.0 0.0 0.0 0.0 0.0 0.0 0.0 0.0 0.0 0.8 0.3 0.1 0.0 0.0 0.0 0.0 0.0 1.2 0.9 0.8 0.1 0.0 0.0 0.0 0.0 0.0 0.0 0.0 0.0
0.0 0.0 0.0 0.0 0.0 0.0 0.0 0.0 0.0 0.0 0.0 0.0 0.0 0.0 0.0 0.0 0.0 0.0 0.0 0.0 0.0 0.0 0.0 1.1 0.6 0.0 0.0 0.0 0.0 0.2 0.3 0.3 1.4 1.0 1.2 0.0 0.0 0.0 0.0 0.0 0.0 0.0 0.0 0.0
0.0 0.0 0.0 0.0 0.0 0.0 0.0 0.0 0.0 0.0 0.0 0.0 0.0 0.0 0.0 0.0 0.0 0.0 0.0 0.0 0.0 0.0 0.7 0.0 0.0 0.1 0.0 0.0 0.0 0.0 0.0 0.2 0.2 0.6 0.5 0.0 0.0 0.0 0.0 0.0 0.0 0.0 0.0 0.0
0.0 0.0 0.0 0.0 0.0 0.0 0.0 0.0 0.0 0.0 0.0 0.0 0.0 0.0 0.0 0.0 0.0 0.0 0.0 0.0 0.0 0.0 0.0 0.0 0.0 0.1 0.0 0.0 0.0 0.0 0.0 0.0 0.0 0.0 0.0 0.0 0.0 0.0 0.0 0.0 0.0 0.0 0.0 0.0
0.0 0.0 0.0 0.0 0.0 0.0 0.0 0.0 0.0 0.0 0.1 0.0 0.0 0.0 0.0 0.0 0.0 0.0 0.0 0.0 0.0 0.0 0.0 0.0 0.0 0.0 0.0 0.1 0.0 0.0 0.0 0.0 0.0 0.0 0.0 0.0 0.0 0.0 0.0 0.0 0.0 0.0 0.0 0.0
0.0 0.0 0.0 0.0 0.0 0.0 0.0 0.0 0.0 0.0 0.1 0.8 0.1 0.0 0.0 0.0 0.0 0.0 0.0 0.0 0.0 0.0 0.0 0.0 0.0 0.0 0.0 0.0 0.0 0.0 0.0 0.0 0.0 0.0 0.0 0.0 0.0 0.0 0.0 0.0 0.0 0.0 0.0 0.0
0.0 0.0 0.0 0.0 0.0 0.0 0.0 0.0 0.0 0.0 0.2 1.9 0.3 0.0 0.0 0.0 0.0 0.0 0.0 0.0 0.0 0.5 0.3 1.1 0.7 0.0 0.0 0.0 0.0 0.0 0.0 0.0 0.0 0.0 0.0 0.0 0.0 0.0 0.0 0.0 0.0 0.0 0.0 0.0
0.0 0.0 0.0 0.0 0.0 0.0 0.0 0.0 0.0 0.0 0.0 3.0 1.6 0.0 0.0 0.0 0.0 0.0 0.0 0.0 0.0 0.1 1.1 1.6 0.0 0.0 0.0 0.6 0.0 0.0 0.0 0.0 0.0 0.0 0.0 0.0 0.0 0.0 0.0 0.0 0.0 0.0 0.0 0.0
0.0 0.0 0.0 0.0 0.0 0.0 0.2 0.0 0.0 0.0 0.0 1.5 3.8 4.0 0.0 0.0 0.0 0.0 0.0 0.0 0.0 2.0 3.2 1.5 0.0 0.0 1.6 1.3 0.3 0.0 0.0 0.0 0.0 0.0 0.0 0.0 0.0 0.0 0.0 0.0 0.0 0.0 0.0 0.0
0.0 0.0 0.0 0.0 0.0 0.0 0.0 0.0 0.0 0.0 0.0 4.3 8.6 7.1 2.9 0.0 0.4 0.0 0.0 0.0 0.0 0.5 1.4 0.0 0.0 0.0 2.2 1.4 0.0 0.0 0.0 0.0 0.0 0.0 0.0 0.0 0.0 0.0 0.0 0.0 0.0 0.0 0.0 0.0
0.0 0.0 0.0 0.0 0.0 0.0 0.0 0.0 0.0 0.0 0.0 7.3 6.7 6.7 5.1 0.0 0.0 0.0 0.2 0.0 4.5 0.0 1.6 0.0 0.4 1.2 2.8 0.0 0.1 0.1 0.0 0.1 0.0 0.0 0.0 0.0 0.0 0.0 0.0 0.0 0.0 0.0 0.0 0.0
0.0 0.0 0.0 0.9 0.0 0.0 0.0 0.0 0.7 4.5 3.5 3.8 5.1 4.8 5.9 3.0 4.7 1.7 1.7 1.9 3.0 3.7 0.0 0.0 1.2 0.0 0.0 0.0 0.0 0.1 0.1 0.0 0.1 0.0 3.0 1.6 1.0 0.0 0.0 0.0 0.0 0.0 0.0 0.0
0.0 0.0 0.0 0.0 0.0 0.0 0.0 5.6 6.7 3.8 2.4 2.3 3.3 4.5 3.7 0.0 5.0 3.5 0.3 5.7 2.5 4.1 4.9 1.1 2.2 1.6 1.2 0.0 0.1 0.0 0.0 0.1 0.0 0.0 0.0 0.5 2.1 2.0 0.6 0.4 0.2 0.0 0.0 0.0
0.0 0.0 0.0 0.0 0.8 3.8 4.9 5.7 3.8 1.3 1.0 1.6 2.9 1.5 1.0 1.0 0.0 2.1 1.9 3.7 3.3 3.7 5.2 3.8 2.7 1.0 0.2 1.1 1.0 0.7 0.1 0.0 0.1 0.0 0.0 0.3 0.0 1.0 1.3 0.9 1.2 1.4 1.6 1.6
0.0 0.0 0.0 0.4 1.0 2.1 3.0 2.9 2.5 0.5 0.7 0.9 0.9 1.1 0.0 0.0 0.1 0.6 1.6 1.6 0.7 1.2 3.7 3.9 1.7 0.3 0.2 0.0 0.2 0.5 2.2 2.7 1.5 1.0 0.8 0.8 0.8 0.5 0.9 0.8 0.5 0.7 0.4 0.7
0.0 0.0 0.0 0.5 0.8 1.2 1.2 1.1 1.1 0.2 0.1 0.0 0.0 0.6 1.3 0.2 1.2 1.2 1.5 0.1 0.6 2.4 1.6 1.5 0.2 0.2 0.0 0.0 0.0 0.0 0.0 1.1 1.8 2.8 2.3 1.8 2.1 1.3 1.5 0.9 0.3 0.0 0.0 0.0
0.5 0.0 0.0 0.0 0.0 0.2 0.1 0.0 0.2 0.0 0.0 0.1 0.0 0.0 0.1 1.0 1.3 0.3 1.0 1.0 2.7 3.2 2.0 1.4 0.7 0.2 0.0 0.1 0.1 0.0 0.0 0.0 0.0 0.3 0.7 2.1 1.9 2.2 1.4 0.7 0.6 0.1 0.0 0.1
0.9 0.1 0.0 0.0 0.0 0.0 0.0 0.0 0.0 0.0 0.0 0.3 0.4 0.6 1.0 0.5 1.7 1.0 0.3 1.1 2.0 2.5 1.3 0.0 0.0 0.0 0.0 0.1 0.0 0.1 0.0 0.0 0.0 0.0 0.0 0.5 0.5 1.1 1.0 0.2 0.5 0.4 0.0 0.6
1.7 0.0 0.0 0.0 0.0 0.0 0.0 0.0 0.0 0.0 0.2 1.6 2.1 2.5 0.1 0.4 0.8 0.3 0.1 0.2 0.3 0.3 0.0 0.0 0.0 0.0 0.0 0.4 0.0 0.0 0.1 0.0 0.0 0.2 0.2 0.8 0.4 1.4 1.8 1.1 0.4 0.5 0.7 0.8

GFSNW_prec_snow_099.txt.gz
Snowfall_Accumulation
0.0 0.0 0.0 0.0 0.0 0.0 0.0 0.0 11.3 0.0 0.0 4.1 7.4 10.0 3.3 0.0 0.0 0.0 0.0 0.0 0.0 0.0 0.0 0.0 0.0 0.0 0.0 0.0 0.0 0.0 0.0 0.1 0.4 1.0 0.0 0.0 0.0 0.0 0.0 2.1 0.4 1.2 0.4 0.0
0.0 0.0 0.0 0.0 0.0 0.0 0.0 0.0 1.7 0.0 0.0 5.9 5.3 0.0 0.0 0.0 0.0 0.0 0.0 0.0 0.0 0.0 0.0 0.0 0.0 0.0 0.0 0.0 0.0 0.0 0.0 0.3 0.7 1.3 0.0 0.0 0.3 0.1 0.1 1.7 2.5 2.2 0.8 0.0
0.0 0.0 0.0 0.0 0.0 0.0 0.0 0.0 8.4 0.0 0.0 0.0 0.0 0.0 0.0 0.0 0.0 0.0 0.0 0.0 0.0 0.0 0.0 0.0 0.0 0.0 0.0 0.0 0.0 0.0 0.0 0.0 0.0 0.1 0.6 1.2 1.8 0.0 0.6 3.7 5.0 0.0 0.2 0.0
0.0 0.0 0.0 0.0 0.0 0.0 0.0 0.0 3.9 0.0 3.1 0.0 0.0 0.0 0.0 0.0 0.0 0.0 0.0 0.0 0.0 0.0 0.0 0.0 0.0 0.0 0.0 0.0 0.0 0.0 0.0 0.0 0.0 0.0 0.6 1.9 2.0 0.7 0.4 3.0 0.5 1.9 0.0 0.0
0.0 0.0 0.0 0.0 0.0 0.0 0.0 0.0 0.0 0.0 0.0 0.0 0.0 0.0 0.0 0.0 0.0 0.0 0.0 0.0 0.0 0.0 0.0 0.0 0.0 0.0 0.0 0.0 0.0 0.0 0.0 0.0 0.1 0.6 0.0 0.9 1.6 0.4 0.4 0.2 0.0 0.2 0.0 0.0
0.0 0.0 0.0 0.0 0.0 0.0 0.0 0.0 0.0 0.0 0.0 0.0 0.0 0.0 0.0 0.0 0.0 0.0 0.0 0.0 0.0 0.0 0.0 0.0 0.0 0.0 0.0 0.0 0.0 0.0 0.0 0.0 1.5 0.6 0.0 0.7 0.6 0.2 0.1 0.0 0.0 0.0 0.1 0.0
0.0 0.0 0.0 0.0 0.0 0.0 0.0 0.0 0.0 0.0 0.0 0.0 0.0 0.0 0.0 0.0 0.0 0.0 0.0 0.0 0.0 0.0 0.0 0.0 0.0 0.0 0.0 0.0 0.0 0.0 0.0 0.6 1.9 0.8 0.6 2.4 0.0 0.0 0.0 0.0 0.0 0.0 0.0 0.0
0.0 0.0 0.0 0.0 0.0 0.0 0.0 0.0 0.0 0.0 0.0 0.0 0.0 0.0 0.0 0.0 0.0 0.0 0.0 0.0 0.0 0.0 0.0 0.0 0.0 0.0 0.0 0.0 0.0 0.0 0.0 0.0 1.8 1.6 1.4 0.0 0.0 0.0 0.0 0.0 0.0 0.0 0.0 0.0
0.0 0.0 0.0 0.0 0.0 0.0 0.0 0.0 0.0 0.0 0.0 0.0 0.0 0.0 0.0 0.0 0.0 0.0 0.0 0.0 0.0 0.0 0.0 0.0 0.8 0.3 0.1 0.0 0.0 0.0 0.0 0.0 1.2 0.9 0.8 0.1 0.0 0.0 0.0 0.0 0.0 0.0 0.0 0.0
0.0 0.0 0.0 0.0 0.0 0.0 0.0 0.0 0.0 0.0 0.0 0.0 0.0 0.0 0.0 0.0 0.0 0.0 0.0 0.0 0.0 0.0 0.0 1.1 0.6 0.0 0.0 0.0 0.0 0.2 0.3 0.3 1.4 1.0 1.2 0.0 0.0 0.0 0.0 0.0 0.0 0.0 0.0 0.0
0.0 0.0 0.0 0.0 0.0 0.0 0.0 0.0 0.0 0.0 0.0 0.0 0.0 0.0 0.0 0.0 0.0 0.0 0.0 0.0 0.0 0.0 0.7 0.0 0.0 0.1 0.0 0.0 0.0 0.0 0.0 0.2 0.2 0.6 0.5 0.0 0.0 0.0 0.0 0.0 0.0 0.0 0.0 0.0
0.0 0.0 0.0 0.0 0.0 0.0 0.0 0.0 0.0 0.0 0.0 0.0 0.0 0.0 0.0 0.0 0.0 0.0 0.0 0.0 0.0 0.0 0.0 0.0 0.0 0.1 0.0 0.0 0.0 0.0 0.0 0.0 0.0 0.0 0.0 0.0 0.0 0.0 0.0 0.0 0.0 0.0 0.0 0.0
0.0 0.0 0.0 0.0 0.0 0.0 0.0 0.0 0.0 0.0 0.1 0.0 0.0 0.0 0.0 0.0 0.0 0.0 0.0 0.0 0.0 0.0 0.0 0.0 0.0 0.0 0.0 0.1 0.0 0.0 0.0 0.0 0.0 0.0 0.0 0.0 0.0 0.0 0.0 0.0 0.0 0.0 0.0 0.0
0.0 0.0 0.0 0.0 0.0 0.0 0.0 0.0 0.0 0.0 0.1 0.8 0.1 0.0 0.0 0.0 0.0 0.0 0.0 0.0 0.0 0.0 0.0 0.0 0.0 0.0 0.0 0.0 0.0 0.0 0.0 0.0 0.0 0.0 0.0 0.0 0.0 0.0 0.0 0.0 0.0 0.0 0.0 0.0
0.0 0.0 0.0 0.0 0.0 0.0 0.0 0.0 0.0 0.0 0.2 1.9 0.3 0.0 0.0 0.0 0.0 0.0 0.0 0.0 0.0 0.5 0.3 1.1 0.7 0.0 0.0 0.0 0.0 0.0 0.0 0.0 0.0 0.0 0.0 0.0 0.0 0.0 0.0 0.0 0.0 0.0 0.0 0.0
0.0 0.0 0.0 0.0 0.0 0.0 0.0 0.0 0.0 0.0 0.0 3.0 1.6 0.0 0.0 0.0 0.0 0.0 0.0 0.0 0.0 0.1 1.1 1.6 0.0 0.0 0.0 0.6 0.0 0.0 0.0 0.0 0.0 0.0 0.0 0.0 0.0 0.0 0.0 0.0 0.0 0.0 0.0 0.0
0.0 0.0 0.0 0.0 0.0 0.0 0.2 0.0 0.0 0.0 0.0 1.5 3.8 4.0 0.0 0.0 0.0 0.0 0.0 0.0 0.0 2.0 3.2 1.5 0.0 0.0 1.6 1.3 0.3 0.0 0.0 0.0 0.0 0.0 0.0 0.0 0.0 0.0 0.0 0.0 0.0 0.0 0.0 0.0
0.0 0.0 0.0 0.0 0.0 0.0 0.0 0.0 0.0 0.0 0.0 4.3 8.6 7.1 2.9 0.0 0.4 0.0 0.0 0.0 0.0 0.5 1.4 0.0 0.0 0.0 2.2 1.4 0.0 0.0 0.0 0.0 0.0 0.0 0.0 0.0 0.0 0.0 0.0 0.0 0.0 0.0 0.0 0.0
0.0 0.0 0.0 0.0 0.0 0.0 0.0 0.0 0.0 0.0 0.0 7.3 6.7 6.7 5.1 0.0 0.0 0.0 0.2 0.0 4.5 0.0 1.6 0.0 0.4 1.2 2.8 0.0 0.1 0.1 0.0 0.1 0.0 0.0 0.0 0.0 0.0 0.0 0.0 0.0 0.0 0.0 0.0 0.0
0.0 0.0 0.0 0.9 0.0 0.0 0.0 0.0 0.7 4.5 3.5 3.8 5.1 4.8 5.9 3.0 4.7 1.7 1.7 1.9 3.0 3.7 0.0 0.0 1.2 0.0 0.0 0.0 0.0 0.1 0.1 0.0 0.1 0.0 3.0 1.6 1.0 0.0 0.0 0.0 0.0 0.0 0.0 0.0
0.0 0.0 0.0 0.0 0.0 0.0 0.0 5.6 6.7 3.8 2.4 2.3 3.3 4.5 3.7 0.0 5.0 3.5 0.3 5.7 2.5 4.1 4.9 1.1 2.2 1.6 1.2 0.0 0.1 0.0 0.0 0.1 0.0 0.0 0.0 0.5 2.1 2.0 0.6 0.4 0.2 0.0 0.0 0.0
0.0 0.0 0.0 0.0 0.8 3.8 4.9 5.7 3.8 1.3 1.0 1.6 2.9 1.5 1.0 1.0 0.0 2.1 1.9 3.7 3.3 3.7 5.2 3.8 2.7 1.0 0.2 1.1 1.0 0.7 0.1 0.0 0.1 0.0 0.0 0.3 0.0 1.0 1.3 0.9 1.2 1.4 1.6 1.6
0.0 0.0 0.0 0.4 1.0 2.1 3.0 2.9 2.5 0.5 0.7 0.9 0.9 1.1 0.0 0.0 0.1 0.6 1.6 1.6 0.7 1.2 3.7 3.9 1.7 0.3 0.2 0.0 0.2 0.5 2.2 2.7 1.5 1.0 0.8 0.8 0.8 0.5 0.9 0.8 0.5 0.7 0.4 0.7
0.0 1.0 0.4 0.5 0.8 1.2 1.2 1.1 1.1 0.2 0.1 0.0 0.0 0.6 1.3 0.2 1.2 1.2 1.5 0.1 0.6 2.4 1.6 1.5 0.2 0.2 0.0 0.0 0.0 0.0 0.0 1.1 1.8 2.8 2.3 1.8 2.1 1.3 1.5 0.9 0.3 0.0 0.0 0.0
2.8 1.0 0.2 0.0 0.0 0.2 0.1 0.0 0.2 0.0 0.0 0.1 0.0 0.0 0.1 1.0 1.3 0.3 1.0 1.0 2.7 3.2 2.0 1.4 0.7 0.2 0.0 0.1 0.1 0.0 0.0 0.0 0.0 0.3 0.7 2.1 1.9 2.2 1.4 0.7 0.6 0.1 0.0 0.1
3.8 1.3 0.1 0.0 0.0 0.0 0.0 0.0 0.0 0.0 0.0 0.3 0.4 0.6 1.0 0.5 1.7 1.0 0.3 1.1 2.0 2.5 1.3 0.0 0.0 0.0 0.0 0.1 0.0 0.1 0.0 0.0 0.0 0.0 0.0 0.5 0.5 1.1 1.0 0.2 0.5 0.4 0.0 0.6
4.6 0.6 0.0 0.0 0.0 0.0 0.0 0.0 0.0 0.0 0.2 1.6 2.1 2.5 0.1 0.4 0.8 0.3 0.1 0.2 0.3 0.3 0.0 0.0 0.0 0.0 0.0 0.4 0.0 0.0 0.1 0.0 0.0 0.2 0.2 0.8 0.4 1.4 1.8 1.1 0.4 0.5 0.7 0.8

GFSNW_prec_snow_102.txt.gz
Snowfall_Accumulation
0.0 0.0 0.0 0.0 0.0 0.0 0.0 0.0 11.3 0.0 0.0 4.1 7.4 10.0 3.3 0.0 0.0 0.0 0.0 0.0 0.0 0.0 0.0 0.0 0.0 0.0 0.0 0.0 0.0 0.0 0.0 0.1 0.4 1.0 0.0 0.0 0.0 0.0 0.0 2.1 0.4 1.2 0.4 0.0
0.0 0.0 0.0 0.0 0.0 0.0 0.0 0.0 1.7 0.0 0.0 5.9 5.3 0.0 0.0 0.0 0.0 0.0 0.0 0.0 0.0 0.0 0.0 0.0 0.0 0.0 0.0 0.0 0.0 0.0 0.0 0.3 0.7 1.3 0.0 0.0 0.3 0.1 0.1 1.7 2.5 2.2 0.8 0.0
0.0 0.0 0.0 0.0 0.0 0.0 0.0 0.0 8.4 0.0 0.0 0.0 0.0 0.0 0.0 0.0 0.0 0.0 0.0 0.0 0.0 0.0 0.0 0.0 0.0 0.0 0.0 0.0 0.0 0.0 0.0 0.0 0.0 0.1 0.6 1.2 1.8 0.0 0.6 3.7 5.0 0.0 0.2 0.0
0.0 0.0 0.0 0.0 0.0 0.0 0.0 0.0 3.9 0.0 3.1 0.0 0.0 0.0 0.0 0.0 0.0 0.0 0.0 0.0 0.0 0.0 0.0 0.0 0.0 0.0 0.0 0.0 0.0 0.0 0.0 0.0 0.0 0.0 0.6 1.9 2.0 0.7 0.4 3.0 0.5 1.9 0.0 0.0
0.0 0.0 0.0 0.0 0.0 0.0 0.0 0.0 0.0 0.0 0.0 0.0 0.0 0.0 0.0 0.0 0.0 0.0 0.0 0.0 0.0 0.0 0.0 0.0 0.0 0.0 0.0 0.0 0.0 0.0 0.0 0.0 0.1 0.6 0.0 0.9 1.6 0.4 0.4 0.2 0.0 0.2 0.0 0.0
0.0 0.0 0.0 0.0 0.0 0.0 0.0 0.0 0.0 0.0 0.0 0.0 0.0 0.0 0.0 0.0 0.0 0.0 0.0 0.0 0.0 0.0 0.0 0.0 0.0 0.0 0.0 0.0 0.0 0.0 0.0 0.0 1.5 0.6 0.0 0.7 0.6 0.2 0.1 0.0 0.0 0.0 0.1 0.0
0.0 0.0 0.0 0.0 0.0 0.0 0.0 0.0 0.0 0.0 0.0 0.0 0.0 0.0 0.0 0.0 0.0 0.0 0.0 0.0 0.0 0.0 0.0 0.0 0.0 0.0 0.0 0.0 0.0 0.0 0.0 0.6 1.9 0.8 0.6 2.4 0.0 0.0 0.0 0.0 0.0 0.0 0.0 0.0
0.0 0.0 0.0 0.0 0.0 0.0 0.0 0.0 0.0 0.0 0.0 0.0 0.0 0.0 0.0 0.0 0.0 0.0 0.0 0.0 0.0 0.0 0.0 0.0 0.0 0.0 0.0 0.0 0.0 0.0 0.0 0.0 1.8 1.6 1.4 0.0 0.0 0.0 0.0 0.0 0.0 0.0 0.0 0.0
0.0 0.0 0.0 0.0 0.0 0.0 0.0 0.0 0.0 0.0 0.0 0.0 0.0 0.0 0.0 0.0 0.0 0.0 0.0 0.0 0.0 0.0 0.0 0.0 0.8 0.3 0.1 0.0 0.0 0.0 0.0 0.0 1.2 0.9 0.8 0.1 0.0 0.0 0.0 0.0 0.0 0.0 0.0 0.0
0.0 0.0 0.0 0.0 0.0 0.0 0.0 0.0 0.0 0.0 0.0 0.0 0.0 0.0 0.0 0.0 0.0 0.0 0.0 0.0 0.0 0.0 0.0 1.1 0.6 0.0 0.0 0.0 0.0 0.2 0.3 0.3 1.4 1.0 1.2 0.0 0.0 0.0 0.0 0.0 0.0 0.0 0.0 0.0
0.0 0.0 0.0 0.0 0.0 0.0 0.0 0.0 0.0 0.0 0.0 0.0 0.0 0.0 0.0 0.0 0.0 0.0 0.0 0.0 0.0 0.0 0.7 0.0 0.0 0.1 0.0 0.0 0.0 0.0 0.0 0.2 0.2 0.6 0.5 0.0 0.0 0.0 0.0 0.0 0.0 0.0 0.0 0.0
0.0 0.0 0.0 0.0 0.0 0.0 0.0 0.0 0.0 0.0 0.0 0.0 0.0 0.0 0.0 0.0 0.0 0.0 0.0 0.0 0.0 0.0 0.0 0.0 0.0 0.1 0.0 0.0 0.0 0.0 0.0 0.0 0.0 0.0 0.0 0.0 0.0 0.0 0.0 0.0 0.0 0.0 0.0 0.0
0.0 0.0 0.0 0.0 0.0 0.0 0.0 0.0 0.0 0.0 0.1 0.0 0.0 0.0 0.0 0.0 0.0 0.0 0.0 0.0 0.0 0.0 0.0 0.0 0.0 0.0 0.0 0.1 0.0 0.0 0.0 0.0 0.0 0.0 0.0 0.0 0.0 0.0 0.0 0.0 0.0 0.0 0.0 0.0
0.0 0.0 0.0 0.0 0.0 0.0 0.0 0.0 0.0 0.0 0.1 0.8 0.1 0.0 0.0 0.0 0.0 0.0 0.0 0.0 0.0 0.0 0.0 0.0 0.0 0.0 0.0 0.0 0.0 0.0 0.0 0.0 0.0 0.0 0.0 0.0 0.0 0.0 0.0 0.0 0.0 0.0 0.0 0.0
0.0 0.0 0.0 0.0 0.0 0.0 0.0 0.0 0.0 0.0 0.2 1.9 0.3 0.0 0.0 0.0 0.0 0.0 0.0 0.0 0.0 0.5 0.3 1.1 0.7 0.0 0.0 0.0 0.0 0.0 0.0 0.0 0.0 0.0 0.0 0.0 0.0 0.0 0.0 0.0 0.0 0.0 0.0 0.0
0.0 0.0 0.0 0.0 0.0 0.0 0.0 0.0 0.0 0.0 0.0 3.0 1.6 0.0 0.0 0.0 0.0 0.0 0.0 0.0 0.0 0.1 1.1 1.6 0.0 0.0 0.0 0.6 0.0 0.0 0.0 0.0 0.0 0.0 0.0 0.0 0.0 0.0 0.0 0.0 0.0 0.0 0.0 0.0
0.0 0.0 0.0 0.0 0.0 0.0 0.2 0.0 0.0 0.0 0.0 1.5 3.8 4.0 0.0 0.0 0.0 0.0 0.0 0.0 0.0 2.0 3.2 1.5 0.0 0.0 1.6 1.3 0.3 0.0 0.0 0.0 0.0 0.0 0.0 0.0 0.0 0.0 0.0 0.0 0.0 0.0 0.0 0.0
0.0 0.0 0.0 0.0 0.0 0.0 0.0 0.0 0.0 0.0 0.0 4.3 8.6 7.1 2.9 0.0 0.4 0.0 0.0 0.0 0.0 0.5 1.4 0.0 0.0 0.0 2.2 1.4 0.0 0.0 0.0 0.0 0.0 0.0 0.0 0.0 0.0 0.0 0.0 0.0 0.0 0.0 0.0 0.0
0.0 0.0 0.0 0.0 0.0 0.0 0.0 0.0 0.0 0.0 0.0 7.3 6.7 6.7 5.1 0.0 0.0 0.0 0.2 0.0 4.5 0.0 1.6 0.0 0.4 1.2 2.8 0.0 0.1 0.1 0.0 0.1 0.0 0.0 0.0 0.0 0.0 0.0 0.0 0.0 0.0 0.0 0.0 0.0
0.0 0.0 0.0 0.9 0.0 0.0 0.0 0.0 0.7 4.5 3.5 3.8 5.1 4.8 5.9 3.0 4.7 1.7 1.7 1.9 3.0 3.7 0.0 0.0 1.2 0.0 0.0 0.0 0.0 0.1 0.1 0.0 0.1 0.0 3.0 1.6 1.0 0.0 0.0 0.0 0.0 0.0 0.0 0.0
0.0 0.0 0.0 0.0 0.0 0.0 0.0 5.6 6.7 3.8 2.4 2.3 3.3 4.5 3.7 0.0 5.0 3.5 0.3 5.7 2.5 4.1 4.9 1.1 2.2 1.6 1.2 0.0 0.1 0.0 0.0 0.1 0.0 0.0 0.0 0.5 2.1 2.0 0.6 0.4 0.2 0.0 0.0 0.0
0.0 0.0 0.0 0.0 0.8 3.8 4.9 5.7 3.8 1.3 1.0 1.6 2.9 1.5 1.0 1.0 0.0 2.1 1.9 3.7 3.3 3.7 5.2 3.8 2.7 1.0 0.2 1.1 1.0 0.7 0.1 0.0 0.1 0.0 0.0 0.3 0.0 1.0 1.3 0.9 1.2 1.4 1.6 1.6
0.0 0.0 0.9 0.6 1.1 2.1 3.0 2.9 2.5 0.5 0.7 0.9 0.9 1.1 0.0 0.0 0.1 0.6 1.6 1.6 0.7 1.2 3.7 3.9 1.7 0.3 0.2 0.0 0.2 0.5 2.2 2.7 1.5 1.0 0.8 0.8 0.8 0.5 0.9 0.8 0.5 0.7 0.4 0.7
0.0 2.8 1.5 0.7 0.8 1.2 1.2 1.1 1.1 0.2 0.1 0.0 0.0 0.6 1.3 0.2 1.2 1.2 1.5 0.1 0.6 2.4 1.6 1.5 0.2 0.2 0.0 0.0 0.0 0.0 0.0 1.1 1.8 2.8 2.3 1.8 2.1 1.3 1.5 0.9 0.3 0.0 0.0 0.0
4.8 2.8 0.8 0.0 0.0 0.2 0.1 0.0 0.2 0.0 0.0 0.1 0.0 0.0 0.1 1.0 1.3 0.3 1.0 1.0 2.7 3.2 2.0 1.4 0.7 0.2 0.0 0.1 0.1 0.0 0.0 0.0 0.0 0.3 0.7 2.1 1.9 2.2 1.4 0.7 0.6 0.1 0.0 0.1
6.0 3.7 0.6 0.0 0.0 0.0 0.0 0.0 0.0 0.0 0.0 0.3 0.4 0.6 1.0 0.5 1.7 1.0 0.3 1.1 2.0 2.5 1.3 0.0 0.0 0.0 0.0 0.1 0.0 0.1 0.0 0.0 0.0 0.0 0.0 0.5 0.5 1.1 1.0 0.2 0.5 0.4 0.0 0.6
7.3 1.6 0.0 0.0 0.0 0.0 0.0 0.0 0.0 0.0 0.2 1.6 2.1 2.6 0.1 0.4 0.8 0.3 0.1 0.2 0.3 0.3 0.0 0.0 0.0 0.0 0.0 0.4 0.0 0.0 0.1 0.0 0.0 0.2 0.2 0.8 0.4 1.4 1.8 1.1 0.4 0.5 0.7 0.8

GFSNW_prec_snow_105.txt.gz
Snowfall_Accumulation
0.0 0.0 0.0 0.0 0.0 0.0 0.0 0.0 11.3 0.0 0.0 4.1 7.4 10.0 3.3 0.0 0.0 0.0 0.0 0.0 0.0 0.0 0.0 0.0 0.0 0.0 0.0 0.0 0.0 0.0 0.0 0.1 0.4 1.0 0.0 0.0 0.0 0.0 0.0 2.1 0.4 1.2 0.4 0.0
0.0 0.0 0.0 0.0 0.0 0.0 0.0 0.0 1.7 0.0 0.0 5.9 5.3 0.0 0.0 0.0 0.0 0.0 0.0 0.0 0.0 0.0 0.0 0.0 0.0 0.0 0.0 0.0 0.0 0.0 0.0 0.3 0.7 1.3 0.0 0.0 0.3 0.1 0.1 1.7 2.5 2.2 0.8 0.0
0.0 0.0 0.0 0.0 0.0 0.0 0.0 0.0 8.4 0.0 0.0 0.0 0.0 0.0 0.0 0.0 0.0 0.0 0.0 0.0 0.0 0.0 0.0 0.0 0.0 0.0 0.0 0.0 0.0 0.0 0.0 0.0 0.0 0.1 0.6 1.2 1.8 0.0 0.6 3.7 5.0 0.0 0.2 0.0
0.0 0.0 0.0 0.0 0.0 0.0 0.0 0.0 3.9 0.0 3.1 0.0 0.0 0.0 0.0 0.0 0.0 0.0 0.0 0.0 0.0 0.0 0.0 0.0 0.0 0.0 0.0 0.0 0.0 0.0 0.0 0.0 0.0 0.0 0.6 1.9 2.0 0.7 0.4 3.0 0.5 1.9 0.0 0.0
0.0 0.0 0.0 0.0 0.0 0.0 0.0 0.0 0.0 0.0 0.0 0.0 0.0 0.0 0.0 0.0 0.0 0.0 0.0 0.0 0.0 0.0 0.0 0.0 0.0 0.0 0.0 0.0 0.0 0.0 0.0 0.0 0.1 0.6 0.0 0.9 1.6 0.4 0.4 0.2 0.0 0.2 0.0 0.0
0.0 0.0 0.0 0.0 0.0 0.0 0.0 0.0 0.0 0.0 0.0 0.0 0.0 0.0 0.0 0.0 0.0 0.0 0.0 0.0 0.0 0.0 0.0 0.0 0.0 0.0 0.0 0.0 0.0 0.0 0.0 0.0 1.5 0.6 0.0 0.7 0.6 0.2 0.1 0.0 0.0 0.0 0.1 0.0
0.0 0.0 0.0 0.0 0.0 0.0 0.0 0.0 0.0 0.0 0.0 0.0 0.0 0.0 0.0 0.0 0.0 0.0 0.0 0.0 0.0 0.0 0.0 0.0 0.0 0.0 0.0 0.0 0.0 0.0 0.0 0.6 1.9 0.8 0.6 2.4 0.0 0.0 0.0 0.0 0.0 0.0 0.0 0.0
0.0 0.0 0.0 0.0 0.0 0.0 0.0 0.0 0.0 0.0 0.0 0.0 0.0 0.0 0.0 0.0 0.0 0.0 0.0 0.0 0.0 0.0 0.0 0.0 0.0 0.0 0.0 0.0 0.0 0.0 0.0 0.0 1.8 1.6 1.4 0.0 0.0 0.0 0.0 0.0 0.0 0.0 0.0 0.0
0.0 0.0 0.0 0.0 0.0 0.0 0.0 0.0 0.0 0.0 0.0 0.0 0.0 0.0 0.0 0.0 0.0 0.0 0.0 0.0 0.0 0.0 0.0 0.0 0.8 0.3 0.1 0.0 0.0 0.0 0.0 0.0 1.2 0.9 0.8 0.1 0.0 0.0 0.0 0.0 0.0 0.0 0.0 0.0
0.0 0.0 0.0 0.0 0.0 0.0 0.0 0.0 0.0 0.0 0.0 0.0 0.0 0.0 0.0 0.0 0.0 0.0 0.0 0.0 0.0 0.0 0.0 1.1 0.6 0.0 0.0 0.0 0.0 0.2 0.3 0.3 1.4 1.0 1.2 0.0 0.0 0.0 0.0 0.0 0.0 0.0 0.0 0.0
0.0 0.0 0.0 0.0 0.0 0.0 0.0 0.0 0.0 0.0 0.0 0.0 0.0 0.0 0.0 0.0 0.0 0.0 0.0 0.0 0.0 0.0 0.7 0.0 0.0 0.1 0.0 0.0 0.0 0.0 0.0 0.2 0.2 0.6 0.5 0.0 0.0 0.0 0.0 0.0 0.0 0.0 0.0 0.0
0.0 0.0 0.0 0.0 0.0 0.0 0.0 0.0 0.0 0.0 0.0 0.0 0.0 0.0 0.0 0.0 0.0 0.0 0.0 0.0 0.0 0.0 0.0 0.0 0.0 0.1 0.0 0.0 0.0 0.0 0.0 0.0 0.0 0.0 0.0 0.0 0.0 0.0 0.0 0.0 0.0 0.0 0.0 0.0
0.0 0.0 0.0 0.0 0.0 0.0 0.0 0.0 0.0 0.0 0.1 0.0 0.0 0.0 0.0 0.0 0.0 0.0 0.0 0.0 0.0 0.0 0.0 0.0 0.0 0.0 0.0 0.1 0.0 0.0 0.0 0.0 0.0 0.0 0.0 0.0 0.0 0.0 0.0 0.0 0.0 0.0 0.0 0.0
0.0 0.0 0.0 0.0 0.0 0.0 0.0 0.0 0.0 0.0 0.1 0.8 0.1 0.0 0.0 0.0 0.0 0.0 0.0 0.0 0.0 0.0 0.0 0.0 0.0 0.0 0.0 0.0 0.0 0.0 0.0 0.0 0.0 0.0 0.0 0.0 0.0 0.0 0.0 0.0 0.0 0.0 0.0 0.0
0.0 0.0 0.0 0.0 0.0 0.0 0.0 0.0 0.0 0.0 0.2 1.9 0.3 0.0 0.0 0.0 0.0 0.0 0.0 0.0 0.0 0.5 0.3 1.1 0.7 0.0 0.0 0.0 0.0 0.0 0.0 0.0 0.0 0.0 0.0 0.0 0.0 0.0 0.0 0.0 0.0 0.0 0.0 0.0
0.0 0.0 0.0 0.0 0.0 0.0 0.0 0.0 0.0 0.0 0.0 3.0 1.6 0.0 0.0 0.0 0.0 0.0 0.0 0.0 0.0 0.1 1.1 1.6 0.0 0.0 0.0 0.6 0.0 0.0 0.0 0.0 0.0 0.0 0.0 0.0 0.0 0.0 0.0 0.0 0.0 0.0 0.0 0.0
0.0 0.0 0.0 0.0 0.0 0.0 0.2 0.0 0.0 0.0 0.0 1.5 3.8 4.0 0.0 0.0 0.0 0.0 0.0 0.0 0.0 2.0 3.2 1.5 0.0 0.0 1.6 1.3 0.3 0.0 0.0 0.0 0.0 0.0 0.0 0.0 0.0 0.0 0.0 0.0 0.0 0.0 0.0 0.0
0.0 0.0 0.0 0.0 0.0 0.0 0.0 0.0 0.0 0.0 0.0 4.3 8.6 7.1 2.9 0.0 0.4 0.0 0.0 0.0 0.0 0.5 1.4 0.0 0.0 0.0 2.2 1.4 0.0 0.0 0.0 0.0 0.0 0.0 0.0 0.0 0.0 0.0 0.0 0.0 0.0 0.0 0.0 0.0
0.0 0.0 0.0 0.0 0.0 0.0 0.0 0.0 0.0 0.0 0.0 7.3 6.7 6.7 5.1 0.0 0.0 0.0 0.2 0.0 4.5 0.0 1.6 0.0 0.4 1.2 2.8 0.0 0.1 0.1 0.0 0.1 0.0 0.0 0.0 0.0 0.0 0.0 0.0 0.0 0.0 0.0 0.0 0.0
0.0 0.0 0.0 0.9 0.0 0.0 0.0 0.0 0.7 4.5 3.5 3.8 5.1 4.8 5.9 3.0 4.7 1.7 1.7 1.9 3.0 3.7 0.0 0.0 1.2 0.0 0.0 0.0 0.0 0.1 0.1 0.0 0.1 0.0 3.0 1.6 1.0 0.0 0.0 0.0 0.0 0.0 0.0 0.0
0.0 0.0 0.0 0.0 0.0 0.0 0.0 5.6 6.7 3.8 2.4 2.3 3.3 4.5 3.7 0.0 5.0 3.5 0.3 5.7 2.5 4.1 4.9 1.1 2.2 1.6 1.2 0.0 0.1 0.0 0.0 0.1 0.0 0.0 0.0 0.5 2.1 2.0 0.6 0.4 0.2 0.0 0.0 0.0
0.0 0.0 0.0 0.0 0.8 3.8 4.9 5.7 3.8 1.3 1.0 1.6 2.9 1.5 1.0 1.0 0.0 2.1 1.9 3.7 3.3 3.7 5.2 3.8 2.7 1.0 0.2 1.1 1.0 0.7 0.1 0.0 0.1 0.0 0.0 0.3 0.0 1.0 1.3 0.9 1.2 1.4 1.6 1.6
0.0 0.0 0.9 0.6 1.1 2.2 3.1 2.9 2.5 0.5 0.7 0.9 0.9 1.1 0.0 0.0 0.1 0.6 1.6 1.6 0.7 1.2 3.7 3.9 1.7 0.3 0.2 0.0 0.2 0.5 2.2 2.7 1.5 1.0 0.8 0.8 0.8 0.5 0.9 0.8 0.5 0.7 0.4 0.7
0.0 3.7 2.3 0.7 0.8 1.2 1.2 1.1 1.1 0.2 0.1 0.0 0.0 0.6 1.3 0.2 1.2 1.2 1.5 0.1 0.6 2.4 1.6 1.5 0.2 0.2 0.0 0.0 0.0 0.0 0.0 1.1 1.8 2.8 2.3 1.8 2.1 1.3 1.5 0.9 0.3 0.0 0.0 0.0
6.1 4.1 1.3 0.0 0.0 0.2 0.1 0.0 0.2 0.0 0.0 0.1 0.0 0.0 0.1 1.0 1.3 0.3 1.0 1.0 2.7 3.2 2.0 1.4 0.7 0.2 0.0 0.1 0.1 0.0 0.0 0.0 0.0 0.3 0.7 2.1 1.9 2.2 1.4 0.7 0.6 0.1 0.0 0.1
7.1 4.8 0.6 0.0 0.0 0.0 0.0 0.0 0.0 0.0 0.0 0.3 0.4 0.6 1.0 0.5 1.7 1.0 0.3 1.1 2.0 2.5 1.3 0.0 0.0 0.0 0.0 0.1 0.0 0.1 0.0 0.0 0.0 0.0 0.0 0.5 0.5 1.1 1.0 0.2 0.5 0.4 0.0 0.6
9.1 2.3 0.0 0.0 0.0 0.0 0.0 0.0 0.0 0.0 0.2 1.6 2.4 3.0 0.1 0.4 0.8 0.3 0.1 0.2 0.3 0.3 0.0 0.0 0.0 0.0 0.0 0.4 0.0 0.0 0.1 0.0 0.0 0.2 0.2 0.8 0.4 1.4 1.8 1.1 0.4 0.5 0.7 0.8

GFSNW_prec_snow_108.txt.gz
Snowfall_Accumulation
0.0 0.0 0.0 0.0 0.0 0.0 0.0 0.0 11.3 0.0 0.0 4.1 7.4 10.0 3.3 0.0 0.0 0.0 0.0 0.0 0.0 0.0 0.0 0.0 0.0 0.0 0.0 0.0 0.0 0.0 0.0 0.1 0.4 1.0 0.0 0.0 0.0 0.0 0.0 2.1 0.4 1.2 0.4 0.0
0.0 0.0 0.0 0.0 0.0 0.0 0.0 0.0 1.7 0.0 0.0 5.9 5.3 0.0 0.0 0.0 0.0 0.0 0.0 0.0 0.0 0.0 0.0 0.0 0.0 0.0 0.0 0.0 0.0 0.0 0.0 0.3 0.7 1.3 0.0 0.0 0.3 0.1 0.1 1.7 2.5 2.2 0.8 0.0
0.0 0.0 0.0 0.0 0.0 0.0 0.0 0.0 8.4 0.0 0.0 0.0 0.0 0.0 0.0 0.0 0.0 0.0 0.0 0.0 0.0 0.0 0.0 0.0 0.0 0.0 0.0 0.0 0.0 0.0 0.0 0.0 0.0 0.1 0.6 1.2 1.8 0.0 0.6 3.7 5.0 0.0 0.2 0.0
0.0 0.0 0.0 0.0 0.0 0.0 0.0 0.0 3.9 0.0 3.1 0.0 0.0 0.0 0.0 0.0 0.0 0.0 0.0 0.0 0.0 0.0 0.0 0.0 0.0 0.0 0.0 0.0 0.0 0.0 0.0 0.0 0.0 0.0 0.6 1.9 2.0 0.7 0.4 3.0 0.5 1.9 0.0 0.0
0.0 0.0 0.0 0.0 0.0 0.0 0.0 0.0 0.0 0.0 0.0 0.0 0.0 0.0 0.0 0.0 0.0 0.0 0.0 0.0 0.0 0.0 0.0 0.0 0.0 0.0 0.0 0.0 0.0 0.0 0.0 0.0 0.1 0.6 0.0 0.9 1.6 0.4 0.4 0.2 0.0 0.2 0.0 0.0
0.0 0.0 0.0 0.0 0.0 0.0 0.0 0.0 0.0 0.0 0.0 0.0 0.0 0.0 0.0 0.0 0.0 0.0 0.0 0.0 0.0 0.0 0.0 0.0 0.0 0.0 0.0 0.0 0.0 0.0 0.0 0.0 1.5 0.6 0.0 0.7 0.6 0.2 0.1 0.0 0.0 0.0 0.1 0.0
0.0 0.0 0.0 0.0 0.0 0.0 0.0 0.0 0.0 0.0 0.0 0.0 0.0 0.0 0.0 0.0 0.0 0.0 0.0 0.0 0.0 0.0 0.0 0.0 0.0 0.0 0.0 0.0 0.0 0.0 0.0 0.6 1.9 0.8 0.6 2.4 0.0 0.0 0.0 0.0 0.0 0.0 0.0 0.0
0.0 0.0 0.0 0.0 0.0 0.0 0.0 0.0 0.0 0.0 0.0 0.0 0.0 0.0 0.0 0.0 0.0 0.0 0.0 0.0 0.0 0.0 0.0 0.0 0.0 0.0 0.0 0.0 0.0 0.0 0.0 0.0 1.8 1.6 1.4 0.0 0.0 0.0 0.0 0.0 0.0 0.0 0.0 0.0
0.0 0.0 0.0 0.0 0.0 0.0 0.0 0.0 0.0 0.0 0.0 0.0 0.0 0.0 0.0 0.0 0.0 0.0 0.0 0.0 0.0 0.0 0.0 0.0 0.8 0.3 0.1 0.0 0.0 0.0 0.0 0.0 1.2 0.9 0.8 0.1 0.0 0.0 0.0 0.0 0.0 0.0 0.0 0.0
0.0 0.0 0.0 0.0 0.0 0.0 0.0 0.0 0.0 0.0 0.0 0.0 0.0 0.0 0.0 0.0 0.0 0.0 0.0 0.0 0.0 0.0 0.0 1.1 0.6 0.0 0.0 0.0 0.0 0.2 0.3 0.3 1.4 1.0 1.2 0.0 0.0 0.0 0.0 0.0 0.0 0.0 0.0 0.0
0.0 0.0 0.0 0.0 0.0 0.0 0.0 0.0 0.0 0.0 0.0 0.0 0.0 0.0 0.0 0.0 0.0 0.0 0.0 0.0 0.0 0.0 0.7 0.0 0.0 0.1 0.0 0.0 0.0 0.0 0.0 0.2 0.2 0.6 0.5 0.0 0.0 0.0 0.0 0.0 0.0 0.0 0.0 0.0
0.0 0.0 0.0 0.0 0.0 0.0 0.0 0.0 0.0 0.0 0.0 0.0 0.0 0.0 0.0 0.0 0.0 0.0 0.0 0.0 0.0 0.0 0.0 0.0 0.0 0.1 0.0 0.0 0.0 0.0 0.0 0.0 0.0 0.0 0.0 0.0 0.0 0.0 0.0 0.0 0.0 0.0 0.0 0.0
0.0 0.0 0.0 0.0 0.0 0.0 0.0 0.0 0.0 0.0 0.1 0.0 0.0 0.0 0.0 0.0 0.0 0.0 0.0 0.0 0.0 0.0 0.0 0.0 0.0 0.0 0.0 0.1 0.0 0.0 0.0 0.0 0.0 0.0 0.0 0.0 0.0 0.0 0.0 0.0 0.0 0.0 0.0 0.0
0.0 0.0 0.0 0.0 0.0 0.0 0.0 0.0 0.0 0.0 0.1 0.8 0.1 0.0 0.0 0.0 0.0 0.0 0.0 0.0 0.0 0.0 0.0 0.0 0.0 0.0 0.0 0.0 0.0 0.0 0.0 0.0 0.0 0.0 0.0 0.0 0.0 0.0 0.0 0.0 0.0 0.0 0.0 0.0
0.0 0.0 0.0 0.0 0.0 0.0 0.0 0.0 0.0 0.0 0.2 1.9 0.3 0.0 0.0 0.0 0.0 0.0 0.0 0.0 0.0 0.5 0.3 1.1 0.7 0.0 0.0 0.0 0.0 0.0 0.0 0.0 0.0 0.0 0.0 0.0 0.0 0.0 0.0 0.0 0.0 0.0 0.0 0.0
0.0 0.0 0.0 0.0 0.0 0.0 0.0 0.0 0.0 0.0 0.0 3.0 1.6 0.0 0.0 0.0 0.0 0.0 0.0 0.0 0.0 0.1 1.1 1.6 0.0 0.0 0.0 0.6 0.0 0.0 0.0 0.0 0.0 0.0 0.0 0.0 0.0 0.0 0.0 0.0 0.0 0.0 0.0 0.0
0.0 0.0 0.0 0.0 0.0 0.0 0.2 0.0 0.0 0.0 0.0 1.5 3.8 4.0 0.0 0.0 0.0 0.0 0.0 0.0 0.0 2.0 3.2 1.5 0.0 0.0 1.6 1.3 0.3 0.0 0.0 0.0 0.0 0.0 0.0 0.0 0.0 0.0 0.0 0.0 0.0 0.0 0.0 0.0
0.0 0.0 0.0 0.0 0.0 0.0 0.0 0.0 0.0 0.0 0.0 4.3 8.6 7.1 2.9 0.0 0.4 0.0 0.0 0.0 0.0 0.5 1.4 0.0 0.0 0.0 2.2 1.4 0.0 0.0 0.0 0.0 0.0 0.0 0.0 0.0 0.0 0.0 0.0 0.0 0.0 0.0 0.0 0.0
0.0 0.0 0.0 0.0 0.0 0.0 0.0 0.0 0.0 0.0 0.0 7.3 6.7 6.7 5.1 0.0 0.0 0.0 0.2 0.0 4.5 0.0 1.6 0.0 0.4 1.2 2.8 0.0 0.1 0.1 0.0 0.1 0.0 0.0 0.0 0.0 0.0 0.0 0.0 0.0 0.0 0.0 0.0 0.0
0.0 0.0 0.0 0.9 0.0 0.0 0.0 0.0 0.7 4.5 3.5 3.8 5.1 4.8 5.9 3.0 4.7 1.7 1.7 1.9 3.0 3.7 0.0 0.0 1.2 0.0 0.0 0.0 0.0 0.1 0.1 0.0 0.1 0.0 3.0 1.6 1.0 0.0 0.0 0.0 0.0 0.0 0.0 0.0
0.0 0.0 0.0 0.0 0.0 0.0 0.0 5.6 6.7 3.8 2.4 2.3 3.3 4.5 3.7 0.0 5.0 3.5 0.3 5.7 2.5 4.1 4.9 1.1 2.2 1.6 1.2 0.0 0.1 0.0 0.0 0.1 0.0 0.0 0.0 0.5 2.1 2.0 0.6 0.4 0.2 0.0 0.0 0.0
0.0 0.0 0.0 0.0 0.8 3.8 4.9 5.8 3.9 1.3 1.0 1.6 2.9 1.5 1.0 1.0 0.0 2.1 1.9 3.7 3.3 3.7 5.2 3.8 2.7 1.0 0.2 1.1 1.0 0.7 0.1 0.0 0.1 0.0 0.0 0.3 0.0 1.0 1.3 0.9 1.2 1.4 1.6 1.6
0.0 0.0 0.9 0.6 1.1 2.2 3.2 2.9 2.5 0.5 0.7 0.9 0.9 1.1 0.0 0.0 0.1 0.6 1.6 1.6 0.7 1.2 3.7 3.9 1.7 0.3 0.2 0.0 0.2 0.5 2.2 2.7 1.5 1.0 0.8 0.8 0.8 0.5 0.9 0.8 0.5 0.7 0.4 0.7
0.0 3.7 2.3 0.7 0.8 1.2 1.2 1.1 1.1 0.2 0.1 0.0 0.0 0.6 1.3 0.2 1.2 1.2 1.5 0.1 0.6 2.4 1.6 1.5 0.2 0.2 0.0 0.0 0.0 0.0 0.0 1.1 1.8 2.8 2.3 1.8 2.1 1.3 1.5 0.9 0.3 0.0 0.0 0.0
6.1 4.7 1.3 0.0 0.0 0.2 0.1 0.0 0.2 0.0 0.0 0.1 0.0 0.0 0.1 1.0 1.3 0.3 1.0 1.0 2.7 3.2 2.0 1.4 0.7 0.2 0.0 0.1 0.1 0.0 0.0 0.0 0.0 0.3 0.7 2.1 1.9 2.2 1.4 0.7 0.6 0.1 0.0 0.1
7.8 5.3 0.6 0.0 0.0 0.0 0.0 0.0 0.0 0.0 0.0 0.3 0.4 0.6 1.0 0.5 1.7 1.1 0.3 1.1 2.0 2.5 1.3 0.0 0.0 0.0 0.0 0.1 0.0 0.1 0.0 0.0 0.0 0.0 0.0 0.5 0.5 1.1 1.0 0.2 0.5 0.4 0.0 0.6
9.1 2.3 0.0 0.0 0.0 0.0 0.0 0.0 0.0 0.0 0.2 1.6 2.4 3.0 0.1 0.7 1.1 0.4 0.1 0.2 0.3 0.3 0.0 0.0 0.0 0.0 0.0 0.4 0.0 0.0 0.1 0.0 0.0 0.2 0.2 0.8 0.4 1.4 1.8 1.1 0.4 0.5 0.7 0.8

GFSNW_prec_snow_111.txt.gz
Snowfall_Accumulation
0.0 0.0 0.0 0.0 0.0 0.0 0.0 0.0 11.3 0.0 0.0 4.1 7.4 10.0 3.3 0.0 0.0 0.0 0.0 0.0 0.0 0.0 0.0 0.0 0.0 0.0 0.0 0.0 0.0 0.0 0.0 0.1 0.4 1.0 0.0 0.0 0.0 0.0 0.0 2.1 0.4 1.2 0.4 0.0
0.0 0.0 0.0 0.0 0.0 0.0 0.0 0.0 1.7 0.0 0.0 5.9 5.3 0.0 0.0 0.0 0.0 0.0 0.0 0.0 0.0 0.0 0.0 0.0 0.0 0.0 0.0 0.0 0.0 0.0 0.0 0.3 0.7 1.3 0.0 0.0 0.3 0.1 0.1 1.7 2.5 2.2 0.8 0.0
0.0 0.0 0.0 0.0 0.0 0.0 0.0 0.0 8.4 0.0 0.0 0.0 0.0 0.0 0.0 0.0 0.0 0.0 0.0 0.0 0.0 0.0 0.0 0.0 0.0 0.0 0.0 0.0 0.0 0.0 0.0 0.0 0.0 0.1 0.6 1.2 1.8 0.0 0.6 3.7 5.0 0.0 0.2 0.0
0.0 0.0 0.0 0.0 0.0 0.0 0.0 0.0 3.9 0.0 3.1 0.0 0.0 0.0 0.0 0.0 0.0 0.0 0.0 0.0 0.0 0.0 0.0 0.0 0.0 0.0 0.0 0.0 0.0 0.0 0.0 0.0 0.0 0.0 0.6 1.9 2.0 0.7 0.4 3.0 0.5 1.9 0.0 0.0
0.0 0.0 0.0 0.0 0.0 0.0 0.0 0.0 0.0 0.0 0.0 0.0 0.0 0.0 0.0 0.0 0.0 0.0 0.0 0.0 0.0 0.0 0.0 0.0 0.0 0.0 0.0 0.0 0.0 0.0 0.0 0.0 0.1 0.6 0.0 0.9 1.6 0.4 0.4 0.2 0.0 0.2 0.0 0.0
0.0 0.0 0.0 0.0 0.0 0.0 0.0 0.0 0.0 0.0 0.0 0.0 0.0 0.0 0.0 0.0 0.0 0.0 0.0 0.0 0.0 0.0 0.0 0.0 0.0 0.0 0.0 0.0 0.0 0.0 0.0 0.0 1.5 0.6 0.0 0.7 0.6 0.2 0.1 0.0 0.0 0.0 0.1 0.0
0.0 0.0 0.0 0.0 0.0 0.0 0.0 0.0 0.0 0.0 0.0 0.0 0.0 0.0 0.0 0.0 0.0 0.0 0.0 0.0 0.0 0.0 0.0 0.0 0.0 0.0 0.0 0.0 0.0 0.0 0.0 0.6 1.9 0.8 0.6 2.4 0.0 0.0 0.0 0.0 0.0 0.0 0.0 0.0
0.0 0.0 0.0 0.0 0.0 0.0 0.0 0.0 0.0 0.0 0.0 0.0 0.0 0.0 0.0 0.0 0.0 0.0 0.0 0.0 0.0 0.0 0.0 0.0 0.0 0.0 0.0 0.0 0.0 0.0 0.0 0.0 1.8 1.6 1.4 0.0 0.0 0.0 0.0 0.0 0.0 0.0 0.0 0.0
0.0 0.0 0.0 0.0 0.0 0.0 0.0 0.0 0.0 0.0 0.0 0.0 0.0 0.0 0.0 0.0 0.0 0.0 0.0 0.0 0.0 0.0 0.0 0.0 0.8 0.3 0.1 0.0 0.0 0.0 0.0 0.0 1.2 0.9 0.8 0.1 0.0 0.0 0.0 0.0 0.0 0.0 0.0 0.0
0.0 0.0 0.0 0.0 0.0 0.0 0.0 0.0 0.0 0.0 0.0 0.0 0.0 0.0 0.0 0.0 0.0 0.0 0.0 0.0 0.0 0.0 0.0 1.1 0.6 0.0 0.0 0.0 0.0 0.2 0.3 0.3 1.4 1.0 1.2 0.0 0.0 0.0 0.0 0.0 0.0 0.0 0.0 0.0
0.0 0.0 0.0 0.0 0.0 0.0 0.0 0.0 0.0 0.0 0.0 0.0 0.0 0.0 0.0 0.0 0.0 0.0 0.0 0.0 0.0 0.0 0.7 0.0 0.0 0.1 0.0 0.0 0.0 0.0 0.0 0.2 0.2 0.6 0.5 0.0 0.0 0.0 0.0 0.0 0.0 0.0 0.0 0.0
0.0 0.0 0.0 0.0 0.0 0.0 0.0 0.0 0.0 0.0 0.0 0.0 0.0 0.0 0.0 0.0 0.0 0.0 0.0 0.0 0.0 0.0 0.0 0.0 0.0 0.1 0.0 0.0 0.0 0.0 0.0 0.0 0.0 0.0 0.0 0.0 0.0 0.0 0.0 0.0 0.0 0.0 0.0 0.0
0.0 0.0 0.0 0.0 0.0 0.0 0.0 0.0 0.0 0.0 0.1 0.0 0.0 0.0 0.0 0.0 0.0 0.0 0.0 0.0 0.0 0.0 0.0 0.0 0.0 0.0 0.0 0.1 0.0 0.0 0.0 0.0 0.0 0.0 0.0 0.0 0.0 0.0 0.0 0.0 0.0 0.0 0.0 0.0
0.0 0.0 0.0 0.0 0.0 0.0 0.0 0.0 0.0 0.0 0.1 0.8 0.1 0.0 0.0 0.0 0.0 0.0 0.0 0.0 0.0 0.0 0.0 0.0 0.0 0.0 0.0 0.0 0.0 0.0 0.0 0.0 0.0 0.0 0.0 0.0 0.0 0.0 0.0 0.0 0.0 0.0 0.0 0.0
0.0 0.0 0.0 0.0 0.0 0.0 0.0 0.0 0.0 0.0 0.2 1.9 0.3 0.0 0.0 0.0 0.0 0.0 0.0 0.0 0.0 0.5 0.3 1.1 0.7 0.0 0.0 0.0 0.0 0.0 0.0 0.0 0.0 0.0 0.0 0.0 0.0 0.0 0.0 0.0 0.0 0.0 0.0 0.0
0.0 0.0 0.0 0.0 0.0 0.0 0.0 0.0 0.0 0.0 0.0 3.0 1.6 0.0 0.0 0.0 0.0 0.0 0.0 0.0 0.0 0.1 1.1 1.6 0.0 0.0 0.0 0.6 0.0 0.0 0.0 0.0 0.0 0.0 0.0 0.0 0.0 0.0 0.0 0.0 0.0 0.0 0.0 0.0
0.0 0.0 0.0 0.0 0.0 0.0 0.2 0.0 0.0 0.0 0.0 1.5 3.8 4.0 0.0 0.0 0.0 0.0 0.0 0.0 0.0 2.0 3.2 1.5 0.0 0.0 1.6 1.3 0.3 0.0 0.0 0.0 0.0 0.0 0.0 0.0 0.0 0.0 0.0 0.0 0.0 0.0 0.0 0.0
0.0 0.0 0.0 0.0 0.0 0.0 0.0 0.0 0.0 0.0 0.0 4.3 8.6 7.1 2.9 0.0 0.4 0.0 0.0 0.0 0.0 0.5 1.4 0.0 0.0 0.0 2.2 1.4 0.0 0.0 0.0 0.0 0.0 0.0 0.0 0.0 0.0 0.0 0.0 0.0 0.0 0.0 0.0 0.0
0.0 0.0 0.0 0.0 0.0 0.0 0.0 0.0 0.0 0.0 0.0 7.3 6.7 6.7 5.1 0.0 0.0 0.0 0.2 0.0 4.5 0.0 1.6 0.0 0.4 1.2 2.8 0.0 0.1 0.1 0.0 0.1 0.0 0.0 0.0 0.0 0.0 0.0 0.0 0.0 0.0 0.0 0.0 0.0
0.0 0.0 0.0 0.9 0.0 0.0 0.0 0.0 0.7 4.5 3.5 3.8 5.1 4.8 5.9 3.0 4.7 1.7 1.7 1.9 3.0 3.7 0.0 0.0 1.2 0.0 0.0 0.0 0.0 0.1 0.1 0.0 0.1 0.0 3.0 1.6 1.0 0.0 0.0 0.0 0.0 0.0 0.0 0.0
0.0 0.0 0.0 0.0 0.0 0.0 0.0 5.6 6.7 3.8 2.4 2.3 3.3 4.5 3.7 0.0 5.0 3.5 0.3 5.7 2.5 4.1 4.9 1.1 2.2 1.6 1.2 0.0 0.1 0.0 0.0 0.1 0.0 0.0 0.0 0.5 2.1 2.0 0.6 0.4 0.2 0.0 0.0 0.0
0.0 0.0 0.0 0.0 0.8 3.8 4.9 5.8 3.9 1.3 1.0 1.6 2.9 1.5 1.0 1.0 0.0 2.1 1.9 3.7 3.3 3.7 5.2 3.8 2.7 1.0 0.2 1.1 1.0 0.7 0.1 0.0 0.1 0.0 0.0 0.3 0.0 1.0 1.3 0.9 1.2 1.4 1.6 1.6
0.0 0.0 0.9 0.6 1.1 2.2 3.3 2.9 2.5 0.5 0.7 0.9 0.9 1.1 0.0 0.0 0.1 0.6 1.6 1.6 0.7 1.2 3.7 3.9 1.7 0.3 0.2 0.0 0.2 0.5 2.2 2.7 1.5 1.0 0.8 0.8 0.8 0.5 0.9 0.8 0.5 0.7 0.4 0.7
0.0 3.7 2.3 0.7 0.8 1.2 1.2 1.1 1.1 0.2 0.1 0.0 0.0 0.6 1.3 0.2 1.2 1.2 1.5 0.1 0.6 2.4 1.6 1.5 0.2 0.2 0.0 0.0 0.0 0.0 0.0 1.1 1.8 2.8 2.3 1.8 2.1 1.3 1.5 0.9 0.3 0.0 0.0 0.0
6.1 4.7 1.3 0.0 0.0 0.2 0.1 0.0 0.2 0.0 0.0 0.1 0.0 0.0 0.1 1.0 1.3 0.3 1.0 1.0 2.7 3.2 2.0 1.4 0.7 0.2 0.0 0.1 0.1 0.0 0.0 0.0 0.0 0.3 0.7 2.1 1.9 2.2 1.4 0.7 0.6 0.1 0.0 0.1
7.8 5.3 0.6 0.0 0.0 0.0 0.0 0.0 0.0 0.0 0.0 0.3 0.4 0.6 1.0 0.5 1.7 1.2 0.3 1.1 2.0 2.5 1.3 0.0 0.0 0.0 0.0 0.1 0.0 0.1 0.0 0.0 0.0 0.0 0.0 0.5 0.5 1.1 1.0 0.2 0.5 0.4 0.0 0.6
9.2 2.3 0.0 0.0 0.0 0.0 0.0 0.0 0.0 0.0 0.2 1.6 2.4 3.1 0.1 0.7 1.3 0.4 0.1 0.2 0.3 0.3 0.0 0.0 0.0 0.0 0.0 0.4 0.0 0.0 0.1 0.0 0.0 0.2 0.2 0.8 0.4 1.4 1.8 1.1 0.4 0.5 0.7 0.8

GFSNW_prec_snow_114.txt.gz
Snowfall_Accumulation
0.0 0.0 0.0 0.0 0.0 0.0 0.0 0.0 11.3 0.0 0.0 4.1 7.4 10.0 3.3 0.0 0.0 0.0 0.0 0.0 0.0 0.0 0.0 0.0 0.0 0.0 0.0 0.0 0.0 0.0 0.0 0.1 0.4 1.0 0.0 0.0 0.0 0.0 0.0 2.1 0.4 1.2 0.4 0.0
0.0 0.0 0.0 0.0 0.0 0.0 0.0 0.0 1.7 0.0 0.0 5.9 5.3 0.0 0.0 0.0 0.0 0.0 0.0 0.0 0.0 0.0 0.0 0.0 0.0 0.0 0.0 0.0 0.0 0.0 0.0 0.3 0.7 1.3 0.0 0.0 0.3 0.1 0.1 1.7 2.5 2.2 0.8 0.0
0.0 0.0 0.0 0.0 0.0 0.0 0.0 0.0 8.4 0.0 0.0 0.0 0.0 0.0 0.0 0.0 0.0 0.0 0.0 0.0 0.0 0.0 0.0 0.0 0.0 0.0 0.0 0.0 0.0 0.0 0.0 0.0 0.0 0.1 0.6 1.2 1.8 0.0 0.6 3.7 5.0 0.0 0.2 0.0
0.0 0.0 0.0 0.0 0.0 0.0 0.0 0.0 3.9 0.0 3.1 0.0 0.0 0.0 0.0 0.0 0.0 0.0 0.0 0.0 0.0 0.0 0.0 0.0 0.0 0.0 0.0 0.0 0.0 0.0 0.0 0.0 0.0 0.0 0.6 1.9 2.0 0.7 0.4 3.0 0.5 1.9 0.0 0.0
0.0 0.0 0.0 0.0 0.0 0.0 0.0 0.0 0.0 0.0 0.0 0.0 0.0 0.0 0.0 0.0 0.0 0.0 0.0 0.0 0.0 0.0 0.0 0.0 0.0 0.0 0.0 0.0 0.0 0.0 0.0 0.0 0.1 0.6 0.0 0.9 1.6 0.4 0.4 0.2 0.0 0.2 0.0 0.0
0.0 0.0 0.0 0.0 0.0 0.0 0.0 0.0 0.0 0.0 0.0 0.0 0.0 0.0 0.0 0.0 0.0 0.0 0.0 0.0 0.0 0.0 0.0 0.0 0.0 0.0 0.0 0.0 0.0 0.0 0.0 0.0 1.5 0.6 0.0 0.7 0.6 0.2 0.1 0.0 0.0 0.0 0.1 0.0
0.0 0.0 0.0 0.0 0.0 0.0 0.0 0.0 0.0 0.0 0.0 0.0 0.0 0.0 0.0 0.0 0.0 0.0 0.0 0.0 0.0 0.0 0.0 0.0 0.0 0.0 0.0 0.0 0.0 0.0 0.0 0.6 1.9 0.8 0.6 2.4 0.0 0.0 0.0 0.0 0.0 0.0 0.0 0.0
0.0 0.0 0.0 0.0 0.0 0.0 0.0 0.0 0.0 0.0 0.0 0.0 0.0 0.0 0.0 0.0 0.0 0.0 0.0 0.0 0.0 0.0 0.0 0.0 0.0 0.0 0.0 0.0 0.0 0.0 0.0 0.0 1.8 1.6 1.4 0.0 0.0 0.0 0.0 0.0 0.0 0.0 0.0 0.0
0.0 0.0 0.0 0.0 0.0 0.0 0.0 0.0 0.0 0.0 0.0 0.0 0.0 0.0 0.0 0.0 0.0 0.0 0.0 0.0 0.0 0.0 0.0 0.0 0.8 0.3 0.1 0.0 0.0 0.0 0.0 0.0 1.2 0.9 0.8 0.1 0.0 0.0 0.0 0.0 0.0 0.0 0.0 0.0
0.0 0.0 0.0 0.0 0.0 0.0 0.0 0.0 0.0 0.0 0.0 0.0 0.0 0.0 0.0 0.0 0.0 0.0 0.0 0.0 0.0 0.0 0.0 1.1 0.6 0.0 0.0 0.0 0.0 0.2 0.3 0.3 1.4 1.0 1.2 0.0 0.0 0.0 0.0 0.0 0.0 0.0 0.0 0.0
0.0 0.0 0.0 0.0 0.0 0.0 0.0 0.0 0.0 0.0 0.0 0.0 0.0 0.0 0.0 0.0 0.0 0.0 0.0 0.0 0.0 0.0 0.7 0.0 0.0 0.1 0.0 0.0 0.0 0.0 0.0 0.2 0.2 0.6 0.5 0.0 0.0 0.0 0.0 0.0 0.0 0.0 0.0 0.0
0.0 0.0 0.0 0.0 0.0 0.0 0.0 0.0 0.0 0.0 0.0 0.0 0.0 0.0 0.0 0.0 0.0 0.0 0.0 0.0 0.0 0.0 0.0 0.0 0.0 0.1 0.0 0.0 0.0 0.0 0.0 0.0 0.0 0.0 0.0 0.0 0.0 0.0 0.0 0.0 0.0 0.0 0.0 0.0
0.0 0.0 0.0 0.0 0.0 0.0 0.0 0.0 0.0 0.0 0.1 0.0 0.0 0.0 0.0 0.0 0.0 0.0 0.0 0.0 0.0 0.0 0.0 0.0 0.0 0.0 0.0 0.1 0.0 0.0 0.0 0.0 0.0 0.0 0.0 0.0 0.0 0.0 0.0 0.0 0.0 0.0 0.0 0.0
0.0 0.0 0.0 0.0 0.0 0.0 0.0 0.0 0.0 0.0 0.1 0.8 0.1 0.0 0.0 0.0 0.0 0.0 0.0 0.0 0.0 0.0 0.0 0.0 0.0 0.0 0.0 0.0 0.0 0.0 0.0 0.0 0.0 0.0 0.0 0.0 0.0 0.0 0.0 0.0 0.0 0.0 0.0 0.0
0.0 0.0 0.0 0.0 0.0 0.0 0.0 0.0 0.0 0.0 0.2 1.9 0.3 0.0 0.0 0.0 0.0 0.0 0.0 0.0 0.0 0.5 0.3 1.1 0.7 0.0 0.0 0.0 0.0 0.0 0.0 0.0 0.0 0.0 0.0 0.0 0.0 0.0 0.0 0.0 0.0 0.0 0.0 0.0
0.0 0.0 0.0 0.0 0.0 0.0 0.0 0.0 0.0 0.0 0.0 3.0 1.6 0.0 0.0 0.0 0.0 0.0 0.0 0.0 0.0 0.1 1.1 1.6 0.0 0.0 0.0 0.6 0.0 0.0 0.0 0.0 0.0 0.0 0.0 0.0 0.0 0.0 0.0 0.0 0.0 0.0 0.0 0.0
0.0 0.0 0.0 0.0 0.0 0.0 0.2 0.0 0.0 0.0 0.0 1.5 3.8 4.0 0.0 0.0 0.0 0.0 0.0 0.0 0.0 2.0 3.2 1.5 0.0 0.0 1.6 1.3 0.3 0.0 0.0 0.0 0.0 0.0 0.0 0.0 0.0 0.0 0.0 0.0 0.0 0.0 0.0 0.0
0.0 0.0 0.0 0.0 0.0 0.0 0.0 0.0 0.0 0.0 0.0 4.3 8.6 7.1 2.9 0.0 0.4 0.0 0.0 0.0 0.0 0.5 1.4 0.0 0.0 0.0 2.2 1.4 0.0 0.0 0.0 0.0 0.0 0.0 0.0 0.0 0.0 0.0 0.0 0.0 0.0 0.0 0.0 0.0
0.0 0.0 0.0 0.0 0.0 0.0 0.0 0.0 0.0 0.0 0.0 7.3 6.7 6.7 5.1 0.0 0.0 0.0 0.2 0.0 4.5 0.0 1.6 0.0 0.4 1.2 2.8 0.0 0.1 0.1 0.0 0.1 0.0 0.0 0.0 0.0 0.0 0.0 0.0 0.0 0.0 0.0 0.0 0.0
0.0 0.0 0.0 0.9 0.0 0.0 0.0 0.0 0.7 4.5 3.5 3.8 5.1 4.8 5.9 3.0 4.7 1.7 1.7 1.9 3.0 3.7 0.0 0.0 1.2 0.0 0.0 0.0 0.0 0.1 0.1 0.0 0.1 0.0 3.0 1.6 1.0 0.0 0.0 0.0 0.0 0.0 0.0 0.0
0.0 0.0 0.0 0.0 0.0 0.0 0.0 5.6 6.7 3.8 2.4 2.3 3.3 4.5 3.7 0.0 5.0 3.5 0.3 5.7 2.5 4.1 4.9 1.1 2.2 1.6 1.2 0.0 0.1 0.0 0.0 0.1 0.0 0.0 0.0 0.5 2.1 2.0 0.6 0.4 0.2 0.0 0.0 0.0
0.0 0.0 0.0 0.0 0.8 3.8 4.9 5.8 3.9 1.3 1.0 1.6 2.9 1.5 1.0 1.0 0.0 2.1 1.9 3.7 3.3 3.7 5.2 3.8 2.7 1.0 0.2 1.1 1.0 0.7 0.1 0.0 0.1 0.0 0.0 0.3 0.0 1.0 1.3 0.9 1.2 1.4 1.6 1.6
0.0 0.0 0.9 0.6 1.1 2.2 3.3 2.9 2.5 0.5 0.7 0.9 0.9 1.1 0.0 0.0 0.1 0.6 1.6 1.6 0.7 1.2 3.7 3.9 1.7 0.3 0.2 0.0 0.2 0.5 2.2 2.7 1.5 1.0 0.8 0.8 0.8 0.5 0.9 0.8 0.5 0.7 0.4 0.7
0.0 3.7 2.3 0.7 0.8 1.2 1.2 1.1 1.1 0.2 0.1 0.0 0.0 0.6 1.3 0.2 1.2 1.2 1.5 0.1 0.6 2.4 1.6 1.5 0.2 0.2 0.0 0.0 0.0 0.0 0.0 1.1 1.8 2.8 2.3 1.8 2.1 1.3 1.5 0.9 0.3 0.0 0.0 0.0
6.1 4.7 1.3 0.0 0.0 0.2 0.1 0.0 0.2 0.0 0.0 0.1 0.0 0.0 0.1 1.0 1.3 0.3 1.0 1.0 2.7 3.2 2.0 1.4 0.7 0.2 0.0 0.1 0.1 0.0 0.0 0.0 0.0 0.3 0.7 2.1 1.9 2.2 1.4 0.7 0.6 0.1 0.0 0.1
7.8 5.3 0.6 0.0 0.0 0.0 0.0 0.0 0.0 0.0 0.0 0.3 0.4 0.6 1.0 0.5 1.7 1.2 0.3 1.2 2.0 2.5 1.3 0.0 0.0 0.0 0.0 0.1 0.0 0.1 0.0 0.0 0.0 0.0 0.0 0.5 0.5 1.1 1.0 0.2 0.5 0.4 0.0 0.6
9.2 2.3 0.0 0.0 0.0 0.0 0.0 0.0 0.0 0.0 0.2 1.6 2.4 3.1 0.1 0.7 1.3 0.5 0.1 0.2 0.3 0.3 0.0 0.0 0.0 0.0 0.0 0.4 0.0 0.0 0.1 0.0 0.0 0.2 0.2 0.8 0.4 1.4 1.8 1.1 0.4 0.5 0.7 0.8

GFSNW_prec_snow_117.txt.gz
Snowfall_Accumulation
0.0 0.0 0.0 0.0 0.0 0.0 0.0 0.0 11.3 0.0 0.0 4.1 7.4 10.0 3.3 0.0 0.0 0.0 0.0 0.0 0.0 0.0 0.0 0.0 0.0 0.0 0.0 0.0 0.0 0.0 0.0 0.1 0.4 1.0 0.0 0.0 0.0 0.0 0.0 2.1 0.4 1.2 0.4 0.0
0.0 0.0 0.0 0.0 0.0 0.0 0.0 0.0 1.7 0.0 0.0 5.9 5.3 0.0 0.0 0.0 0.0 0.0 0.0 0.0 0.0 0.0 0.0 0.0 0.0 0.0 0.0 0.0 0.0 0.0 0.0 0.3 0.7 1.3 0.0 0.0 0.3 0.1 0.1 1.7 2.5 2.2 0.8 0.0
0.0 0.0 0.0 0.0 0.0 0.0 0.0 0.0 8.4 0.0 0.0 0.0 0.0 0.0 0.0 0.0 0.0 0.0 0.0 0.0 0.0 0.0 0.0 0.0 0.0 0.0 0.0 0.0 0.0 0.0 0.0 0.0 0.0 0.1 0.6 1.2 1.8 0.0 0.6 3.7 5.0 0.0 0.2 0.0
0.0 0.0 0.0 0.0 0.0 0.0 0.0 0.0 3.9 0.0 3.1 0.0 0.0 0.0 0.0 0.0 0.0 0.0 0.0 0.0 0.0 0.0 0.0 0.0 0.0 0.0 0.0 0.0 0.0 0.0 0.0 0.0 0.0 0.0 0.6 1.9 2.0 0.7 0.4 3.0 0.5 1.9 0.0 0.0
0.0 0.0 0.0 0.0 0.0 0.0 0.0 0.0 0.0 0.0 0.0 0.0 0.0 0.0 0.0 0.0 0.0 0.0 0.0 0.0 0.0 0.0 0.0 0.0 0.0 0.0 0.0 0.0 0.0 0.0 0.0 0.0 0.1 0.6 0.0 0.9 1.6 0.4 0.4 0.2 0.0 0.2 0.0 0.0
0.0 0.0 0.0 0.0 0.0 0.0 0.0 0.0 0.0 0.0 0.0 0.0 0.0 0.0 0.0 0.0 0.0 0.0 0.0 0.0 0.0 0.0 0.0 0.0 0.0 0.0 0.0 0.0 0.0 0.0 0.0 0.0 1.5 0.6 0.0 0.7 0.6 0.2 0.1 0.0 0.0 0.0 0.1 0.0
0.0 0.0 0.0 0.0 0.0 0.0 0.0 0.0 0.0 0.0 0.0 0.0 0.0 0.0 0.0 0.0 0.0 0.0 0.0 0.0 0.0 0.0 0.0 0.0 0.0 0.0 0.0 0.0 0.0 0.0 0.0 0.6 1.9 0.8 0.6 2.4 0.0 0.0 0.0 0.0 0.0 0.0 0.0 0.0
0.0 0.0 0.0 0.0 0.0 0.0 0.0 0.0 0.0 0.0 0.0 0.0 0.0 0.0 0.0 0.0 0.0 0.0 0.0 0.0 0.0 0.0 0.0 0.0 0.0 0.0 0.0 0.0 0.0 0.0 0.0 0.0 1.8 1.6 1.4 0.0 0.0 0.0 0.0 0.0 0.0 0.0 0.0 0.0
0.0 0.0 0.0 0.0 0.0 0.0 0.0 0.0 0.0 0.0 0.0 0.0 0.0 0.0 0.0 0.0 0.0 0.0 0.0 0.0 0.0 0.0 0.0 0.0 0.8 0.3 0.1 0.0 0.0 0.0 0.0 0.0 1.2 0.9 0.8 0.1 0.0 0.0 0.0 0.0 0.0 0.0 0.0 0.0
0.0 0.0 0.0 0.0 0.0 0.0 0.0 0.0 0.0 0.0 0.0 0.0 0.0 0.0 0.0 0.0 0.0 0.0 0.0 0.0 0.0 0.0 0.0 1.1 0.6 0.0 0.0 0.0 0.0 0.2 0.3 0.3 1.4 1.0 1.2 0.0 0.0 0.0 0.0 0.0 0.0 0.0 0.0 0.0
0.0 0.0 0.0 0.0 0.0 0.0 0.0 0.0 0.0 0.0 0.0 0.0 0.0 0.0 0.0 0.0 0.0 0.0 0.0 0.0 0.0 0.0 0.7 0.0 0.0 0.1 0.0 0.0 0.0 0.0 0.0 0.2 0.2 0.6 0.5 0.0 0.0 0.0 0.0 0.0 0.0 0.0 0.0 0.0
0.0 0.0 0.0 0.0 0.0 0.0 0.0 0.0 0.0 0.0 0.0 0.0 0.0 0.0 0.0 0.0 0.0 0.0 0.0 0.0 0.0 0.0 0.0 0.0 0.0 0.1 0.0 0.0 0.0 0.0 0.0 0.0 0.0 0.0 0.0 0.0 0.0 0.0 0.0 0.0 0.0 0.0 0.0 0.0
0.0 0.0 0.0 0.0 0.0 0.0 0.0 0.0 0.0 0.0 0.1 0.0 0.0 0.0 0.0 0.0 0.0 0.0 0.0 0.0 0.0 0.0 0.0 0.0 0.0 0.0 0.0 0.1 0.0 0.0 0.0 0.0 0.0 0.0 0.0 0.0 0.0 0.0 0.0 0.0 0.0 0.0 0.0 0.0
0.0 0.0 0.0 0.0 0.0 0.0 0.0 0.0 0.0 0.0 0.1 0.8 0.1 0.0 0.0 0.0 0.0 0.0 0.0 0.0 0.0 0.0 0.0 0.0 0.0 0.0 0.0 0.0 0.0 0.0 0.0 0.0 0.0 0.0 0.0 0.0 0.0 0.0 0.0 0.0 0.0 0.0 0.0 0.0
0.0 0.0 0.0 0.0 0.0 0.0 0.0 0.0 0.0 0.0 0.2 1.9 0.3 0.0 0.0 0.0 0.0 0.0 0.0 0.0 0.0 0.5 0.3 1.1 0.7 0.0 0.0 0.0 0.0 0.0 0.0 0.0 0.0 0.0 0.0 0.0 0.0 0.0 0.0 0.0 0.0 0.0 0.0 0.0
0.0 0.0 0.0 0.0 0.0 0.0 0.0 0.0 0.0 0.0 0.0 3.0 1.6 0.0 0.0 0.0 0.0 0.0 0.0 0.0 0.0 0.1 1.1 1.6 0.0 0.0 0.0 0.6 0.0 0.0 0.0 0.0 0.0 0.0 0.0 0.0 0.0 0.0 0.0 0.0 0.0 0.0 0.0 0.0
0.0 0.0 0.0 0.0 0.0 0.0 0.2 0.0 0.0 0.0 0.0 1.5 3.8 4.0 0.0 0.0 0.0 0.0 0.0 0.0 0.0 2.0 3.2 1.5 0.0 0.0 1.6 1.3 0.3 0.0 0.0 0.0 0.0 0.0 0.0 0.0 0.0 0.0 0.0 0.0 0.0 0.0 0.0 0.0
0.0 0.0 0.0 0.0 0.0 0.0 0.0 0.0 0.0 0.0 0.0 4.3 8.6 7.1 2.9 0.0 0.4 0.0 0.0 0.0 0.0 0.5 1.4 0.0 0.0 0.0 2.2 1.4 0.0 0.0 0.0 0.0 0.0 0.0 0.0 0.0 0.0 0.0 0.0 0.0 0.0 0.0 0.0 0.0
0.0 0.0 0.0 0.0 0.0 0.0 0.0 0.0 0.0 0.0 0.0 7.3 6.7 6.7 5.1 0.0 0.0 0.0 0.2 0.0 4.5 0.0 1.6 0.0 0.4 1.2 2.8 0.0 0.1 0.1 0.0 0.1 0.0 0.0 0.0 0.0 0.0 0.0 0.0 0.0 0.0 0.0 0.0 0.0
0.0 0.0 0.0 0.9 0.0 0.0 0.0 0.0 0.7 4.5 3.5 3.8 5.1 4.8 5.9 3.0 4.7 1.7 1.7 1.9 3.0 3.7 0.0 0.0 1.2 0.0 0.0 0.0 0.0 0.1 0.1 0.0 0.1 0.0 3.0 1.6 1.0 0.0 0.0 0.0 0.0 0.0 0.0 0.0
0.0 0.0 0.0 0.0 0.0 0.0 0.0 5.6 6.7 3.8 2.4 2.3 3.3 4.5 3.7 0.0 5.0 3.5 0.3 5.7 2.5 4.1 4.9 1.1 2.2 1.6 1.2 0.0 0.1 0.0 0.0 0.1 0.0 0.0 0.0 0.5 2.1 2.0 0.6 0.4 0.2 0.0 0.0 0.0
0.0 0.0 0.0 0.0 0.8 3.8 4.9 5.8 3.9 1.3 1.0 1.6 2.9 1.5 1.0 1.0 0.0 2.1 1.9 3.7 3.3 3.7 5.2 3.8 2.7 1.0 0.2 1.1 1.0 0.7 0.1 0.0 0.1 0.0 0.0 0.3 0.0 1.0 1.3 0.9 1.2 1.4 1.6 1.6
0.0 0.0 0.9 0.6 1.1 2.2 3.3 2.9 2.5 0.5 0.7 0.9 0.9 1.1 0.0 0.0 0.1 0.6 1.6 1.6 0.7 1.2 3.7 3.9 1.7 0.3 0.2 0.0 0.2 0.5 2.2 2.7 1.5 1.0 0.8 0.8 0.8 0.5 0.9 0.8 0.5 0.7 0.4 0.7
0.0 3.7 2.3 0.7 0.8 1.2 1.2 1.1 1.1 0.2 0.1 0.0 0.0 0.6 1.3 0.2 1.2 1.2 1.5 0.1 0.6 2.4 1.6 1.5 0.2 0.2 0.0 0.0 0.0 0.0 0.0 1.1 1.8 2.8 2.3 1.8 2.1 1.3 1.5 0.9 0.3 0.0 0.0 0.0
6.1 4.7 1.3 0.0 0.0 0.2 0.1 0.0 0.2 0.0 0.0 0.1 0.0 0.0 0.1 1.0 1.3 0.3 1.0 1.0 2.7 3.2 2.0 1.4 0.7 0.2 0.0 0.1 0.1 0.0 0.0 0.0 0.0 0.3 0.7 2.1 1.9 2.2 1.4 0.7 0.6 0.1 0.0 0.1
7.8 5.3 0.6 0.0 0.0 0.0 0.0 0.0 0.0 0.0 0.0 0.3 0.4 0.6 1.0 0.5 1.7 1.3 0.3 1.2 2.0 2.5 1.3 0.0 0.0 0.0 0.0 0.1 0.0 0.1 0.0 0.0 0.0 0.0 0.0 0.5 0.5 1.1 1.0 0.2 0.5 0.4 0.0 0.6
9.2 2.3 0.0 0.0 0.0 0.0 0.0 0.0 0.0 0.0 0.2 1.6 2.4 3.1 0.1 0.7 1.3 0.5 0.1 0.2 0.3 0.3 0.0 0.0 0.0 0.0 0.0 0.4 0.0 0.0 0.1 0.0 0.0 0.2 0.2 0.8 0.4 1.4 1.8 1.1 0.4 0.5 0.7 0.8

GFSNW_prec_snow_120.txt.gz
Snowfall_Accumulation
0.0 0.0 0.0 0.0 0.0 0.0 0.0 0.0 11.3 0.0 0.0 4.1 7.4 10.0 3.3 0.0 0.0 0.0 0.0 0.0 0.0 0.0 0.0 0.0 0.0 0.0 0.0 0.0 0.0 0.0 0.0 0.1 0.4 1.0 0.0 0.0 0.0 0.0 0.0 2.1 0.4 1.2 0.4 0.0
0.0 0.0 0.0 0.0 0.0 0.0 0.0 0.0 1.7 0.0 0.0 5.9 5.3 0.0 0.0 0.0 0.0 0.0 0.0 0.0 0.0 0.0 0.0 0.0 0.0 0.0 0.0 0.0 0.0 0.0 0.0 0.3 0.7 1.3 0.0 0.0 0.3 0.1 0.1 1.7 2.5 2.2 0.8 0.0
0.0 0.0 0.0 0.0 0.0 0.0 0.0 0.0 8.4 0.0 0.0 0.0 0.0 0.0 0.0 0.0 0.0 0.0 0.0 0.0 0.0 0.0 0.0 0.0 0.0 0.0 0.0 0.0 0.0 0.0 0.0 0.0 0.0 0.1 0.6 1.2 1.8 0.0 0.6 3.7 5.0 0.0 0.2 0.0
0.0 0.0 0.0 0.0 0.0 0.0 0.0 0.0 3.9 0.0 3.1 0.0 0.0 0.0 0.0 0.0 0.0 0.0 0.0 0.0 0.0 0.0 0.0 0.0 0.0 0.0 0.0 0.0 0.0 0.0 0.0 0.0 0.0 0.0 0.6 1.9 2.0 0.7 0.4 3.0 0.5 1.9 0.0 0.0
0.0 0.0 0.0 0.0 0.0 0.0 0.0 0.0 0.0 0.0 0.0 0.0 0.0 0.0 0.0 0.0 0.0 0.0 0.0 0.0 0.0 0.0 0.0 0.0 0.0 0.0 0.0 0.0 0.0 0.0 0.0 0.0 0.1 0.6 0.0 0.9 1.6 0.4 0.4 0.2 0.0 0.2 0.0 0.0
0.0 0.0 0.0 0.0 0.0 0.0 0.0 0.0 0.0 0.0 0.0 0.0 0.0 0.0 0.0 0.0 0.0 0.0 0.0 0.0 0.0 0.0 0.0 0.0 0.0 0.0 0.0 0.0 0.0 0.0 0.0 0.0 1.5 0.6 0.0 0.7 0.6 0.2 0.1 0.0 0.0 0.0 0.1 0.0
0.0 0.0 0.0 0.0 0.0 0.0 0.0 0.0 0.0 0.0 0.0 0.0 0.0 0.0 0.0 0.0 0.0 0.0 0.0 0.0 0.0 0.0 0.0 0.0 0.0 0.0 0.0 0.0 0.0 0.0 0.0 0.6 1.9 0.8 0.6 2.4 0.0 0.0 0.0 0.0 0.0 0.0 0.0 0.0
0.0 0.0 0.0 0.0 0.0 0.0 0.0 0.0 0.0 0.0 0.0 0.0 0.0 0.0 0.0 0.0 0.0 0.0 0.0 0.0 0.0 0.0 0.0 0.0 0.0 0.0 0.0 0.0 0.0 0.0 0.0 0.0 1.8 1.6 1.4 0.0 0.0 0.0 0.0 0.0 0.0 0.0 0.0 0.0
0.0 0.0 0.0 0.0 0.0 0.0 0.0 0.0 0.0 0.0 0.0 0.0 0.0 0.0 0.0 0.0 0.0 0.0 0.0 0.0 0.0 0.0 0.0 0.0 0.8 0.3 0.1 0.0 0.0 0.0 0.0 0.0 1.2 0.9 0.8 0.1 0.0 0.0 0.0 0.0 0.0 0.0 0.0 0.0
0.0 0.0 0.0 0.0 0.0 0.0 0.0 0.0 0.0 0.0 0.0 0.0 0.0 0.0 0.0 0.0 0.0 0.0 0.0 0.0 0.0 0.0 0.0 1.1 0.6 0.0 0.0 0.0 0.0 0.2 0.3 0.3 1.4 1.0 1.2 0.0 0.0 0.0 0.0 0.0 0.0 0.0 0.0 0.0
0.0 0.0 0.0 0.0 0.0 0.0 0.0 0.0 0.0 0.0 0.0 0.0 0.0 0.0 0.0 0.0 0.0 0.0 0.0 0.0 0.0 0.0 0.7 0.0 0.0 0.1 0.0 0.0 0.0 0.0 0.0 0.2 0.2 0.6 0.5 0.0 0.0 0.0 0.0 0.0 0.0 0.0 0.0 0.0
0.0 0.0 0.0 0.0 0.0 0.0 0.0 0.0 0.0 0.0 0.0 0.0 0.0 0.0 0.0 0.0 0.0 0.0 0.0 0.0 0.0 0.0 0.0 0.0 0.0 0.1 0.0 0.0 0.0 0.0 0.0 0.0 0.0 0.0 0.0 0.0 0.0 0.0 0.0 0.0 0.0 0.0 0.0 0.0
0.0 0.0 0.0 0.0 0.0 0.0 0.0 0.0 0.0 0.0 0.1 0.0 0.0 0.0 0.0 0.0 0.0 0.0 0.0 0.0 0.0 0.0 0.0 0.0 0.0 0.0 0.0 0.1 0.0 0.0 0.0 0.0 0.0 0.0 0.0 0.0 0.0 0.0 0.0 0.0 0.0 0.0 0.0 0.0
0.0 0.0 0.0 0.0 0.0 0.0 0.0 0.0 0.0 0.0 0.1 0.8 0.1 0.0 0.0 0.0 0.0 0.0 0.0 0.0 0.0 0.0 0.0 0.0 0.0 0.0 0.0 0.0 0.0 0.0 0.0 0.0 0.0 0.0 0.0 0.0 0.0 0.0 0.0 0.0 0.0 0.0 0.0 0.0
0.0 0.0 0.0 0.0 0.0 0.0 0.0 0.0 0.0 0.0 0.2 1.9 0.3 0.0 0.0 0.0 0.0 0.0 0.0 0.0 0.0 0.5 0.3 1.1 0.7 0.0 0.0 0.0 0.0 0.0 0.0 0.0 0.0 0.0 0.0 0.0 0.0 0.0 0.0 0.0 0.0 0.0 0.0 0.0
0.0 0.0 0.0 0.0 0.0 0.0 0.0 0.0 0.0 0.0 0.0 3.0 1.6 0.0 0.0 0.0 0.0 0.0 0.0 0.0 0.0 0.1 1.1 1.6 0.0 0.0 0.0 0.6 0.0 0.0 0.0 0.0 0.0 0.0 0.0 0.0 0.0 0.0 0.0 0.0 0.0 0.0 0.0 0.0
0.0 0.0 0.0 0.0 0.0 0.0 0.2 0.0 0.0 0.0 0.0 1.5 3.8 4.0 0.0 0.0 0.0 0.0 0.0 0.0 0.0 2.0 3.2 1.5 0.0 0.0 1.6 1.3 0.3 0.0 0.0 0.0 0.0 0.0 0.0 0.0 0.0 0.0 0.0 0.0 0.0 0.0 0.0 0.0
0.0 0.0 0.0 0.0 0.0 0.0 0.0 0.0 0.0 0.0 0.0 4.3 8.6 7.1 2.9 0.0 0.4 0.0 0.0 0.0 0.0 0.5 1.4 0.0 0.0 0.0 2.2 1.4 0.0 0.0 0.0 0.0 0.0 0.0 0.0 0.0 0.0 0.0 0.0 0.0 0.0 0.0 0.0 0.0
0.0 0.0 0.0 0.0 0.0 0.0 0.0 0.0 0.0 0.0 0.0 7.3 6.7 6.7 5.1 0.0 0.0 0.0 0.2 0.0 4.5 0.0 1.6 0.0 0.4 1.2 2.8 0.0 0.1 0.1 0.0 0.1 0.0 0.0 0.0 0.0 0.0 0.0 0.0 0.0 0.0 0.0 0.0 0.0
0.0 0.0 0.0 0.9 0.0 0.0 0.0 0.0 0.7 4.5 3.5 3.8 5.1 4.8 5.9 3.0 4.7 1.7 1.7 1.9 3.0 3.7 0.0 0.0 1.2 0.0 0.0 0.0 0.0 0.1 0.1 0.0 0.1 0.0 3.0 1.6 1.0 0.0 0.0 0.0 0.0 0.0 0.0 0.0
0.0 0.0 0.0 0.0 0.0 0.0 0.0 5.6 6.7 3.8 2.4 2.3 3.3 4.5 3.7 0.0 5.0 3.5 0.3 5.7 2.5 4.1 4.9 1.1 2.2 1.6 1.2 0.0 0.1 0.0 0.0 0.1 0.0 0.0 0.0 0.5 2.1 2.0 0.6 0.4 0.2 0.0 0.0 0.0
0.0 0.0 0.0 0.0 0.8 3.8 4.9 5.8 3.9 1.3 1.0 1.6 2.9 1.5 1.0 1.0 0.0 2.1 1.9 3.7 3.3 3.7 5.2 3.8 2.7 1.0 0.2 1.1 1.0 0.7 0.1 0.0 0.1 0.0 0.0 0.3 0.0 1.0 1.3 0.9 1.2 1.4 1.6 1.6
0.0 0.0 0.9 0.6 1.1 2.2 3.3 2.9 2.5 0.5 0.7 0.9 0.9 1.1 0.0 0.0 0.1 0.6 1.6 1.6 0.7 1.2 3.7 3.9 1.7 0.3 0.2 0.0 0.2 0.5 2.2 2.7 1.5 1.0 0.8 0.8 0.8 0.5 0.9 0.8 0.5 0.7 0.4 0.7
0.0 3.7 2.3 0.7 0.8 1.2 1.2 1.1 1.1 0.2 0.1 0.0 0.0 0.6 1.3 0.2 1.2 1.2 1.5 0.1 0.6 2.4 1.6 1.5 0.2 0.2 0.0 0.0 0.0 0.0 0.0 1.1 1.8 2.8 2.3 1.8 2.1 1.3 1.5 0.9 0.3 0.0 0.0 0.0
6.1 4.7 1.3 0.0 0.0 0.2 0.1 0.0 0.2 0.0 0.0 0.1 0.0 0.0 0.1 1.0 1.3 0.3 1.0 1.0 2.7 3.2 2.0 1.4 0.7 0.2 0.0 0.1 0.1 0.0 0.0 0.0 0.0 0.3 0.7 2.1 1.9 2.2 1.4 0.7 0.6 0.1 0.0 0.1
7.8 5.3 0.6 0.0 0.0 0.0 0.0 0.0 0.0 0.0 0.0 0.3 0.4 0.6 1.0 0.5 1.7 1.3 0.3 1.2 2.0 2.5 1.3 0.0 0.0 0.0 0.0 0.1 0.0 0.1 0.0 0.0 0.0 0.0 0.0 0.5 0.5 1.1 1.0 0.2 0.5 0.4 0.0 0.6
9.2 2.3 0.0 0.0 0.0 0.0 0.0 0.0 0.0 0.0 0.2 1.7 2.4 3.1 0.1 0.7 1.3 0.5 0.1 0.2 0.3 0.3 0.0 0.0 0.0 0.0 0.0 0.4 0.0 0.0 0.1 0.0 0.0 0.2 0.2 0.8 0.4 1.4 1.8 1.1 0.4 0.5 0.7 0.8

GFSNW_prec_snow_123.txt.gz
Snowfall_Accumulation
0.0 0.0 0.0 0.0 0.0 0.0 0.0 0.0 11.3 0.0 0.0 4.1 7.4 10.0 3.3 0.0 0.0 0.0 0.0 0.0 0.0 0.0 0.0 0.0 0.0 0.0 0.0 0.0 0.0 0.0 0.0 0.1 0.4 1.0 0.0 0.0 0.0 0.0 0.0 2.1 0.4 1.2 0.4 0.0
0.0 0.0 0.0 0.0 0.0 0.0 0.0 0.0 1.7 0.0 0.0 5.9 5.3 0.0 0.0 0.0 0.0 0.0 0.0 0.0 0.0 0.0 0.0 0.0 0.0 0.0 0.0 0.0 0.0 0.0 0.0 0.3 0.7 1.3 0.0 0.0 0.3 0.1 0.1 1.7 2.5 2.2 0.8 0.0
0.0 0.0 0.0 0.0 0.0 0.0 0.0 0.0 8.4 0.0 0.0 0.0 0.0 0.0 0.0 0.0 0.0 0.0 0.0 0.0 0.0 0.0 0.0 0.0 0.0 0.0 0.0 0.0 0.0 0.0 0.0 0.0 0.0 0.1 0.6 1.2 1.8 0.0 0.6 3.7 5.0 0.0 0.2 0.0
0.0 0.0 0.0 0.0 0.0 0.0 0.0 0.0 3.9 0.0 3.1 0.0 0.0 0.0 0.0 0.0 0.0 0.0 0.0 0.0 0.0 0.0 0.0 0.0 0.0 0.0 0.0 0.0 0.0 0.0 0.0 0.0 0.0 0.0 0.6 1.9 2.0 0.7 0.4 3.0 0.5 1.9 0.0 0.0
0.0 0.0 0.0 0.0 0.0 0.0 0.0 0.0 0.0 0.0 0.0 0.0 0.0 0.0 0.0 0.0 0.0 0.0 0.0 0.0 0.0 0.0 0.0 0.0 0.0 0.0 0.0 0.0 0.0 0.0 0.0 0.0 0.1 0.6 0.0 0.9 1.6 0.4 0.4 0.2 0.0 0.2 0.0 0.0
0.0 0.0 0.0 0.0 0.0 0.0 0.0 0.0 0.0 0.0 0.0 0.0 0.0 0.0 0.0 0.0 0.0 0.0 0.0 0.0 0.0 0.0 0.0 0.0 0.0 0.0 0.0 0.0 0.0 0.0 0.0 0.0 1.5 0.6 0.0 0.7 0.6 0.2 0.1 0.0 0.0 0.0 0.1 0.0
0.0 0.0 0.0 0.0 0.0 0.0 0.0 0.0 0.0 0.0 0.0 0.0 0.0 0.0 0.0 0.0 0.0 0.0 0.0 0.0 0.0 0.0 0.0 0.0 0.0 0.0 0.0 0.0 0.0 0.0 0.0 0.6 1.9 0.8 0.6 2.4 0.0 0.0 0.0 0.0 0.0 0.0 0.0 0.0
0.0 0.0 0.0 0.0 0.0 0.0 0.0 0.0 0.0 0.0 0.0 0.0 0.0 0.0 0.0 0.0 0.0 0.0 0.0 0.0 0.0 0.0 0.0 0.0 0.0 0.0 0.0 0.0 0.0 0.0 0.0 0.0 1.8 1.6 1.4 0.0 0.0 0.0 0.0 0.0 0.0 0.0 0.0 0.0
0.0 0.0 0.0 0.0 0.0 0.0 0.0 0.0 0.0 0.0 0.0 0.0 0.0 0.0 0.0 0.0 0.0 0.0 0.0 0.0 0.0 0.0 0.0 0.0 0.8 0.3 0.1 0.0 0.0 0.0 0.0 0.0 1.2 0.9 0.8 0.1 0.0 0.0 0.0 0.0 0.0 0.0 0.0 0.0
0.0 0.0 0.0 0.0 0.0 0.0 0.0 0.0 0.0 0.0 0.0 0.0 0.0 0.0 0.0 0.0 0.0 0.0 0.0 0.0 0.0 0.0 0.0 1.1 0.6 0.0 0.0 0.0 0.0 0.2 0.3 0.3 1.4 1.0 1.2 0.0 0.0 0.0 0.0 0.0 0.0 0.0 0.0 0.0
0.0 0.0 0.0 0.0 0.0 0.0 0.0 0.0 0.0 0.0 0.0 0.0 0.0 0.0 0.0 0.0 0.0 0.0 0.0 0.0 0.0 0.0 0.7 0.0 0.0 0.1 0.0 0.0 0.0 0.0 0.0 0.2 0.2 0.6 0.5 0.0 0.0 0.0 0.0 0.0 0.0 0.0 0.0 0.0
0.0 0.0 0.0 0.0 0.0 0.0 0.0 0.0 0.0 0.0 0.0 0.0 0.0 0.0 0.0 0.0 0.0 0.0 0.0 0.0 0.0 0.0 0.0 0.0 0.0 0.1 0.0 0.0 0.0 0.0 0.0 0.0 0.0 0.0 0.0 0.0 0.0 0.0 0.0 0.0 0.0 0.0 0.0 0.0
0.0 0.0 0.0 0.0 0.0 0.0 0.0 0.0 0.0 0.0 0.1 0.0 0.0 0.0 0.0 0.0 0.0 0.0 0.0 0.0 0.0 0.0 0.0 0.0 0.0 0.0 0.0 0.1 0.0 0.0 0.0 0.0 0.0 0.0 0.0 0.0 0.0 0.0 0.0 0.0 0.0 0.0 0.0 0.0
0.0 0.0 0.0 0.0 0.0 0.0 0.0 0.0 0.0 0.0 0.1 0.8 0.1 0.0 0.0 0.0 0.0 0.0 0.0 0.0 0.0 0.0 0.0 0.0 0.0 0.0 0.0 0.0 0.0 0.0 0.0 0.0 0.0 0.0 0.0 0.0 0.0 0.0 0.0 0.0 0.0 0.0 0.0 0.0
0.0 0.0 0.0 0.0 0.0 0.0 0.0 0.0 0.0 0.0 0.2 1.9 0.3 0.0 0.0 0.0 0.0 0.0 0.0 0.0 0.0 0.5 0.3 1.1 0.7 0.0 0.0 0.0 0.0 0.0 0.0 0.0 0.0 0.0 0.0 0.0 0.0 0.0 0.0 0.0 0.0 0.0 0.0 0.0
0.0 0.0 0.0 0.0 0.0 0.0 0.0 0.0 0.0 0.0 0.0 3.0 1.6 0.0 0.0 0.0 0.0 0.0 0.0 0.0 0.0 0.1 1.1 1.6 0.0 0.0 0.0 0.6 0.0 0.0 0.0 0.0 0.0 0.0 0.0 0.0 0.0 0.0 0.0 0.0 0.0 0.0 0.0 0.0
0.0 0.0 0.0 0.0 0.0 0.0 0.2 0.0 0.0 0.0 0.0 1.5 3.8 4.0 0.0 0.0 0.0 0.0 0.0 0.0 0.0 2.0 3.2 1.5 0.0 0.0 1.6 1.3 0.3 0.0 0.0 0.0 0.0 0.0 0.0 0.0 0.0 0.0 0.0 0.0 0.0 0.0 0.0 0.0
0.0 0.0 0.0 0.0 0.0 0.0 0.0 0.0 0.0 0.0 0.0 4.3 8.6 7.1 2.9 0.0 0.4 0.0 0.0 0.0 0.0 0.5 1.4 0.0 0.0 0.0 2.2 1.4 0.0 0.0 0.0 0.0 0.0 0.0 0.0 0.0 0.0 0.0 0.0 0.0 0.0 0.0 0.0 0.0
0.0 0.0 0.0 0.0 0.0 0.0 0.0 0.0 0.0 0.0 0.0 7.3 6.7 6.7 5.1 0.0 0.0 0.0 0.2 0.0 4.5 0.0 1.6 0.0 0.4 1.2 2.8 0.0 0.1 0.1 0.0 0.1 0.0 0.0 0.0 0.0 0.0 0.0 0.0 0.0 0.0 0.0 0.0 0.0
0.0 0.0 0.0 0.9 0.0 0.0 0.0 0.0 0.7 4.5 3.5 3.8 5.1 4.8 5.9 3.0 4.7 1.7 1.7 1.9 3.0 3.7 0.0 0.0 1.2 0.0 0.0 0.0 0.0 0.1 0.1 0.0 0.1 0.0 3.0 1.6 1.0 0.0 0.0 0.0 0.0 0.0 0.0 0.0
0.0 0.0 0.0 0.0 0.0 0.0 0.0 5.6 6.7 3.8 2.4 2.3 3.3 4.5 3.7 0.0 5.0 3.5 0.3 5.7 2.5 4.1 4.9 1.1 2.2 1.6 1.2 0.0 0.1 0.0 0.0 0.1 0.0 0.0 0.0 0.5 2.1 2.0 0.6 0.4 0.2 0.0 0.0 0.0
0.0 0.0 0.0 0.0 0.8 3.8 4.9 5.8 3.9 1.3 1.0 1.6 2.9 1.5 1.0 1.0 0.0 2.1 1.9 3.7 3.3 3.7 5.2 3.8 2.7 1.0 0.2 1.1 1.0 0.7 0.1 0.0 0.1 0.0 0.0 0.3 0.0 1.0 1.3 0.9 1.2 1.4 1.6 1.6
0.0 0.0 0.9 0.6 1.1 2.2 3.3 2.9 2.5 0.5 0.7 0.9 0.9 1.1 0.0 0.0 0.1 0.6 1.6 1.6 0.7 1.2 3.7 3.9 1.7 0.3 0.2 0.0 0.2 0.5 2.2 2.7 1.5 1.0 0.8 0.8 0.8 0.5 0.9 0.8 0.5 0.7 0.4 0.7
0.0 3.7 2.3 0.7 0.8 1.2 1.2 1.1 1.1 0.2 0.1 0.0 0.0 0.6 1.3 0.2 1.2 1.2 1.5 0.1 0.6 2.4 1.6 1.5 0.2 0.2 0.0 0.0 0.0 0.0 0.0 1.1 1.8 2.8 2.3 1.8 2.1 1.3 1.5 0.9 0.3 0.0 0.0 0.0
6.2 4.7 1.3 0.0 0.0 0.2 0.1 0.0 0.2 0.0 0.0 0.1 0.0 0.0 0.1 1.0 1.3 0.3 1.0 1.0 2.7 3.2 2.0 1.4 0.7 0.2 0.0 0.1 0.1 0.0 0.0 0.0 0.0 0.3 0.7 2.1 1.9 2.2 1.4 0.7 0.6 0.1 0.0 0.1
7.8 5.3 0.6 0.0 0.0 0.0 0.0 0.0 0.0 0.0 0.0 0.3 0.4 0.6 1.0 0.5 1.7 1.3 0.3 1.2 2.0 2.5 1.3 0.0 0.0 0.0 0.0 0.1 0.0 0.1 0.0 0.0 0.0 0.0 0.0 0.5 0.5 1.1 1.0 0.2 0.5 0.4 0.0 0.6
9.2 2.3 0.0 0.0 0.0 0.0 0.0 0.0 0.0 0.0 0.5 1.9 2.5 3.2 0.1 0.7 1.3 0.5 0.1 0.2 0.3 0.3 0.0 0.0 0.0 0.0 0.0 0.4 0.0 0.0 0.1 0.0 0.0 0.2 0.2 0.8 0.4 1.4 1.8 1.1 0.4 0.5 0.7 0.8

GFSNW_prec_snow_126.txt.gz
Snowfall_Accumulation
0.0 0.0 0.0 0.0 0.0 0.0 0.0 0.0 11.3 0.0 0.0 4.1 7.4 10.0 3.3 0.0 0.0 0.0 0.0 0.0 0.0 0.0 0.0 0.0 0.0 0.0 0.0 0.0 0.0 0.0 0.0 0.1 0.4 1.0 0.0 0.0 0.0 0.0 0.0 2.1 0.4 1.2 0.4 0.0
0.0 0.0 0.0 0.0 0.0 0.0 0.0 0.0 1.7 0.0 0.0 5.9 5.3 0.0 0.0 0.0 0.0 0.0 0.0 0.0 0.0 0.0 0.0 0.0 0.0 0.0 0.0 0.0 0.0 0.0 0.0 0.3 0.7 1.3 0.0 0.0 0.3 0.1 0.1 1.7 2.5 2.2 0.8 0.0
0.0 0.0 0.0 0.0 0.0 0.0 0.0 0.0 8.4 0.0 0.0 0.0 0.0 0.0 0.0 0.0 0.0 0.0 0.0 0.0 0.0 0.0 0.0 0.0 0.0 0.0 0.0 0.0 0.0 0.0 0.0 0.0 0.0 0.1 0.6 1.2 1.8 0.0 0.6 3.7 5.0 0.0 0.2 0.0
0.0 0.0 0.0 0.0 0.0 0.0 0.0 0.0 3.9 0.0 3.1 0.0 0.0 0.0 0.0 0.0 0.0 0.0 0.0 0.0 0.0 0.0 0.0 0.0 0.0 0.0 0.0 0.0 0.0 0.0 0.0 0.0 0.0 0.0 0.6 1.9 2.0 0.7 0.4 3.0 0.5 1.9 0.0 0.0
0.0 0.0 0.0 0.0 0.0 0.0 0.0 0.0 0.0 0.0 0.0 0.0 0.0 0.0 0.0 0.0 0.0 0.0 0.0 0.0 0.0 0.0 0.0 0.0 0.0 0.0 0.0 0.0 0.0 0.0 0.0 0.0 0.1 0.6 0.0 0.9 1.6 0.4 0.4 0.2 0.0 0.2 0.0 0.0
0.0 0.0 0.0 0.0 0.0 0.0 0.0 0.0 0.0 0.0 0.0 0.0 0.0 0.0 0.0 0.0 0.0 0.0 0.0 0.0 0.0 0.0 0.0 0.0 0.0 0.0 0.0 0.0 0.0 0.0 0.0 0.0 1.5 0.6 0.0 0.7 0.6 0.2 0.1 0.0 0.0 0.0 0.1 0.0
0.0 0.0 0.0 0.0 0.0 0.0 0.0 0.0 0.0 0.0 0.0 0.0 0.0 0.0 0.0 0.0 0.0 0.0 0.0 0.0 0.0 0.0 0.0 0.0 0.0 0.0 0.0 0.0 0.0 0.0 0.0 0.6 1.9 0.8 0.6 2.4 0.0 0.0 0.0 0.0 0.0 0.0 0.0 0.0
0.0 0.0 0.0 0.0 0.0 0.0 0.0 0.0 0.0 0.0 0.0 0.0 0.0 0.0 0.0 0.0 0.0 0.0 0.0 0.0 0.0 0.0 0.0 0.0 0.0 0.0 0.0 0.0 0.0 0.0 0.0 0.0 1.8 1.6 1.4 0.0 0.0 0.0 0.0 0.0 0.0 0.0 0.0 0.0
0.0 0.0 0.0 0.0 0.0 0.0 0.0 0.0 0.0 0.0 0.0 0.0 0.0 0.0 0.0 0.0 0.0 0.0 0.0 0.0 0.0 0.0 0.0 0.0 0.8 0.3 0.1 0.0 0.0 0.0 0.0 0.0 1.2 0.9 0.8 0.1 0.0 0.0 0.0 0.0 0.0 0.0 0.0 0.0
0.0 0.0 0.0 0.0 0.0 0.0 0.0 0.0 0.0 0.0 0.0 0.0 0.0 0.0 0.0 0.0 0.0 0.0 0.0 0.0 0.0 0.0 0.0 1.1 0.6 0.0 0.0 0.0 0.0 0.2 0.3 0.3 1.4 1.0 1.2 0.0 0.0 0.0 0.0 0.0 0.0 0.0 0.0 0.0
0.0 0.0 0.0 0.0 0.0 0.0 0.0 0.0 0.0 0.0 0.0 0.0 0.0 0.0 0.0 0.0 0.0 0.0 0.0 0.0 0.0 0.0 0.7 0.0 0.0 0.1 0.0 0.0 0.0 0.0 0.0 0.2 0.2 0.6 0.5 0.0 0.0 0.0 0.0 0.0 0.0 0.0 0.0 0.0
0.0 0.0 0.0 0.0 0.0 0.0 0.0 0.0 0.0 0.0 0.0 0.0 0.0 0.0 0.0 0.0 0.0 0.0 0.0 0.0 0.0 0.0 0.0 0.0 0.0 0.1 0.0 0.0 0.0 0.0 0.0 0.0 0.0 0.0 0.0 0.0 0.0 0.0 0.0 0.0 0.0 0.0 0.0 0.0
0.0 0.0 0.0 0.0 0.0 0.0 0.0 0.0 0.0 0.0 0.1 0.0 0.0 0.0 0.0 0.0 0.0 0.0 0.0 0.0 0.0 0.0 0.0 0.0 0.0 0.0 0.0 0.1 0.0 0.0 0.0 0.0 0.0 0.0 0.0 0.0 0.0 0.0 0.0 0.0 0.0 0.0 0.0 0.0
0.0 0.0 0.0 0.0 0.0 0.0 0.0 0.0 0.0 0.0 0.1 0.8 0.1 0.0 0.0 0.0 0.0 0.0 0.0 0.0 0.0 0.0 0.0 0.0 0.0 0.0 0.0 0.0 0.0 0.0 0.0 0.0 0.0 0.0 0.0 0.0 0.0 0.0 0.0 0.0 0.0 0.0 0.0 0.0
0.0 0.0 0.0 0.0 0.0 0.0 0.0 0.0 0.0 0.0 0.2 1.9 0.3 0.0 0.0 0.0 0.0 0.0 0.0 0.0 0.0 0.5 0.3 1.1 0.7 0.0 0.0 0.0 0.0 0.0 0.0 0.0 0.0 0.0 0.0 0.0 0.0 0.0 0.0 0.0 0.0 0.0 0.0 0.0
0.0 0.0 0.0 0.0 0.0 0.0 0.0 0.0 0.0 0.0 0.0 3.0 1.6 0.0 0.0 0.0 0.0 0.0 0.0 0.0 0.0 0.1 1.1 1.6 0.0 0.0 0.0 0.6 0.0 0.0 0.0 0.0 0.0 0.0 0.0 0.0 0.0 0.0 0.0 0.0 0.0 0.0 0.0 0.0
0.0 0.0 0.0 0.0 0.0 0.0 0.2 0.0 0.0 0.0 0.0 1.5 3.8 4.0 0.0 0.0 0.0 0.0 0.0 0.0 0.0 2.0 3.2 1.5 0.0 0.0 1.6 1.3 0.3 0.0 0.0 0.0 0.0 0.0 0.0 0.0 0.0 0.0 0.0 0.0 0.0 0.0 0.0 0.0
0.0 0.0 0.0 0.0 0.0 0.0 0.0 0.0 0.0 0.0 0.0 4.3 8.6 7.1 2.9 0.0 0.4 0.0 0.0 0.0 0.0 0.5 1.4 0.0 0.0 0.0 2.2 1.4 0.0 0.0 0.0 0.0 0.0 0.0 0.0 0.0 0.0 0.0 0.0 0.0 0.0 0.0 0.0 0.0
0.0 0.0 0.0 0.0 0.0 0.0 0.0 0.0 0.0 0.0 0.0 7.3 6.7 6.7 5.1 0.0 0.0 0.0 0.2 0.0 4.5 0.0 1.6 0.0 0.4 1.2 2.8 0.0 0.1 0.1 0.0 0.1 0.0 0.0 0.0 0.0 0.0 0.0 0.0 0.0 0.0 0.0 0.0 0.0
0.0 0.0 0.0 0.9 0.0 0.0 0.0 0.0 0.7 4.5 3.5 3.8 5.1 4.8 5.9 3.0 4.7 1.7 1.7 1.9 3.0 3.7 0.0 0.0 1.2 0.0 0.0 0.0 0.0 0.1 0.1 0.0 0.1 0.0 3.0 1.6 1.0 0.0 0.0 0.0 0.0 0.0 0.0 0.0
0.0 0.0 0.0 0.0 0.0 0.0 0.0 5.6 6.7 3.8 2.4 2.3 3.3 4.5 3.7 0.0 5.0 3.5 0.3 5.7 2.5 4.1 4.9 1.1 2.2 1.6 1.2 0.0 0.1 0.0 0.0 0.1 0.0 0.0 0.0 0.5 2.1 2.0 0.6 0.4 0.2 0.0 0.0 0.0
0.0 0.0 0.0 0.0 0.8 3.8 4.9 5.8 3.9 1.3 1.0 1.6 2.9 1.5 1.0 1.0 0.0 2.1 1.9 3.7 3.3 3.7 5.2 3.8 2.7 1.0 0.2 1.1 1.0 0.7 0.1 0.0 0.1 0.0 0.0 0.3 0.0 1.0 1.3 0.9 1.2 1.4 1.6 1.6
0.0 0.0 0.9 1.0 1.4 2.4 3.3 2.9 2.5 0.5 0.7 0.9 0.9 1.1 0.0 0.0 0.1 0.6 1.6 1.6 0.7 1.2 3.7 3.9 1.7 0.3 0.2 0.0 0.2 0.5 2.2 2.7 1.5 1.0 0.8 0.8 0.8 0.5 0.9 0.8 0.5 0.7 0.4 0.7
2.2 4.9 3.2 1.2 1.2 1.2 1.2 1.1 1.1 0.2 0.1 0.0 0.0 0.6 1.3 0.2 1.2 1.2 1.5 0.1 0.6 2.4 1.6 1.5 0.2 0.2 0.0 0.0 0.0 0.0 0.0 1.1 1.8 2.8 2.3 1.8 2.1 1.3 1.5 0.9 0.3 0.0 0.0 0.0
8.0 5.8 2.1 0.2 0.0 0.2 0.1 0.0 0.2 0.0 0.0 0.1 0.0 0.0 0.1 1.0 1.3 0.3 1.0 1.0 2.8 3.2 2.0 1.4 0.7 0.2 0.0 0.1 0.1 0.0 0.0 0.0 0.0 0.3 0.7 2.1 1.9 2.2 1.4 0.7 0.6 0.1 0.0 0.1
9.1 6.3 1.1 0.0 0.0 0.0 0.0 0.0 0.0 0.0 0.0 0.3 0.4 0.6 1.0 0.5 1.7 1.4 0.3 1.2 2.0 2.5 1.3 0.0 0.0 0.0 0.0 0.1 0.0 0.1 0.0 0.0 0.0 0.0 0.0 0.5 0.5 1.1 1.0 0.2 0.5 0.4 0.0 0.6
9.9 2.7 0.1 0.0 0.0 0.0 0.0 0.0 0.0 0.0 0.5 1.9 2.5 3.2 0.1 0.7 1.4 0.6 0.1 0.2 0.3 0.3 0.0 0.0 0.0 0.0 0.0 0.4 0.0 0.0 0.1 0.0 0.0 0.2 0.2 0.8 0.4 1.4 1.8 1.1 0.4 0.5 0.7 0.8

GFSNW_prec_snow_129.txt.gz
Snowfall_Accumulation
0.0 0.0 0.0 0.0 0.0 0.0 0.0 0.0 11.3 0.0 0.0 4.1 7.4 10.0 3.3 0.0 0.0 0.0 0.0 0.0 0.0 0.0 0.0 0.0 0.0 0.0 0.0 0.0 0.0 0.0 0.0 0.1 0.4 1.0 0.0 0.0 0.0 0.0 0.0 2.1 0.4 1.2 0.4 0.0
0.0 0.0 0.0 0.0 0.0 0.0 0.0 0.0 1.7 0.0 0.0 5.9 5.3 0.0 0.0 0.0 0.0 0.0 0.0 0.0 0.0 0.0 0.0 0.0 0.0 0.0 0.0 0.0 0.0 0.0 0.0 0.3 0.7 1.3 0.0 0.0 0.3 0.1 0.1 1.7 2.5 2.2 0.8 0.0
0.0 0.0 0.0 0.0 0.0 0.0 0.0 0.0 8.4 0.0 0.0 0.0 0.0 0.0 0.0 0.0 0.0 0.0 0.0 0.0 0.0 0.0 0.0 0.0 0.0 0.0 0.0 0.0 0.0 0.0 0.0 0.0 0.0 0.1 0.6 1.2 1.8 0.0 0.6 3.7 5.0 0.0 0.2 0.0
0.0 0.0 0.0 0.0 0.0 0.0 0.0 0.0 3.9 0.0 3.1 0.0 0.0 0.0 0.0 0.0 0.0 0.0 0.0 0.0 0.0 0.0 0.0 0.0 0.0 0.0 0.0 0.0 0.0 0.0 0.0 0.0 0.0 0.0 0.6 1.9 2.0 0.7 0.4 3.0 0.5 1.9 0.0 0.0
0.0 0.0 0.0 0.0 0.0 0.0 0.0 0.0 0.0 0.0 0.0 0.0 0.0 0.0 0.0 0.0 0.0 0.0 0.0 0.0 0.0 0.0 0.0 0.0 0.0 0.0 0.0 0.0 0.0 0.0 0.0 0.0 0.1 0.6 0.0 0.9 1.6 0.4 0.4 0.2 0.0 0.2 0.0 0.0
0.0 0.0 0.0 0.0 0.0 0.0 0.0 0.0 0.0 0.0 0.0 0.0 0.0 0.0 0.0 0.0 0.0 0.0 0.0 0.0 0.0 0.0 0.0 0.0 0.0 0.0 0.0 0.0 0.0 0.0 0.0 0.0 1.5 0.6 0.0 0.7 0.6 0.2 0.1 0.0 0.0 0.0 0.1 0.0
0.0 0.0 0.0 0.0 0.0 0.0 0.0 0.0 0.0 0.0 0.0 0.0 0.0 0.0 0.0 0.0 0.0 0.0 0.0 0.0 0.0 0.0 0.0 0.0 0.0 0.0 0.0 0.0 0.0 0.0 0.0 0.6 1.9 0.8 0.6 2.4 0.0 0.0 0.0 0.0 0.0 0.0 0.0 0.0
0.0 0.0 0.0 0.0 0.0 0.0 0.0 0.0 0.0 0.0 0.0 0.0 0.0 0.0 0.0 0.0 0.0 0.0 0.0 0.0 0.0 0.0 0.0 0.0 0.0 0.0 0.0 0.0 0.0 0.0 0.0 0.0 1.8 1.6 1.4 0.0 0.0 0.0 0.0 0.0 0.0 0.0 0.0 0.0
0.0 0.0 0.0 0.0 0.0 0.0 0.0 0.0 0.0 0.0 0.0 0.0 0.0 0.0 0.0 0.0 0.0 0.0 0.0 0.0 0.0 0.0 0.0 0.0 0.8 0.3 0.1 0.0 0.0 0.0 0.0 0.0 1.2 0.9 0.8 0.1 0.0 0.0 0.0 0.0 0.0 0.0 0.0 0.0
0.0 0.0 0.0 0.0 0.0 0.0 0.0 0.0 0.0 0.0 0.0 0.0 0.0 0.0 0.0 0.0 0.0 0.0 0.0 0.0 0.0 0.0 0.0 1.1 0.6 0.0 0.0 0.0 0.0 0.2 0.3 0.3 1.4 1.0 1.2 0.0 0.0 0.0 0.0 0.0 0.0 0.0 0.0 0.0
0.0 0.0 0.0 0.0 0.0 0.0 0.0 0.0 0.0 0.0 0.0 0.0 0.0 0.0 0.0 0.0 0.0 0.0 0.0 0.0 0.0 0.0 0.7 0.0 0.0 0.1 0.0 0.0 0.0 0.0 0.0 0.2 0.2 0.6 0.5 0.0 0.0 0.0 0.0 0.0 0.0 0.0 0.0 0.0
0.0 0.0 0.0 0.0 0.0 0.0 0.0 0.0 0.0 0.0 0.0 0.0 0.0 0.0 0.0 0.0 0.0 0.0 0.0 0.0 0.0 0.0 0.0 0.0 0.0 0.1 0.0 0.0 0.0 0.0 0.0 0.0 0.0 0.0 0.0 0.0 0.0 0.0 0.0 0.0 0.0 0.0 0.0 0.0
0.0 0.0 0.0 0.0 0.0 0.0 0.0 0.0 0.0 0.0 0.1 0.0 0.0 0.0 0.0 0.0 0.0 0.0 0.0 0.0 0.0 0.0 0.0 0.0 0.0 0.0 0.0 0.1 0.0 0.0 0.0 0.0 0.0 0.0 0.0 0.0 0.0 0.0 0.0 0.0 0.0 0.0 0.0 0.0
0.0 0.0 0.0 0.0 0.0 0.0 0.0 0.0 0.0 0.0 0.1 0.8 0.1 0.0 0.0 0.0 0.0 0.0 0.0 0.0 0.0 0.0 0.0 0.0 0.0 0.0 0.0 0.0 0.0 0.0 0.0 0.0 0.0 0.0 0.0 0.0 0.0 0.0 0.0 0.0 0.0 0.0 0.0 0.0
0.0 0.0 0.0 0.0 0.0 0.0 0.0 0.0 0.0 0.0 0.2 1.9 0.3 0.0 0.0 0.0 0.0 0.0 0.0 0.0 0.0 0.5 0.3 1.1 0.7 0.0 0.0 0.0 0.0 0.0 0.0 0.0 0.0 0.0 0.0 0.0 0.0 0.0 0.0 0.0 0.0 0.0 0.0 0.0
0.0 0.0 0.0 0.0 0.0 0.0 0.0 0.0 0.0 0.0 0.0 3.0 1.6 0.0 0.0 0.0 0.0 0.0 0.0 0.0 0.0 0.1 1.1 1.6 0.0 0.0 0.0 0.6 0.0 0.0 0.0 0.0 0.0 0.0 0.0 0.0 0.0 0.0 0.0 0.0 0.0 0.0 0.0 0.0
0.0 0.0 0.0 0.0 0.0 0.0 0.2 0.0 0.0 0.0 0.0 1.5 3.8 4.0 0.0 0.0 0.0 0.0 0.0 0.0 0.0 2.0 3.2 1.5 0.0 0.0 1.6 1.3 0.3 0.0 0.0 0.0 0.0 0.0 0.0 0.0 0.0 0.0 0.0 0.0 0.0 0.0 0.0 0.0
0.0 0.0 0.0 0.0 0.0 0.0 0.0 0.0 0.0 0.0 0.0 4.3 8.6 7.1 2.9 0.0 0.4 0.0 0.0 0.0 0.0 0.5 1.4 0.0 0.0 0.0 2.2 1.4 0.0 0.0 0.0 0.0 0.0 0.0 0.0 0.0 0.0 0.0 0.0 0.0 0.0 0.0 0.0 0.0
0.0 0.0 0.0 0.0 0.0 0.0 0.0 0.0 0.0 0.0 0.0 7.3 6.7 6.7 5.1 0.0 0.0 0.0 0.2 0.0 4.5 0.0 1.6 0.0 0.4 1.2 2.8 0.0 0.1 0.1 0.0 0.1 0.0 0.0 0.0 0.0 0.0 0.0 0.0 0.0 0.0 0.0 0.0 0.0
0.0 0.0 0.0 0.9 0.0 0.0 0.0 0.0 0.7 4.5 3.5 3.8 5.1 4.8 5.9 3.0 4.7 1.7 1.7 1.9 3.0 3.7 0.0 0.0 1.2 0.0 0.0 0.0 0.0 0.1 0.1 0.0 0.1 0.0 3.0 1.6 1.0 0.0 0.0 0.0 0.0 0.0 0.0 0.0
0.0 0.0 0.0 0.0 0.0 0.0 0.0 5.6 6.7 3.8 2.4 2.3 3.3 4.5 3.7 0.0 5.0 3.5 0.3 5.7 2.5 4.1 4.9 1.1 2.2 1.6 1.2 0.0 0.1 0.0 0.0 0.1 0.0 0.0 0.0 0.5 2.1 2.0 0.6 0.4 0.2 0.0 0.0 0.0
0.0 0.0 0.0 0.0 0.8 4.2 5.0 5.9 3.9 1.3 1.0 1.6 2.9 1.5 1.0 1.0 0.0 2.1 1.9 3.7 3.3 3.7 5.2 3.8 2.7 1.0 0.2 1.1 1.0 0.7 0.1 0.0 0.1 0.0 0.0 0.3 0.0 1.0 1.3 0.9 1.2 1.4 1.6 1.6
0.0 0.0 1.8 2.3 3.1 3.6 3.8 2.9 2.5 0.5 0.7 0.9 0.9 1.2 0.0 0.0 0.1 0.6 1.6 1.6 0.7 1.2 3.7 3.9 1.7 0.3 0.2 0.0 0.2 0.5 2.2 2.7 1.5 1.0 0.8 0.8 0.8 0.5 0.9 0.8 0.5 0.7 0.4 0.7
2.2 7.1 4.9 2.2 2.0 1.2 1.2 1.1 1.1 0.2 0.1 0.0 0.0 0.6 1.3 0.2 1.2 1.2 1.5 0.1 0.6 2.4 1.7 1.5 0.2 0.2 0.0 0.0 0.0 0.0 0.0 1.1 1.8 2.8 2.3 1.8 2.1 1.3 1.5 0.9 0.3 0.0 0.0 0.0
11.3 8.0 3.2 0.8 0.0 0.2 0.1 0.0 0.2 0.0 0.0 0.1 0.0 0.0 0.1 1.0 1.3 0.3 1.0 1.0 2.8 3.2 2.0 1.4 0.7 0.2 0.0 0.1 0.1 0.0 0.0 0.0 0.0 0.3 0.7 2.1 1.9 2.2 1.4 0.7 0.6 0.1 0.0 0.1
11.8 7.8 1.8 0.0 0.0 0.0 0.0 0.0 0.0 0.0 0.0 0.3 0.4 0.6 1.0 0.5 1.7 1.4 0.3 1.2 2.0 2.5 1.3 0.0 0.0 0.0 0.0 0.1 0.0 0.1 0.0 0.0 0.0 0.0 0.0 0.5 0.5 1.1 1.0 0.2 0.5 0.4 0.0 0.6
12.1 3.6 0.1 0.0 0.0 0.0 0.0 0.0 0.0 0.0 0.5 1.9 2.6 3.2 0.1 0.7 1.4 0.6 0.1 0.2 0.3 0.3 0.0 0.0 0.0 0.0 0.0 0.4 0.0 0.0 0.1 0.0 0.0 0.2 0.2 0.8 0.4 1.4 1.8 1.1 0.4 0.5 0.7 0.8

GFSNW_prec_snow_132.txt.gz
Snowfall_Accumulation
0.0 0.0 0.0 0.0 0.0 0.0 0.0 0.0 11.3 0.0 0.0 4.1 7.4 10.0 3.3 0.0 0.0 0.0 0.0 0.0 0.0 0.0 0.0 0.0 0.0 0.0 0.0 0.0 0.0 0.0 0.0 0.1 0.4 1.0 0.0 0.0 0.0 0.0 0.0 2.1 0.4 1.2 0.4 0.0
0.0 0.0 0.0 0.0 0.0 0.0 0.0 0.0 1.7 0.0 0.0 5.9 5.3 0.0 0.0 0.0 0.0 0.0 0.0 0.0 0.0 0.0 0.0 0.0 0.0 0.0 0.0 0.0 0.0 0.0 0.0 0.3 0.7 1.3 0.0 0.0 0.3 0.1 0.1 1.7 2.5 2.2 0.8 0.0
0.0 0.0 0.0 0.0 0.0 0.0 0.0 0.0 8.4 0.0 0.0 0.0 0.0 0.0 0.0 0.0 0.0 0.0 0.0 0.0 0.0 0.0 0.0 0.0 0.0 0.0 0.0 0.0 0.0 0.0 0.0 0.0 0.0 0.1 0.6 1.2 1.8 0.0 0.6 3.7 5.0 0.0 0.2 0.0
0.0 0.0 0.0 0.0 0.0 0.0 0.0 0.0 3.9 0.0 3.1 0.0 0.0 0.0 0.0 0.0 0.0 0.0 0.0 0.0 0.0 0.0 0.0 0.0 0.0 0.0 0.0 0.0 0.0 0.0 0.0 0.0 0.0 0.0 0.6 1.9 2.0 0.7 0.4 3.0 0.5 1.9 0.0 0.0
0.0 0.0 0.0 0.0 0.0 0.0 0.0 0.0 0.0 0.0 0.0 0.0 0.0 0.0 0.0 0.0 0.0 0.0 0.0 0.0 0.0 0.0 0.0 0.0 0.0 0.0 0.0 0.0 0.0 0.0 0.0 0.0 0.1 0.6 0.0 0.9 1.6 0.4 0.4 0.2 0.0 0.2 0.0 0.0
0.0 0.0 0.0 0.0 0.0 0.0 0.0 0.0 0.0 0.0 0.0 0.0 0.0 0.0 0.0 0.0 0.0 0.0 0.0 0.0 0.0 0.0 0.0 0.0 0.0 0.0 0.0 0.0 0.0 0.0 0.0 0.0 1.5 0.6 0.0 0.7 0.6 0.2 0.1 0.0 0.0 0.0 0.1 0.0
0.0 0.0 0.0 0.0 0.0 0.0 0.0 0.0 0.0 0.0 0.0 0.0 0.0 0.0 0.0 0.0 0.0 0.0 0.0 0.0 0.0 0.0 0.0 0.0 0.0 0.0 0.0 0.0 0.0 0.0 0.0 0.6 1.9 0.8 0.6 2.4 0.0 0.0 0.0 0.0 0.0 0.0 0.0 0.0
0.0 0.0 0.0 0.0 0.0 0.0 0.0 0.0 0.0 0.0 0.0 0.0 0.0 0.0 0.0 0.0 0.0 0.0 0.0 0.0 0.0 0.0 0.0 0.0 0.0 0.0 0.0 0.0 0.0 0.0 0.0 0.0 1.8 1.6 1.4 0.0 0.0 0.0 0.0 0.0 0.0 0.0 0.0 0.0
0.0 0.0 0.0 0.0 0.0 0.0 0.0 0.0 0.0 0.0 0.0 0.0 0.0 0.0 0.0 0.0 0.0 0.0 0.0 0.0 0.0 0.0 0.0 0.0 0.8 0.3 0.1 0.0 0.0 0.0 0.0 0.0 1.2 0.9 0.8 0.1 0.0 0.0 0.0 0.0 0.0 0.0 0.0 0.0
0.0 0.0 0.0 0.0 0.0 0.0 0.0 0.0 0.0 0.0 0.0 0.0 0.0 0.0 0.0 0.0 0.0 0.0 0.0 0.0 0.0 0.0 0.0 1.1 0.6 0.0 0.0 0.0 0.0 0.2 0.3 0.3 1.4 1.0 1.2 0.0 0.0 0.0 0.0 0.0 0.0 0.0 0.0 0.0
0.0 0.0 0.0 0.0 0.0 0.0 0.0 0.0 0.0 0.0 0.0 0.0 0.0 0.0 0.0 0.0 0.0 0.0 0.0 0.0 0.0 0.0 0.7 0.0 0.0 0.1 0.0 0.0 0.0 0.0 0.0 0.2 0.2 0.6 0.5 0.0 0.0 0.0 0.0 0.0 0.0 0.0 0.0 0.0
0.0 0.0 0.0 0.0 0.0 0.0 0.0 0.0 0.0 0.0 0.0 0.0 0.0 0.0 0.0 0.0 0.0 0.0 0.0 0.0 0.0 0.0 0.0 0.0 0.0 0.1 0.0 0.0 0.0 0.0 0.0 0.0 0.0 0.0 0.0 0.0 0.0 0.0 0.0 0.0 0.0 0.0 0.0 0.0
0.0 0.0 0.0 0.0 0.0 0.0 0.0 0.0 0.0 0.0 0.1 0.0 0.0 0.0 0.0 0.0 0.0 0.0 0.0 0.0 0.0 0.0 0.0 0.0 0.0 0.0 0.0 0.1 0.0 0.0 0.0 0.0 0.0 0.0 0.0 0.0 0.0 0.0 0.0 0.0 0.0 0.0 0.0 0.0
0.0 0.0 0.0 0.0 0.0 0.0 0.0 0.0 0.0 0.0 0.1 0.8 0.1 0.0 0.0 0.0 0.0 0.0 0.0 0.0 0.0 0.0 0.0 0.0 0.0 0.0 0.0 0.0 0.0 0.0 0.0 0.0 0.0 0.0 0.0 0.0 0.0 0.0 0.0 0.0 0.0 0.0 0.0 0.0
0.0 0.0 0.0 0.0 0.0 0.0 0.0 0.0 0.0 0.0 0.2 1.9 0.3 0.0 0.0 0.0 0.0 0.0 0.0 0.0 0.0 0.5 0.3 1.1 0.7 0.0 0.0 0.0 0.0 0.0 0.0 0.0 0.0 0.0 0.0 0.0 0.0 0.0 0.0 0.0 0.0 0.0 0.0 0.0
0.0 0.0 0.0 0.0 0.0 0.0 0.0 0.0 0.0 0.0 0.0 3.0 1.6 0.0 0.0 0.0 0.0 0.0 0.0 0.0 0.0 0.1 1.1 1.6 0.0 0.0 0.0 0.6 0.0 0.0 0.0 0.0 0.0 0.0 0.0 0.0 0.0 0.0 0.0 0.0 0.0 0.0 0.0 0.0
0.0 0.0 0.0 0.0 0.0 0.0 0.2 0.0 0.0 0.0 0.0 1.5 3.8 4.0 0.0 0.0 0.0 0.0 0.0 0.0 0.0 2.0 3.2 1.5 0.0 0.0 1.6 1.3 0.3 0.0 0.0 0.0 0.0 0.0 0.0 0.0 0.0 0.0 0.0 0.0 0.0 0.0 0.0 0.0
0.0 0.0 0.0 0.0 0.0 0.0 0.0 0.0 0.0 0.0 0.0 4.3 8.6 7.1 2.9 0.0 0.4 0.0 0.0 0.0 0.0 0.5 1.4 0.0 0.0 0.0 2.2 1.4 0.0 0.0 0.0 0.0 0.0 0.0 0.0 0.0 0.0 0.0 0.0 0.0 0.0 0.0 0.0 0.0
0.0 0.0 0.0 0.0 0.0 0.0 0.0 0.0 0.0 0.0 0.0 7.3 6.7 6.7 5.1 0.0 0.0 0.0 0.2 0.0 4.5 0.0 1.6 0.0 0.4 1.2 2.8 0.0 0.1 0.1 0.0 0.1 0.0 0.0 0.0 0.0 0.0 0.0 0.0 0.0 0.0 0.0 0.0 0.0
0.0 0.0 0.0 0.9 0.0 0.0 0.0 0.0 0.7 4.5 3.5 3.8 5.1 4.8 5.9 3.0 4.7 1.7 1.7 1.9 3.0 3.7 0.0 0.0 1.2 0.0 0.0 0.0 0.0 0.1 0.1 0.0 0.1 0.0 3.0 1.6 1.0 0.0 0.0 0.0 0.0 0.0 0.0 0.0
0.0 0.0 0.0 0.0 0.0 0.0 0.0 5.6 6.7 3.8 2.4 2.3 3.3 4.5 3.7 0.0 5.0 3.5 0.3 5.7 2.5 4.1 4.9 1.1 2.2 1.6 1.2 0.0 0.1 0.0 0.0 0.1 0.0 0.0 0.0 0.5 2.1 2.0 0.6 0.4 0.2 0.0 0.0 0.0
0.0 0.0 0.0 0.0 0.8 4.7 5.3 6.0 3.9 1.3 1.0 1.6 2.9 1.5 1.0 1.0 0.0 2.1 1.9 3.7 3.3 3.7 5.2 3.8 2.7 1.0 0.2 1.1 1.0 0.7 0.1 0.0 0.1 0.0 0.0 0.3 0.0 1.0 1.3 0.9 1.2 1.4 1.6 1.6
0.0 0.0 3.8 4.0 5.2 4.9 4.3 2.9 2.5 0.5 0.7 0.9 0.9 1.2 0.0 0.0 0.1 0.6 1.6 1.6 0.7 1.2 3.7 3.9 1.7 0.3 0.2 0.0 0.2 0.5 2.2 2.7 1.5 1.0 0.8 0.8 0.8 0.5 0.9 0.8 0.5 0.7 0.4 0.7
2.2 10.7 7.8 3.8 3.1 1.2 1.2 1.1 1.1 0.2 0.1 0.0 0.0 0.6 1.3 0.2 1.2 1.2 1.6 0.1 0.6 2.4 1.7 1.5 0.2 0.2 0.0 0.0 0.0 0.0 0.0 1.1 1.8 2.8 2.3 1.8 2.1 1.3 1.5 0.9 0.3 0.0 0.0 0.0
14.8 11.5 5.0 1.5 0.0 0.2 0.1 0.0 0.2 0.0 0.0 0.1 0.0 0.0 0.1 1.0 1.7 0.5 1.2 1.0 2.8 3.2 2.0 1.4 0.7 0.2 0.0 0.1 0.1 0.0 0.0 0.0 0.0 0.3 0.7 2.1 1.9 2.2 1.4 0.7 0.6 0.1 0.0 0.1
15.2 10.1 2.9 0.0 0.0 0.0 0.0 0.0 0.0 0.0 0.0 0.3 0.4 0.6 1.4 0.9 2.0 1.5 0.3 1.2 2.0 2.5 1.3 0.0 0.0 0.0 0.0 0.1 0.0 0.1 0.0 0.0 0.0 0.0 0.0 0.5 0.5 1.1 1.0 0.2 0.5 0.4 0.0 0.6
16.0 5.3 0.1 0.0 0.0 0.0 0.0 0.0 0.0 0.0 0.5 1.9 2.6 3.5 0.1 1.0 1.6 0.7 0.1 0.2 0.3 0.3 0.0 0.0 0.0 0.0 0.0 0.4 0.0 0.0 0.1 0.0 0.0 0.2 0.2 0.8 0.4 1.4 1.8 1.1 0.4 0.5 0.7 0.8

GFSNW_prec_snow_135.txt.gz
Snowfall_Accumulation
0.0 0.0 0.0 0.0 0.0 0.0 0.0 0.0 11.3 0.0 0.0 4.1 7.4 10.0 3.3 0.0 0.0 0.0 0.0 0.0 0.0 0.0 0.0 0.0 0.0 0.0 0.0 0.0 0.0 0.0 0.0 0.1 0.4 1.0 0.0 0.0 0.0 0.0 0.0 2.1 0.4 1.2 0.4 0.0
0.0 0.0 0.0 0.0 0.0 0.0 0.0 0.0 1.7 0.0 0.0 5.9 5.3 0.0 0.0 0.0 0.0 0.0 0.0 0.0 0.0 0.0 0.0 0.0 0.0 0.0 0.0 0.0 0.0 0.0 0.0 0.3 0.7 1.3 0.0 0.0 0.3 0.1 0.1 1.7 2.5 2.2 0.8 0.0
0.0 0.0 0.0 0.0 0.0 0.0 0.0 0.0 8.4 0.0 0.0 0.0 0.0 0.0 0.0 0.0 0.0 0.0 0.0 0.0 0.0 0.0 0.0 0.0 0.0 0.0 0.0 0.0 0.0 0.0 0.0 0.0 0.0 0.1 0.6 1.2 1.8 0.0 0.6 3.7 5.0 0.0 0.2 0.0
0.0 0.0 0.0 0.0 0.0 0.0 0.0 0.0 3.9 0.0 3.1 0.0 0.0 0.0 0.0 0.0 0.0 0.0 0.0 0.0 0.0 0.0 0.0 0.0 0.0 0.0 0.0 0.0 0.0 0.0 0.0 0.0 0.0 0.0 0.6 1.9 2.0 0.7 0.4 3.0 0.5 1.9 0.0 0.0
0.0 0.0 0.0 0.0 0.0 0.0 0.0 0.0 0.0 0.0 0.0 0.0 0.0 0.0 0.0 0.0 0.0 0.0 0.0 0.0 0.0 0.0 0.0 0.0 0.0 0.0 0.0 0.0 0.0 0.0 0.0 0.0 0.1 0.6 0.0 0.9 1.6 0.4 0.4 0.2 0.0 0.2 0.0 0.0
0.0 0.0 0.0 0.0 0.0 0.0 0.0 0.0 0.0 0.0 0.0 0.0 0.0 0.0 0.0 0.0 0.0 0.0 0.0 0.0 0.0 0.0 0.0 0.0 0.0 0.0 0.0 0.0 0.0 0.0 0.0 0.0 1.5 0.6 0.0 0.7 0.6 0.2 0.1 0.0 0.0 0.0 0.1 0.0
0.0 0.0 0.0 0.0 0.0 0.0 0.0 0.0 0.0 0.0 0.0 0.0 0.0 0.0 0.0 0.0 0.0 0.0 0.0 0.0 0.0 0.0 0.0 0.0 0.0 0.0 0.0 0.0 0.0 0.0 0.0 0.6 1.9 0.8 0.6 2.4 0.0 0.0 0.0 0.0 0.0 0.0 0.0 0.0
0.0 0.0 0.0 0.0 0.0 0.0 0.0 0.0 0.0 0.0 0.0 0.0 0.0 0.0 0.0 0.0 0.0 0.0 0.0 0.0 0.0 0.0 0.0 0.0 0.0 0.0 0.0 0.0 0.0 0.0 0.0 0.0 1.8 1.6 1.4 0.0 0.0 0.0 0.0 0.0 0.0 0.0 0.0 0.0
0.0 0.0 0.0 0.0 0.0 0.0 0.0 0.0 0.0 0.0 0.0 0.0 0.0 0.0 0.0 0.0 0.0 0.0 0.0 0.0 0.0 0.0 0.0 0.0 0.8 0.3 0.1 0.0 0.0 0.0 0.0 0.0 1.2 0.9 0.8 0.1 0.0 0.0 0.0 0.0 0.0 0.0 0.0 0.0
0.0 0.0 0.0 0.0 0.0 0.0 0.0 0.0 0.0 0.0 0.0 0.0 0.0 0.0 0.0 0.0 0.0 0.0 0.0 0.0 0.0 0.0 0.0 1.1 0.6 0.0 0.0 0.0 0.0 0.2 0.3 0.3 1.4 1.0 1.2 0.0 0.0 0.0 0.0 0.0 0.0 0.0 0.0 0.0
0.0 0.0 0.0 0.0 0.0 0.0 0.0 0.0 0.0 0.0 0.0 0.0 0.0 0.0 0.0 0.0 0.0 0.0 0.0 0.0 0.0 0.0 0.7 0.0 0.0 0.1 0.0 0.0 0.0 0.0 0.0 0.2 0.2 0.6 0.5 0.0 0.0 0.0 0.0 0.0 0.0 0.0 0.0 0.0
0.0 0.0 0.0 0.0 0.0 0.0 0.0 0.0 0.0 0.0 0.0 0.0 0.0 0.0 0.0 0.0 0.0 0.0 0.0 0.0 0.0 0.0 0.0 0.0 0.0 0.1 0.0 0.0 0.0 0.0 0.0 0.0 0.0 0.0 0.0 0.0 0.0 0.0 0.0 0.0 0.0 0.0 0.0 0.0
0.0 0.0 0.0 0.0 0.0 0.0 0.0 0.0 0.0 0.0 0.1 0.0 0.0 0.0 0.0 0.0 0.0 0.0 0.0 0.0 0.0 0.0 0.0 0.0 0.0 0.0 0.0 0.1 0.0 0.0 0.0 0.0 0.0 0.0 0.0 0.0 0.0 0.0 0.0 0.0 0.0 0.0 0.0 0.0
0.0 0.0 0.0 0.0 0.0 0.0 0.0 0.0 0.0 0.0 0.1 0.8 0.1 0.0 0.0 0.0 0.0 0.0 0.0 0.0 0.0 0.0 0.0 0.0 0.0 0.0 0.0 0.0 0.0 0.0 0.0 0.0 0.0 0.0 0.0 0.0 0.0 0.0 0.0 0.0 0.0 0.0 0.0 0.0
0.0 0.0 0.0 0.0 0.0 0.0 0.0 0.0 0.0 0.0 0.2 1.9 0.3 0.0 0.0 0.0 0.0 0.0 0.0 0.0 0.0 0.5 0.3 1.1 0.7 0.0 0.0 0.0 0.0 0.0 0.0 0.0 0.0 0.0 0.0 0.0 0.0 0.0 0.0 0.0 0.0 0.0 0.0 0.0
0.0 0.0 0.0 0.0 0.0 0.0 0.0 0.0 0.0 0.0 0.0 3.0 1.6 0.0 0.0 0.0 0.0 0.0 0.0 0.0 0.0 0.1 1.1 1.6 0.0 0.0 0.0 0.6 0.0 0.0 0.0 0.0 0.0 0.0 0.0 0.0 0.0 0.0 0.0 0.0 0.0 0.0 0.0 0.0
0.0 0.0 0.0 0.0 0.0 0.0 0.2 0.0 0.0 0.0 0.0 1.5 3.8 4.0 0.0 0.0 0.0 0.0 0.0 0.0 0.0 2.0 3.2 1.5 0.0 0.0 1.6 1.3 0.3 0.0 0.0 0.0 0.0 0.0 0.0 0.0 0.0 0.0 0.0 0.0 0.0 0.0 0.0 0.0
0.0 0.0 0.0 0.0 0.0 0.0 0.0 0.0 0.0 0.0 0.0 4.3 8.6 7.1 2.9 0.0 0.4 0.0 0.0 0.0 0.0 0.5 1.4 0.0 0.0 0.0 2.2 1.4 0.0 0.0 0.0 0.0 0.0 0.0 0.0 0.0 0.0 0.0 0.0 0.0 0.0 0.0 0.0 0.0
0.0 0.0 0.0 0.0 0.0 0.0 0.0 0.0 0.0 0.0 0.0 7.3 6.7 6.7 5.1 0.0 0.0 0.0 0.2 0.0 4.5 0.0 1.6 0.0 0.4 1.2 2.8 0.0 0.1 0.1 0.0 0.1 0.0 0.0 0.0 0.0 0.0 0.0 0.0 0.0 0.0 0.0 0.0 0.0
0.0 0.0 0.0 0.9 0.0 0.0 0.0 0.0 0.7 4.5 3.5 3.8 5.1 4.8 5.9 3.0 4.7 1.7 1.7 1.9 3.0 3.7 0.0 0.0 1.2 0.0 0.0 0.0 0.0 0.1 0.1 0.0 0.1 0.0 3.0 1.6 1.0 0.0 0.0 0.0 0.0 0.0 0.0 0.0
0.0 0.0 0.0 0.0 0.0 0.0 0.0 5.6 6.7 3.8 2.4 2.3 3.3 4.5 3.7 0.0 5.0 3.5 0.3 5.7 2.5 4.1 4.9 1.1 2.2 1.6 1.2 0.0 0.1 0.0 0.0 0.1 0.0 0.0 0.0 0.5 2.1 2.0 0.6 0.4 0.2 0.0 0.0 0.0
0.0 0.0 0.0 0.0 0.8 5.8 6.3 6.4 3.9 1.3 1.0 1.6 2.9 1.5 1.0 1.0 0.0 2.1 1.9 3.7 3.3 3.7 5.2 3.8 2.7 1.0 0.2 1.1 1.0 0.7 0.1 0.0 0.1 0.0 0.0 0.3 0.0 1.0 1.3 0.9 1.2 1.4 1.6 1.6
0.0 0.0 6.1 6.3 7.5 6.3 4.8 3.0 2.5 0.5 0.7 0.9 0.9 1.2 0.0 0.0 0.1 0.6 1.6 1.6 0.7 1.2 3.7 3.9 1.7 0.3 0.2 0.0 0.2 0.5 2.2 2.7 1.5 1.0 0.8 0.8 0.8 0.5 0.9 0.8 0.5 0.7 0.4 0.7
2.2 13.7 10.7 5.6 4.5 1.2 1.2 1.1 1.1 0.2 0.1 0.0 0.0 0.6 1.3 0.2 1.2 1.2 1.6 0.1 0.6 2.4 1.7 1.5 0.2 0.2 0.0 0.0 0.0 0.0 0.0 1.1 1.8 2.8 2.3 1.8 2.1 1.3 1.5 0.9 0.3 0.0 0.0 0.0
18.6 15.0 7.1 2.2 0.0 0.2 0.1 0.0 0.2 0.0 0.0 0.1 0.0 0.0 0.1 1.0 1.7 0.5 1.2 1.0 2.8 3.2 2.0 1.4 0.7 0.2 0.0 0.1 0.1 0.0 0.0 0.0 0.0 0.3 0.7 2.1 1.9 2.2 1.4 0.7 0.6 0.1 0.0 0.1
19.3 13.0 3.8 0.0 0.0 0.0 0.0 0.0 0.0 0.0 0.0 0.3 0.4 0.6 1.4 0.9 2.0 1.5 0.3 1.2 2.0 2.5 1.3 0.0 0.0 0.0 0.0 0.1 0.0 0.1 0.0 0.0 0.0 0.0 0.0 0.5 0.5 1.1 1.0 0.2 0.5 0.4 0.0 0.6
20.3 7.9 0.6 0.0 0.0 0.0 0.0 0.0 0.0 0.0 0.5 1.9 2.6 3.5 0.1 1.0 1.6 0.7 0.1 0.2 0.3 0.3 0.0 0.0 0.0 0.0 0.0 0.4 0.0 0.0 0.1 0.0 0.0 0.2 0.2 0.8 0.4 1.4 1.8 1.1 0.4 0.5 0.7 0.8

GFSNW_prec_snow_138.txt.gz
Snowfall_Accumulation
0.0 0.0 0.0 0.0 0.0 0.0 0.0 0.0 11.3 0.0 0.0 4.1 7.4 10.0 3.3 0.0 0.0 0.0 0.0 0.0 0.0 0.0 0.0 0.0 0.0 0.0 0.0 0.0 0.0 0.0 0.0 0.1 0.4 1.0 0.0 0.0 0.0 0.0 0.0 2.1 0.4 1.2 0.4 0.0
0.0 0.0 0.0 0.0 0.0 0.0 0.0 0.0 1.7 0.0 0.0 5.9 5.3 0.0 0.0 0.0 0.0 0.0 0.0 0.0 0.0 0.0 0.0 0.0 0.0 0.0 0.0 0.0 0.0 0.0 0.0 0.3 0.7 1.3 0.0 0.0 0.3 0.1 0.1 1.7 2.5 2.2 0.8 0.0
0.0 0.0 0.0 0.0 0.0 0.0 0.0 0.0 8.4 0.0 0.0 0.0 0.0 0.0 0.0 0.0 0.0 0.0 0.0 0.0 0.0 0.0 0.0 0.0 0.0 0.0 0.0 0.0 0.0 0.0 0.0 0.0 0.0 0.1 0.6 1.2 1.8 0.0 0.6 3.7 5.0 0.0 0.2 0.0
0.0 0.0 0.0 0.0 0.0 0.0 0.0 0.0 3.9 0.0 3.1 0.0 0.0 0.0 0.0 0.0 0.0 0.0 0.0 0.0 0.0 0.0 0.0 0.0 0.0 0.0 0.0 0.0 0.0 0.0 0.0 0.0 0.0 0.0 0.6 1.9 2.0 0.7 0.4 3.0 0.5 1.9 0.0 0.0
0.0 0.0 0.0 0.0 0.0 0.0 0.0 0.0 0.0 0.0 0.0 0.0 0.0 0.0 0.0 0.0 0.0 0.0 0.0 0.0 0.0 0.0 0.0 0.0 0.0 0.0 0.0 0.0 0.0 0.0 0.0 0.0 0.1 0.6 0.0 0.9 1.6 0.4 0.4 0.2 0.0 0.2 0.0 0.0
0.0 0.0 0.0 0.0 0.0 0.0 0.0 0.0 0.0 0.0 0.0 0.0 0.0 0.0 0.0 0.0 0.0 0.0 0.0 0.0 0.0 0.0 0.0 0.0 0.0 0.0 0.0 0.0 0.0 0.0 0.0 0.0 1.5 0.6 0.0 0.7 0.6 0.2 0.1 0.0 0.0 0.0 0.1 0.0
0.0 0.0 0.0 0.0 0.0 0.0 0.0 0.0 0.0 0.0 0.0 0.0 0.0 0.0 0.0 0.0 0.0 0.0 0.0 0.0 0.0 0.0 0.0 0.0 0.0 0.0 0.0 0.0 0.0 0.0 0.0 0.6 1.9 0.8 0.6 2.4 0.0 0.0 0.0 0.0 0.0 0.0 0.0 0.0
0.0 0.0 0.0 0.0 0.0 0.0 0.0 0.0 0.0 0.0 0.0 0.0 0.0 0.0 0.0 0.0 0.0 0.0 0.0 0.0 0.0 0.0 0.0 0.0 0.0 0.0 0.0 0.0 0.0 0.0 0.0 0.0 1.8 1.6 1.4 0.0 0.0 0.0 0.0 0.0 0.0 0.0 0.0 0.0
0.0 0.0 0.0 0.0 0.0 0.0 0.0 0.0 0.0 0.0 0.0 0.0 0.0 0.0 0.0 0.0 0.0 0.0 0.0 0.0 0.0 0.0 0.0 0.0 0.8 0.3 0.1 0.0 0.0 0.0 0.0 0.0 1.2 0.9 0.8 0.1 0.0 0.0 0.0 0.0 0.0 0.0 0.0 0.0
0.0 0.0 0.0 0.0 0.0 0.0 0.0 0.0 0.0 0.0 0.0 0.0 0.0 0.0 0.0 0.0 0.0 0.0 0.0 0.0 0.0 0.0 0.0 1.1 0.6 0.0 0.0 0.0 0.0 0.2 0.3 0.3 1.4 1.0 1.2 0.0 0.0 0.0 0.0 0.0 0.0 0.0 0.0 0.0
0.0 0.0 0.0 0.0 0.0 0.0 0.0 0.0 0.0 0.0 0.0 0.0 0.0 0.0 0.0 0.0 0.0 0.0 0.0 0.0 0.0 0.0 0.7 0.0 0.0 0.1 0.0 0.0 0.0 0.0 0.0 0.2 0.2 0.6 0.5 0.0 0.0 0.0 0.0 0.0 0.0 0.0 0.0 0.0
0.0 0.0 0.0 0.0 0.0 0.0 0.0 0.0 0.0 0.0 0.0 0.0 0.0 0.0 0.0 0.0 0.0 0.0 0.0 0.0 0.0 0.0 0.0 0.0 0.0 0.1 0.0 0.0 0.0 0.0 0.0 0.0 0.0 0.0 0.0 0.0 0.0 0.0 0.0 0.0 0.0 0.0 0.0 0.0
0.0 0.0 0.0 0.0 0.0 0.0 0.0 0.0 0.0 0.0 0.1 0.0 0.0 0.0 0.0 0.0 0.0 0.0 0.0 0.0 0.0 0.0 0.0 0.0 0.0 0.0 0.0 0.1 0.0 0.0 0.0 0.0 0.0 0.0 0.0 0.0 0.0 0.0 0.0 0.0 0.0 0.0 0.0 0.0
0.0 0.0 0.0 0.0 0.0 0.0 0.0 0.0 0.0 0.0 0.1 0.8 0.1 0.0 0.0 0.0 0.0 0.0 0.0 0.0 0.0 0.0 0.0 0.0 0.0 0.0 0.0 0.0 0.0 0.0 0.0 0.0 0.0 0.0 0.0 0.0 0.0 0.0 0.0 0.0 0.0 0.0 0.0 0.0
0.0 0.0 0.0 0.0 0.0 0.0 0.0 0.0 0.0 0.0 0.2 1.9 0.3 0.0 0.0 0.0 0.0 0.0 0.0 0.0 0.0 0.5 0.3 1.1 0.7 0.0 0.0 0.0 0.0 0.0 0.0 0.0 0.0 0.0 0.0 0.0 0.0 0.0 0.0 0.0 0.0 0.0 0.0 0.0
0.0 0.0 0.0 0.0 0.0 0.0 0.0 0.0 0.0 0.0 0.0 3.0 1.6 0.0 0.0 0.0 0.0 0.0 0.0 0.0 0.0 0.1 1.1 1.6 0.0 0.0 0.0 0.6 0.0 0.0 0.0 0.0 0.0 0.0 0.0 0.0 0.0 0.0 0.0 0.0 0.0 0.0 0.0 0.0
0.0 0.0 0.0 0.0 0.0 0.0 0.2 0.0 0.0 0.0 0.0 1.5 3.8 4.0 0.0 0.0 0.0 0.0 0.0 0.0 0.0 2.0 3.2 1.5 0.0 0.0 1.6 1.3 0.3 0.0 0.0 0.0 0.0 0.0 0.0 0.0 0.0 0.0 0.0 0.0 0.0 0.0 0.0 0.0
0.0 0.0 0.0 0.0 0.0 0.0 0.0 0.0 0.0 0.0 0.0 4.3 8.6 7.1 2.9 0.0 0.4 0.0 0.0 0.0 0.0 0.5 1.4 0.0 0.0 0.0 2.2 1.4 0.0 0.0 0.0 0.0 0.0 0.0 0.0 0.0 0.0 0.0 0.0 0.0 0.0 0.0 0.0 0.0
0.0 0.0 0.0 0.0 0.0 0.0 0.0 0.0 0.0 0.0 0.0 7.3 6.7 6.7 5.1 0.0 0.0 0.0 0.2 0.0 4.5 0.0 1.6 0.0 0.4 1.2 2.8 0.0 0.1 0.1 0.0 0.1 0.0 0.0 0.0 0.0 0.0 0.0 0.0 0.0 0.0 0.0 0.0 0.0
0.0 0.0 0.0 0.9 0.0 0.0 0.0 0.0 0.7 4.5 3.5 3.8 5.1 4.8 5.9 3.0 4.7 1.7 1.7 1.9 3.0 3.7 0.0 0.0 1.2 0.0 0.0 0.0 0.0 0.1 0.1 0.0 0.1 0.0 3.0 1.6 1.0 0.0 0.0 0.0 0.0 0.0 0.0 0.0
0.0 0.0 0.0 0.0 0.0 0.0 0.0 5.6 6.7 3.8 2.4 2.3 3.3 4.5 3.7 0.0 5.0 3.5 0.3 5.7 2.5 4.1 4.9 1.1 2.2 1.6 1.2 0.0 0.1 0.0 0.0 0.1 0.0 0.0 0.0 0.5 2.1 2.0 0.6 0.4 0.2 0.0 0.0 0.0
0.0 0.0 0.0 0.0 0.8 6.5 6.9 6.8 3.9 1.3 1.0 1.6 2.9 1.5 1.0 1.0 0.0 2.1 1.9 3.7 3.3 3.7 5.2 3.8 2.7 1.0 0.2 1.1 1.0 0.7 0.1 0.0 0.1 0.0 0.0 0.3 0.0 1.0 1.3 0.9 1.2 1.4 1.6 1.6
0.0 0.0 8.7 8.7 9.6 7.5 5.2 3.1 2.6 0.5 0.7 0.9 0.9 1.2 0.0 0.0 0.1 0.6 1.6 1.6 0.7 1.2 3.7 3.9 1.7 0.3 0.2 0.0 0.2 0.5 2.2 2.7 1.5 1.0 0.8 0.8 0.8 0.5 0.9 0.8 0.5 0.7 0.4 0.7
2.2 17.5 14.7 8.0 6.0 1.2 1.2 1.1 1.1 0.2 0.1 0.0 0.0 0.6 1.3 0.2 1.2 1.2 1.6 0.1 0.6 2.4 1.7 1.5 0.2 0.2 0.0 0.0 0.0 0.0 0.0 1.1 1.8 2.8 2.3 1.8 2.1 1.3 1.5 0.9 0.3 0.0 0.0 0.0
20.5 17.9 9.3 3.3 0.0 0.2 0.1 0.0 0.2 0.0 0.0 0.1 0.0 0.0 0.1 1.0 1.7 0.5 1.2 1.0 2.8 3.2 2.0 1.4 0.7 0.2 0.0 0.1 0.1 0.0 0.0 0.0 0.0 0.3 0.7 2.1 1.9 2.2 1.4 0.7 0.6 0.1 0.0 0.1
20.9 15.0 4.8 0.0 0.0 0.0 0.0 0.0 0.0 0.0 0.0 0.3 0.4 0.6 1.4 0.9 2.0 1.5 0.3 1.2 2.0 2.5 1.3 0.0 0.0 0.0 0.0 0.1 0.0 0.1 0.0 0.0 0.0 0.0 0.0 0.5 0.5 1.1 1.0 0.2 0.5 0.4 0.0 0.6
21.2 7.9 0.6 0.0 0.0 0.0 0.0 0.0 0.0 0.0 0.5 1.9 2.6 3.5 0.1 1.0 1.6 0.7 0.1 0.2 0.3 0.3 0.0 0.0 0.0 0.0 0.0 0.4 0.0 0.0 0.1 0.0 0.0 0.2 0.2 0.8 0.4 1.4 1.8 1.1 0.4 0.5 0.7 0.8

GFSNW_prec_snow_141.txt.gz
Snowfall_Accumulation
0.0 0.0 0.0 0.0 0.0 0.0 0.0 0.0 11.3 0.0 0.0 4.1 7.4 10.0 3.3 0.0 0.0 0.0 0.0 0.0 0.0 0.0 0.0 0.0 0.0 0.0 0.0 0.0 0.0 0.0 0.0 0.1 0.4 1.0 0.0 0.0 0.0 0.0 0.0 2.1 0.4 1.2 0.4 0.0
0.0 0.0 0.0 0.0 0.0 0.0 0.0 0.0 1.7 0.0 0.0 5.9 5.3 0.0 0.0 0.0 0.0 0.0 0.0 0.0 0.0 0.0 0.0 0.0 0.0 0.0 0.0 0.0 0.0 0.0 0.0 0.3 0.7 1.3 0.0 0.0 0.3 0.1 0.1 1.7 2.5 2.2 0.8 0.0
0.0 0.0 0.0 0.0 0.0 0.0 0.0 0.0 8.4 0.0 0.0 0.0 0.0 0.0 0.0 0.0 0.0 0.0 0.0 0.0 0.0 0.0 0.0 0.0 0.0 0.0 0.0 0.0 0.0 0.0 0.0 0.0 0.0 0.1 0.6 1.2 1.8 0.0 0.6 3.7 5.0 0.0 0.2 0.0
0.0 0.0 0.0 0.0 0.0 0.0 0.0 0.0 3.9 0.0 3.1 0.0 0.0 0.0 0.0 0.0 0.0 0.0 0.0 0.0 0.0 0.0 0.0 0.0 0.0 0.0 0.0 0.0 0.0 0.0 0.0 0.0 0.0 0.0 0.6 1.9 2.0 0.7 0.4 3.0 0.5 1.9 0.0 0.0
0.0 0.0 0.0 0.0 0.0 0.0 0.0 0.0 0.0 0.0 0.0 0.0 0.0 0.0 0.0 0.0 0.0 0.0 0.0 0.0 0.0 0.0 0.0 0.0 0.0 0.0 0.0 0.0 0.0 0.0 0.0 0.0 0.1 0.6 0.0 0.9 1.6 0.4 0.4 0.2 0.0 0.2 0.0 0.0
0.0 0.0 0.0 0.0 0.0 0.0 0.0 0.0 0.0 0.0 0.0 0.0 0.0 0.0 0.0 0.0 0.0 0.0 0.0 0.0 0.0 0.0 0.0 0.0 0.0 0.0 0.0 0.0 0.0 0.0 0.0 0.0 1.5 0.6 0.0 0.7 0.6 0.2 0.1 0.0 0.0 0.0 0.1 0.0
0.0 0.0 0.0 0.0 0.0 0.0 0.0 0.0 0.0 0.0 0.0 0.0 0.0 0.0 0.0 0.0 0.0 0.0 0.0 0.0 0.0 0.0 0.0 0.0 0.0 0.0 0.0 0.0 0.0 0.0 0.0 0.6 1.9 0.8 0.6 2.4 0.0 0.0 0.0 0.0 0.0 0.0 0.0 0.0
0.0 0.0 0.0 0.0 0.0 0.0 0.0 0.0 0.0 0.0 0.0 0.0 0.0 0.0 0.0 0.0 0.0 0.0 0.0 0.0 0.0 0.0 0.0 0.0 0.0 0.0 0.0 0.0 0.0 0.0 0.0 0.0 1.8 1.6 1.4 0.0 0.0 0.0 0.0 0.0 0.0 0.0 0.0 0.0
0.0 0.0 0.0 0.0 0.0 0.0 0.0 0.0 0.0 0.0 0.0 0.0 0.0 0.0 0.0 0.0 0.0 0.0 0.0 0.0 0.0 0.0 0.0 0.0 0.8 0.3 0.1 0.0 0.0 0.0 0.0 0.0 1.2 0.9 0.8 0.1 0.0 0.0 0.0 0.0 0.0 0.0 0.0 0.0
0.0 0.0 0.0 0.0 0.0 0.0 0.0 0.0 0.0 0.0 0.0 0.0 0.0 0.0 0.0 0.0 0.0 0.0 0.0 0.0 0.0 0.0 0.0 1.1 0.6 0.0 0.0 0.0 0.0 0.2 0.3 0.3 1.4 1.0 1.2 0.0 0.0 0.0 0.0 0.0 0.0 0.0 0.0 0.0
0.0 0.0 0.0 0.0 0.0 0.0 0.0 0.0 0.0 0.0 0.0 0.0 0.0 0.0 0.0 0.0 0.0 0.0 0.0 0.0 0.0 0.0 0.7 0.0 0.0 0.1 0.0 0.0 0.0 0.0 0.0 0.2 0.2 0.6 0.5 0.0 0.0 0.0 0.0 0.0 0.0 0.0 0.0 0.0
0.0 0.0 0.0 0.0 0.0 0.0 0.0 0.0 0.0 0.0 0.0 0.0 0.0 0.0 0.0 0.0 0.0 0.0 0.0 0.0 0.0 0.0 0.0 0.0 0.0 0.1 0.0 0.0 0.0 0.0 0.0 0.0 0.0 0.0 0.0 0.0 0.0 0.0 0.0 0.0 0.0 0.0 0.0 0.0
0.0 0.0 0.0 0.0 0.0 0.0 0.0 0.0 0.0 0.0 0.1 0.0 0.0 0.0 0.0 0.0 0.0 0.0 0.0 0.0 0.0 0.0 0.0 0.0 0.0 0.0 0.0 0.1 0.0 0.0 0.0 0.0 0.0 0.0 0.0 0.0 0.0 0.0 0.0 0.0 0.0 0.0 0.0 0.0
0.0 0.0 0.0 0.0 0.0 0.0 0.0 0.0 0.0 0.0 0.1 0.8 0.1 0.0 0.0 0.0 0.0 0.0 0.0 0.0 0.0 0.0 0.0 0.0 0.0 0.0 0.0 0.0 0.0 0.0 0.0 0.0 0.0 0.0 0.0 0.0 0.0 0.0 0.0 0.0 0.0 0.0 0.0 0.0
0.0 0.0 0.0 0.0 0.0 0.0 0.0 0.0 0.0 0.0 0.2 1.9 0.3 0.0 0.0 0.0 0.0 0.0 0.0 0.0 0.0 0.5 0.3 1.1 0.7 0.0 0.0 0.0 0.0 0.0 0.0 0.0 0.0 0.0 0.0 0.0 0.0 0.0 0.0 0.0 0.0 0.0 0.0 0.0
0.0 0.0 0.0 0.0 0.0 0.0 0.0 0.0 0.0 0.0 0.0 3.0 1.6 0.0 0.0 0.0 0.0 0.0 0.0 0.0 0.0 0.1 1.1 1.6 0.0 0.0 0.0 0.6 0.0 0.0 0.0 0.0 0.0 0.0 0.0 0.0 0.0 0.0 0.0 0.0 0.0 0.0 0.0 0.0
0.0 0.0 0.0 0.0 0.0 0.0 0.2 0.0 0.0 0.0 0.0 1.5 3.8 4.0 0.0 0.0 0.0 0.0 0.0 0.0 0.0 2.0 3.2 1.5 0.0 0.0 1.6 1.3 0.3 0.0 0.0 0.0 0.0 0.0 0.0 0.0 0.0 0.0 0.0 0.0 0.0 0.0 0.0 0.0
0.0 0.0 0.0 0.0 0.0 0.0 0.0 0.0 0.0 0.0 0.0 4.3 8.6 7.1 2.9 0.0 0.4 0.0 0.0 0.0 0.0 0.5 1.4 0.0 0.0 0.0 2.2 1.4 0.0 0.0 0.0 0.0 0.0 0.0 0.0 0.0 0.0 0.0 0.0 0.0 0.0 0.0 0.0 0.0
0.0 0.0 0.0 0.0 0.0 0.0 0.0 0.0 0.0 0.0 0.0 7.3 6.7 6.7 5.1 0.0 0.0 0.0 0.2 0.0 4.5 0.0 1.6 0.0 0.4 1.2 2.8 0.0 0.1 0.1 0.0 0.1 0.0 0.0 0.0 0.0 0.0 0.0 0.0 0.0 0.0 0.0 0.0 0.0
0.0 0.0 0.0 0.9 0.0 0.0 0.0 0.0 0.7 4.5 3.5 3.8 5.1 4.8 5.9 3.0 4.7 1.7 1.7 1.9 3.0 3.7 0.0 0.0 1.2 0.0 0.0 0.0 0.0 0.1 0.1 0.0 0.1 0.0 3.0 1.6 1.0 0.0 0.0 0.0 0.0 0.0 0.0 0.0
0.0 0.0 0.0 0.0 0.0 0.0 0.0 5.6 6.7 3.8 2.4 2.3 3.3 4.5 3.7 0.0 5.0 3.5 0.3 5.7 2.5 4.1 4.9 1.1 2.2 1.6 1.2 0.0 0.1 0.0 0.0 0.1 0.0 0.0 0.0 0.5 2.1 2.0 0.6 0.4 0.2 0.0 0.0 0.0
0.0 0.0 0.0 0.0 0.8 7.4 7.9 7.3 4.0 1.3 1.0 1.6 2.9 1.5 1.0 1.0 0.0 2.1 1.9 3.7 3.3 3.7 5.2 3.8 2.7 1.0 0.2 1.1 1.0 0.7 0.1 0.0 0.1 0.0 0.0 0.3 0.0 1.0 1.3 0.9 1.2 1.4 1.6 1.6
0.0 0.0 12.2 11.7 12.4 8.9 5.9 3.3 2.6 0.5 0.7 0.9 0.9 1.2 0.0 0.0 0.1 0.6 1.6 1.6 0.7 1.2 3.8 3.9 1.7 0.3 0.2 0.0 0.2 0.5 2.2 2.7 1.5 1.0 0.8 0.8 0.8 0.5 0.9 0.8 0.5 0.7 0.4 0.7
3.4 20.5 17.9 10.8 8.1 1.6 1.2 1.1 1.1 0.2 0.1 0.0 0.0 0.6 1.3 0.2 1.2 1.2 1.6 0.1 0.6 2.5 1.7 1.5 0.2 0.2 0.0 0.0 0.0 0.0 0.0 1.1 1.8 2.8 2.3 1.8 2.1 1.3 1.5 0.9 0.3 0.0 0.0 0.0
21.2 19.2 11.3 4.8 0.2 0.2 0.1 0.0 0.2 0.0 0.0 0.1 0.0 0.0 0.1 1.0 1.7 0.5 1.2 1.0 2.8 3.2 2.0 1.4 0.7 0.2 0.0 0.1 0.1 0.0 0.0 0.0 0.0 0.3 0.7 2.1 1.9 2.2 1.4 0.7 0.6 0.1 0.0 0.1
21.5 15.0 4.8 0.0 0.0 0.0 0.0 0.0 0.0 0.0 0.0 0.3 0.4 0.6 1.4 0.9 2.0 1.5 0.3 1.2 2.0 2.5 1.3 0.0 0.0 0.0 0.0 0.1 0.0 0.1 0.0 0.0 0.0 0.0 0.0 0.5 0.5 1.1 1.0 0.2 0.5 0.4 0.0 0.6
21.4 7.9 0.6 0.0 0.0 0.0 0.0 0.0 0.0 0.0 0.5 1.9 2.6 3.5 0.1 1.0 1.6 0.7 0.1 0.2 0.3 0.3 0.0 0.0 0.0 0.0 0.0 0.4 0.0 0.0 0.1 0.0 0.0 0.2 0.2 0.8 0.4 1.4 1.8 1.1 0.4 0.5 0.7 0.8

GFSNW_prec_snow_144.txt.gz
Snowfall_Accumulation
0.0 0.0 0.0 0.0 0.0 0.0 0.0 0.0 11.3 0.0 0.0 4.1 7.4 10.0 3.3 0.0 0.0 0.0 0.0 0.0 0.0 0.0 0.0 0.0 0.0 0.0 0.0 0.0 0.0 0.0 0.0 0.1 0.4 1.0 0.0 0.0 0.0 0.0 0.0 2.1 0.4 1.2 0.4 0.0
0.0 0.0 0.0 0.0 0.0 0.0 0.0 0.0 1.7 0.0 0.0 5.9 5.3 0.0 0.0 0.0 0.0 0.0 0.0 0.0 0.0 0.0 0.0 0.0 0.0 0.0 0.0 0.0 0.0 0.0 0.0 0.3 0.7 1.3 0.0 0.0 0.3 0.1 0.1 1.7 2.5 2.2 0.8 0.0
0.0 0.0 0.0 0.0 0.0 0.0 0.0 0.0 8.4 0.0 0.0 0.0 0.0 0.0 0.0 0.0 0.0 0.0 0.0 0.0 0.0 0.0 0.0 0.0 0.0 0.0 0.0 0.0 0.0 0.0 0.0 0.0 0.0 0.1 0.6 1.2 1.8 0.0 0.6 3.7 5.0 0.0 0.2 0.0
0.0 0.0 0.0 0.0 0.0 0.0 0.0 0.0 3.9 0.0 3.1 0.0 0.0 0.0 0.0 0.0 0.0 0.0 0.0 0.0 0.0 0.0 0.0 0.0 0.0 0.0 0.0 0.0 0.0 0.0 0.0 0.0 0.0 0.0 0.6 1.9 2.0 0.7 0.4 3.0 0.5 1.9 0.0 0.0
0.0 0.0 0.0 0.0 0.0 0.0 0.0 0.0 0.0 0.0 0.0 0.0 0.0 0.0 0.0 0.0 0.0 0.0 0.0 0.0 0.0 0.0 0.0 0.0 0.0 0.0 0.0 0.0 0.0 0.0 0.0 0.0 0.1 0.6 0.0 0.9 1.6 0.4 0.4 0.2 0.0 0.2 0.0 0.0
0.0 0.0 0.0 0.0 0.0 0.0 0.0 0.0 0.0 0.0 0.0 0.0 0.0 0.0 0.0 0.0 0.0 0.0 0.0 0.0 0.0 0.0 0.0 0.0 0.0 0.0 0.0 0.0 0.0 0.0 0.0 0.0 1.5 0.6 0.0 0.7 0.6 0.2 0.1 0.0 0.0 0.0 0.1 0.0
0.0 0.0 0.0 0.0 0.0 0.0 0.0 0.0 0.0 0.0 0.0 0.0 0.0 0.0 0.0 0.0 0.0 0.0 0.0 0.0 0.0 0.0 0.0 0.0 0.0 0.0 0.0 0.0 0.0 0.0 0.0 0.6 1.9 0.8 0.6 2.4 0.0 0.0 0.0 0.0 0.0 0.0 0.0 0.0
0.0 0.0 0.0 0.0 0.0 0.0 0.0 0.0 0.0 0.0 0.0 0.0 0.0 0.0 0.0 0.0 0.0 0.0 0.0 0.0 0.0 0.0 0.0 0.0 0.0 0.0 0.0 0.0 0.0 0.0 0.0 0.0 1.8 1.6 1.4 0.0 0.0 0.0 0.0 0.0 0.0 0.0 0.0 0.0
0.0 0.0 0.0 0.0 0.0 0.0 0.0 0.0 0.0 0.0 0.0 0.0 0.0 0.0 0.0 0.0 0.0 0.0 0.0 0.0 0.0 0.0 0.0 0.0 0.8 0.3 0.1 0.0 0.0 0.0 0.0 0.0 1.2 0.9 0.8 0.1 0.0 0.0 0.0 0.0 0.0 0.0 0.0 0.0
0.0 0.0 0.0 0.0 0.0 0.0 0.0 0.0 0.0 0.0 0.0 0.0 0.0 0.0 0.0 0.0 0.0 0.0 0.0 0.0 0.0 0.0 0.0 1.1 0.6 0.0 0.0 0.0 0.0 0.2 0.3 0.3 1.4 1.0 1.2 0.0 0.0 0.0 0.0 0.0 0.0 0.0 0.0 0.0
0.0 0.0 0.0 0.0 0.0 0.0 0.0 0.0 0.0 0.0 0.0 0.0 0.0 0.0 0.0 0.0 0.0 0.0 0.0 0.0 0.0 0.0 0.7 0.0 0.0 0.1 0.0 0.0 0.0 0.0 0.0 0.2 0.2 0.6 0.5 0.0 0.0 0.0 0.0 0.0 0.0 0.0 0.0 0.0
0.0 0.0 0.0 0.0 0.0 0.0 0.0 0.0 0.0 0.0 0.0 0.0 0.0 0.0 0.0 0.0 0.0 0.0 0.0 0.0 0.0 0.0 0.0 0.0 0.0 0.1 0.0 0.0 0.0 0.0 0.0 0.0 0.0 0.0 0.0 0.0 0.0 0.0 0.0 0.0 0.0 0.0 0.0 0.0
0.0 0.0 0.0 0.0 0.0 0.0 0.0 0.0 0.0 0.0 0.1 0.0 0.0 0.0 0.0 0.0 0.0 0.0 0.0 0.0 0.0 0.0 0.0 0.0 0.0 0.0 0.0 0.1 0.0 0.0 0.0 0.0 0.0 0.0 0.0 0.0 0.0 0.0 0.0 0.0 0.0 0.0 0.0 0.0
0.0 0.0 0.0 0.0 0.0 0.0 0.0 0.0 0.0 0.0 0.1 0.8 0.1 0.0 0.0 0.0 0.0 0.0 0.0 0.0 0.0 0.0 0.0 0.0 0.0 0.0 0.0 0.0 0.0 0.0 0.0 0.0 0.0 0.0 0.0 0.0 0.0 0.0 0.0 0.0 0.0 0.0 0.0 0.0
0.0 0.0 0.0 0.0 0.0 0.0 0.0 0.0 0.0 0.0 0.2 1.9 0.3 0.0 0.0 0.0 0.0 0.0 0.0 0.0 0.0 0.5 0.3 1.1 0.7 0.0 0.0 0.0 0.0 0.0 0.0 0.0 0.0 0.0 0.0 0.0 0.0 0.0 0.0 0.0 0.0 0.0 0.0 0.0
0.0 0.0 0.0 0.0 0.0 0.0 0.0 0.0 0.0 0.0 0.0 3.0 1.6 0.0 0.0 0.0 0.0 0.0 0.0 0.0 0.0 0.1 1.1 1.6 0.0 0.0 0.0 0.6 0.0 0.0 0.0 0.0 0.0 0.0 0.0 0.0 0.0 0.0 0.0 0.0 0.0 0.0 0.0 0.0
0.0 0.0 0.0 0.0 0.0 0.0 0.2 0.0 0.0 0.0 0.0 1.5 3.8 4.0 0.0 0.0 0.0 0.0 0.0 0.0 0.0 2.0 3.2 1.5 0.0 0.0 1.6 1.3 0.3 0.0 0.0 0.0 0.0 0.0 0.0 0.0 0.0 0.0 0.0 0.0 0.0 0.0 0.0 0.0
0.0 0.0 0.0 0.0 0.0 0.0 0.0 0.0 0.0 0.0 0.0 4.3 8.6 7.1 2.9 0.0 0.4 0.0 0.0 0.0 0.0 0.5 1.4 0.0 0.0 0.0 2.2 1.4 0.0 0.0 0.0 0.0 0.0 0.0 0.0 0.0 0.0 0.0 0.0 0.0 0.0 0.0 0.0 0.0
0.0 0.0 0.0 0.0 0.0 0.0 0.0 0.0 0.0 0.0 0.0 7.3 6.7 6.7 5.1 0.0 0.0 0.0 0.2 0.0 4.5 0.0 1.6 0.0 0.4 1.2 2.8 0.0 0.1 0.1 0.0 0.1 0.0 0.0 0.0 0.0 0.0 0.0 0.0 0.0 0.0 0.0 0.0 0.0
0.0 0.0 0.0 0.9 0.0 0.0 0.0 0.0 0.7 4.5 3.5 3.8 5.1 4.8 5.9 3.0 4.7 1.7 1.7 1.9 3.0 3.7 0.0 0.0 1.2 0.0 0.0 0.0 0.0 0.1 0.1 0.0 0.1 0.0 3.0 1.6 1.0 0.0 0.0 0.0 0.0 0.0 0.0 0.0
0.0 0.0 0.0 0.0 0.0 0.0 0.0 5.6 6.7 3.8 2.5 2.3 3.3 4.5 3.7 0.0 5.0 3.5 0.3 5.7 2.5 4.1 4.9 1.1 2.2 1.6 1.2 0.0 0.1 0.0 0.0 0.1 0.0 0.0 0.0 0.5 2.1 2.0 0.6 0.4 0.2 0.0 0.0 0.0
0.0 0.0 0.0 0.0 0.8 8.8 9.2 7.9 4.1 1.3 1.0 1.6 2.9 1.5 1.0 1.0 0.0 2.1 1.9 3.7 3.3 3.7 5.2 3.8 2.7 1.0 0.2 1.1 1.0 0.7 0.1 0.0 0.1 0.0 0.0 0.3 0.0 1.0 1.3 0.9 1.2 1.4 1.6 1.6
0.0 2.0 14.8 14.5 15.1 10.4 6.5 3.5 2.7 0.5 0.7 0.9 0.9 1.2 0.0 0.0 0.1 0.6 1.6 1.6 0.7 1.2 3.8 3.9 1.7 0.3 0.2 0.0 0.2 0.5 2.2 2.7 1.5 1.0 0.8 0.8 0.8 0.5 0.9 0.8 0.5 0.7 0.4 0.7
3.7 22.1 19.9 12.6 9.9 1.9 1.2 1.1 1.1 0.2 0.1 0.0 0.0 0.6 1.3 0.2 1.2 1.2 1.6 0.1 0.6 2.5 1.7 1.5 0.2 0.2 0.0 0.0 0.0 0.0 0.0 1.1 1.8 2.8 2.3 1.8 2.1 1.3 1.5 0.9 0.3 0.0 0.0 0.0
22.0 19.2 12.5 5.8 0.2 0.2 0.1 0.0 0.2 0.0 0.0 0.1 0.0 0.0 0.1 1.0 1.7 0.5 1.2 1.0 2.8 3.2 2.0 1.4 0.7 0.2 0.0 0.1 0.1 0.0 0.0 0.0 0.0 0.3 0.7 2.1 1.9 2.2 1.4 0.7 0.6 0.1 0.0 0.1
21.7 15.4 5.1 0.0 0.0 0.0 0.0 0.0 0.0 0.0 0.0 0.3 0.4 0.6 1.4 0.9 2.0 1.5 0.3 1.2 2.0 2.5 1.3 0.0 0.0 0.0 0.0 0.1 0.0 0.1 0.0 0.0 0.0 0.0 0.0 0.5 0.5 1.1 1.0 0.2 0.5 0.4 0.0 0.6
21.4 7.9 0.6 0.0 0.0 0.0 0.0 0.0 0.0 0.0 0.5 1.9 2.6 3.5 0.1 1.0 1.6 0.7 0.1 0.2 0.3 0.3 0.0 0.0 0.0 0.0 0.0 0.4 0.0 0.0 0.1 0.0 0.0 0.2 0.2 0.8 0.4 1.4 1.8 1.1 0.4 0.5 0.7 0.8